[[{"header":{"parameterUnit":"m.s-1","parameterCategory":1,"la1":31.0,"la2":29.5877,"lo1":-88.7671,"lo2":-86.6584,"dy":0.0162,"dx":0.0185,"nx":115,"ny":88,"refTime":"2026-04-09T12:00:00:Z","depth":0,"parameterNumber":2,"parameterNumberName":"U-component_of_WINDS"},"data":[0.0,0.0,0.0,0.0,0.0,0.0,0.0,0.0,0.0,0.0,0.0,0.0,0.0,0.0,0.0,0.0,0.0,0.0,0.0,0.0,0.0,0.0,0.0,0.0,0.0,0.0,0.0,0.0,0.0,0.0,0.0,0.0,0.0,0.0,0.0,0.0,0.0,0.0,0.0,0.0,0.0,0.0,0.0,0.0,0.0,0.0,0.0,0.0,0.0,0.0,0.0,0.0,0.0,0.0,0.0,0.0,0.0,0.0,0.0,0.0,0.0,0.0,0.0,0.0,0.0,0.0,0.0,0.0,0.0,0.0,0.0,0.0,0.0,0.0,0.0,0.0,0.0,0.0,0.0,0.0,0.0,0.0,0.0,0.0,0.0,0.0,0.0,0.0,0.0,0.0,0.0,0.0,0.0,0.0,0.0,0.0,0.0,0.0,0.0,0.0,0.0,0.0,0.0,0.0,0.0,0.0,0.0,0.0,0.0,0.0,0.0,0.0,0.0,0.0,0.0,0.0,0.0,0.0,0.0,0.0,0.0,0.0,0.0,0.0,0.0,0.0,0.0,0.0,0.0,0.0,0.0,0.0,0.0,0.0,0.0,0.0,0.0,0.0,0.0,0.0,0.0,0.0,0.0,0.0,0.0,0.0,0.0,0.0,0.0,0.0,0.0,0.0,0.0,0.0,0.0,0.0,0.0,0.0,0.0,0.0,0.0,0.0,0.0,0.0,0.0,0.0,0.0,0.0,0.0,0.0,0.0,0.0,0.0,0.0,0.0,0.0,0.0,0.0,0.0,0.0,0.0,0.0,0.0,0.0,0.0,0.0,0.0,0.0,0.0,0.0,0.0,0.0,0.0,0.0,0.0,0.0,0.0,0.0,0.0,0.0,0.0,0.0,0.0,0.0,0.0,0.0,0.0,0.0,0.0,0.0,0.0,0.0,0.0,0.0,0.0,0.0,0.0,0.0,0.0,0.0,0.0,0.0,0.0,0.0,0.0,0.0,0.0,0.0,0.0,0.0,0.0,0.0,0.0,0.0,0.0,0.0,0.0,0.0,0.0,0.0,0.0,0.0,0.0,0.0,0.0,0.0,0.0,0.0,0.0,0.0,0.0,0.0,0.0,0.0,0.0,0.0,0.0,0.0,0.0,0.0,0.0,0.0,0.0,0.0,0.0,0.0,0.0,0.0,0.0,0.0,0.0,0.0,0.0,0.0,0.0,0.0,0.0,0.0,0.0,0.0,0.0,0.0,0.0,0.0,0.0,0.0,0.0,0.0,0.0,0.0,0.0,0.0,0.0,0.0,0.0,0.0,0.0,0.0,0.0,0.0,0.0,0.0,0.0,0.0,0.0,0.0,0.0,0.0,0.0,0.0,0.0,0.0,0.0,0.0,0.0,0.0,0.0,0.0,0.0,0.0,0.0,0.0,0.0,0.0,0.0,0.0,0.0,0.0,0.0,0.0,0.0,0.0,0.0,0.0,0.0,0.0,0.0,0.0,0.0,0.0,0.0,0.0,0.0,0.0,0.0,0.0,0.0,0.0,0.0,0.0,0.0,0.0,0.0,0.0,0.0,0.0,0.0,0.0,0.0,0.0,0.0,0.0,0.0,0.0,0.0,0.0,0.0,0.0,0.0,0.0,0.0,0.0,0.0,0.0,0.0,0.0,0.0,0.0,0.0,0.0,0.0,0.0,0.0,0.0,0.0,0.0,0.0,0.0,0.0,0.0,0.0,0.0,0.0,0.0,0.0,0.0,0.0,0.0,0.0,0.0,0.0,0.0,0.0,0.0,0.0,0.0,0.0,0.0,0.0,0.0,0.0,0.0,0.0,0.0,0.0,0.0,0.0,0.0,0.0,0.0,0.0,0.0,0.0,0.0,0.0,0.0,0.0,0.0,0.0,0.0,0.0,0.0,0.0,0.0,0.0,0.0,0.0,0.0,0.0,0.0,0.0,0.0,0.0,0.0,0.0,0.0,0.0,0.0,0.0,0.0,0.0,0.0,0.0,0.0,0.0,0.0,0.0,0.0,0.0,0.0,0.0,0.0,0.0,0.0,0.0,0.0,0.0,0.0,0.0,0.0,0.0,0.0,0.0,0.0,0.0,0.0,0.0,0.0,0.0,0.0,0.0,0.0,0.0,0.0,0.0,0.0,0.0,0.0,0.0,0.0,0.0,0.0,0.0,0.0,0.0,0.0,0.0,0.0,0.0,0.0,0.0,0.0,0.0,0.0,0.0,0.0,0.0,0.0,0.0,0.0,0.0,0.0,0.0,0.0,0.0,0.0,0.0,0.0,0.0,0.0,0.0,0.0,0.0,0.0,0.0,0.0,0.0,0.0,0.0,0.0,0.0,0.0,0.0,0.0,0.0,0.0,0.0,0.0,0.0,0.0,0.0,0.0,0.0,0.0,0.0,0.0,0.0,0.0,0.0,0.0,0.0,0.0,0.0,0.0,0.0,0.0,0.0,0.0,0.0,0.0,0.0,0.0,0.0,0.0,0.0,0.0,0.0,0.0,0.0,0.0,0.0,0.0,0.0,0.0,0.0,0.0,0.0,0.0,0.0,0.0,0.0,0.0,0.0,0.0,0.0,0.0,0.0,0.0,0.0,0.0,0.0,0.0,0.0,0.0,0.0,0.0,0.0,0.0,0.0,0.0,0.0,0.0,0.0,0.0,0.0,0.0,0.0,0.0,0.0,0.0,0.0,0.0,0.0,0.0,0.0,0.0,0.0,0.0,0.0,0.0,0.0,0.0,0.0,0.0,0.0,0.0,0.0,0.0,0.0,0.0,0.0,0.0,0.0,0.0,0.0,0.0,0.0,0.0,0.0,0.0,0.0,0.0,0.0,0.0,0.0,0.0,0.0,0.0,0.0,0.0,0.0,0.0,0.0,0.0,0.0,0.0,0.0,0.0,0.0,0.0,0.0,0.0,0.0,0.0,0.0,0.0,0.0,0.0,0.0,0.0,0.0,0.0,0.0,0.0,0.0,0.0,0.0,0.0,0.0,0.0,0.0,0.0,0.0,0.0,0.0,0.0,0.0,0.0,0.0,0.0,0.0,0.0,0.0,0.0,0.0,0.0,0.0,0.0,0.0,0.0,0.0,0.0,0.0,0.0,0.0,0.0,0.0,0.0,0.0,0.0,0.0,0.0,0.0,0.0,0.0,0.0,0.0,0.0,0.0,0.0,0.0,0.0,0.0,0.0,0.0,0.0,0.0,0.0,0.0,0.0,0.0,0.0,0.0,0.0,0.0,0.0,0.0,0.0,0.0,0.0,0.0,0.0,0.0,0.0,0.0,0.0,0.0,0.0,0.0,0.0,0.0,0.0,0.0,0.0,0.0,0.0,0.0,0.0,0.0,0.0,0.0,0.0,0.0,0.0,0.0,0.0,0.0,0.0,0.0,0.0,0.0,0.0,0.0,0.0,0.0,0.0,0.0,0.0,0.0,0.0,0.0,0.0,0.0,0.0,0.0,0.0,0.0,0.0,0.0,0.0,0.0,0.0,0.0,0.0,0.0,0.0,0.0,0.0,0.0,0.0,0.0,0.0,0.0,0.0,0.0,0.0,0.0,0.0,0.0,0.0,0.0,0.0,0.0,0.0,0.0,0.0,0.0,0.0,0.0,0.0,0.0,0.0,0.0,0.0,0.0,0.0,0.0,0.0,0.0,0.0,0.0,0.0,0.0,0.0,0.0,0.0,0.0,0.0,0.0,0.0,0.0,0.0,0.0,0.0,0.0,0.0,0.0,0.0,0.0,0.0,0.0,0.0,0.0,0.0,0.0,0.0,0.0,0.0,0.0,0.0,0.0,0.0,0.0,0.0,0.0,0.0,0.0,0.0,0.0,0.0,0.0,0.0,0.0,0.0,0.0,0.0,0.0,0.0,0.0,0.0,0.0,0.0,0.0,0.0,0.0,0.0,0.0,0.0,0.0,0.0,0.0,0.0,0.0,0.0,0.0,0.0,0.0,0.0,0.0,0.0,0.0,0.0,0.0,0.0,0.0,0.0,0.0,0.0,0.0,0.0,0.0,0.0,0.0,0.0,0.0,0.0,0.0,0.0,0.0,0.0,0.0,0.0,0.0,0.0,0.0,0.0,0.0,0.0,0.0,0.0,0.0,0.0,0.0,0.0,0.0,0.0,0.0,0.0,0.0,0.0,0.0,0.0,0.0,0.0,0.0,0.0,0.0,0.0,0.0,0.0,0.0,0.0,0.0,0.0,0.0,0.0,0.0,0.0,0.0,0.0,0.0,0.0,0.0,0.0,0.0,0.0,-1.7606,0.0,0.0,0.0,0.0,0.0,0.0,0.0,0.0,0.0,0.0,0.0,0.0,0.0,0.0,0.0,0.0,0.0,0.0,0.0,0.0,0.0,0.0,0.0,0.0,0.0,0.0,0.0,0.0,0.0,0.0,0.0,0.0,0.0,0.0,0.0,0.0,0.0,0.0,0.0,0.0,0.0,0.0,0.0,0.0,0.0,0.0,0.0,0.0,0.0,0.0,0.0,0.0,0.0,0.0,0.0,0.0,0.0,0.0,0.0,0.0,0.0,0.0,0.0,0.0,0.0,0.0,0.0,0.0,0.0,0.0,0.0,0.0,0.0,0.0,0.0,0.0,0.0,0.0,0.0,0.0,0.0,0.0,0.0,0.0,0.0,0.0,0.0,0.0,0.0,0.0,0.0,0.0,0.0,0.0,0.0,0.0,0.0,0.0,0.0,0.0,0.0,0.0,0.0,0.0,0.0,0.0,0.0,0.0,0.0,0.0,-2.0379,-2.036,-1.8719,-1.7819,-1.7818,0.0,0.0,0.0,0.0,0.0,0.0,0.0,0.0,0.0,0.0,0.0,0.0,0.0,0.0,0.0,0.0,0.0,0.0,0.0,0.0,0.0,0.0,0.0,0.0,0.0,0.0,0.0,0.0,0.0,0.0,0.0,0.0,0.0,0.0,0.0,0.0,0.0,0.0,0.0,0.0,0.0,0.0,0.0,0.0,0.0,0.0,0.0,0.0,0.0,0.0,0.0,0.0,0.0,0.0,0.0,0.0,0.0,0.0,0.0,0.0,0.0,0.0,0.0,0.0,0.0,0.0,0.0,0.0,0.0,0.0,0.0,0.0,0.0,0.0,0.0,0.0,0.0,0.0,0.0,0.0,0.0,0.0,0.0,0.0,0.0,0.0,0.0,0.0,0.0,0.0,0.0,0.0,0.0,0.0,0.0,0.0,0.0,0.0,0.0,0.0,0.0,0.0,0.0,0.0,0.0,0.0,0.0,0.0,0.0,0.0,0.0,0.0,-1.9186,-1.8136,-1.76,0.0,0.0,0.0,0.0,0.0,0.0,0.0,0.0,0.0,0.0,0.0,0.0,0.0,0.0,0.0,0.0,0.0,0.0,0.0,0.0,0.0,0.0,0.0,0.0,0.0,0.0,0.0,0.0,0.0,0.0,0.0,0.0,0.0,0.0,0.0,0.0,0.0,0.0,0.0,0.0,0.0,0.0,0.0,0.0,0.0,0.0,0.0,0.0,0.0,0.0,0.0,0.0,0.0,0.0,0.0,0.0,0.0,0.0,0.0,0.0,0.0,0.0,0.0,0.0,0.0,0.0,0.0,0.0,0.0,0.0,0.0,0.0,0.0,0.0,0.0,0.0,0.0,0.0,0.0,0.0,0.0,0.0,0.0,0.0,0.0,0.0,0.0,0.0,0.0,0.0,0.0,0.0,0.0,0.0,0.0,0.0,0.0,0.0,0.0,0.0,0.0,0.0,0.0,0.0,0.0,0.0,0.0,0.0,0.0,0.0,-1.9979,-2.1514,-2.0637,0.0,-1.6956,0.0,0.0,0.0,0.0,0.0,0.0,0.0,0.0,0.0,0.0,0.0,0.0,0.0,0.0,0.0,0.0,0.0,0.0,0.0,0.0,0.0,0.0,0.0,0.0,0.0,0.0,0.0,0.0,0.0,0.0,0.0,0.0,0.0,0.0,0.0,0.0,0.0,0.0,0.0,0.0,0.0,0.0,0.0,0.0,0.0,0.0,0.0,0.0,0.0,0.0,0.0,0.0,0.0,0.0,0.0,0.0,0.0,0.0,0.0,0.0,0.0,0.0,0.0,0.0,0.0,0.0,0.0,0.0,0.0,0.0,0.0,0.0,0.0,0.0,0.0,0.0,0.0,0.0,0.0,0.0,0.0,0.0,0.0,0.0,0.0,0.0,0.0,0.0,0.0,0.0,0.0,0.0,0.0,0.0,0.0,0.0,0.0,0.0,0.0,0.0,0.0,0.0,0.0,0.0,0.0,0.0,0.0,0.0,0.0,0.0,-2.0463,-2.1669,-2.035,-1.8678,0.0,0.0,0.0,0.0,0.0,0.0,0.0,0.0,0.0,0.0,0.0,0.0,0.0,0.0,0.0,0.0,0.0,0.0,0.0,0.0,0.0,0.0,0.0,0.0,0.0,0.0,0.0,0.0,0.0,0.0,0.0,0.0,0.0,0.0,0.0,0.0,0.0,0.0,0.0,0.0,0.0,0.0,0.0,0.0,0.0,0.0,0.0,0.0,0.0,0.0,0.0,0.0,0.0,0.0,0.0,0.0,0.0,0.0,0.0,0.0,0.0,0.0,0.0,0.0,0.0,0.0,0.0,0.0,0.0,0.0,0.0,0.0,0.0,0.0,0.0,0.0,0.0,0.0,0.0,0.0,0.0,0.0,0.0,0.0,0.0,0.0,0.0,0.0,0.0,0.0,0.0,0.0,0.0,0.0,0.0,0.0,0.0,0.0,0.0,0.0,0.0,0.0,0.0,0.0,0.0,0.0,0.0,0.0,0.0,0.0,-1.9841,-2.056,-2.1553,-2.0475,-1.8686,-1.6333,0.0,0.0,0.0,0.0,0.0,0.0,0.0,0.0,0.0,0.0,0.0,0.0,0.0,0.0,0.0,0.0,0.0,0.0,0.0,0.0,0.0,0.0,0.0,0.0,0.0,0.0,0.0,0.0,0.0,0.0,0.0,0.0,0.0,0.0,0.0,0.0,0.0,0.0,0.0,0.0,0.0,0.0,0.0,0.0,0.0,0.0,0.0,0.0,0.0,0.0,0.0,0.0,0.0,0.0,0.0,0.0,0.0,0.0,0.0,0.0,0.0,0.0,0.0,0.0,0.0,0.0,0.0,0.0,0.0,0.0,0.0,0.0,0.0,0.0,0.0,0.0,0.0,0.0,0.0,0.0,0.0,0.0,0.0,0.0,0.0,0.0,0.0,0.0,0.0,0.0,0.0,0.0,0.0,0.0,0.0,0.0,0.0,0.0,0.0,0.0,0.0,0.0,0.0,0.0,0.0,0.0,0.0,0.0,-2.0112,-1.9551,-1.9979,-2.1649,-2.1607,-1.9621,0.0,0.0,0.0,0.0,0.0,0.0,0.0,0.0,0.0,0.0,0.0,0.0,0.0,0.0,0.0,0.0,0.0,0.0,0.0,0.0,0.0,0.0,0.0,0.0,0.0,0.0,0.0,0.0,0.0,0.0,0.0,0.0,0.0,0.0,0.0,0.0,0.0,0.0,0.0,0.0,0.0,0.0,0.0,0.0,0.0,0.0,0.0,0.0,0.0,0.0,0.0,0.0,0.0,0.0,0.0,0.0,0.0,0.0,0.0,0.0,0.0,0.0,0.0,0.0,0.0,0.0,0.0,0.0,0.0,0.0,0.0,0.0,0.0,0.0,0.0,0.0,0.0,0.0,0.0,0.0,0.0,0.0,0.0,0.0,0.0,0.0,0.0,0.0,0.0,0.0,0.0,0.0,0.0,0.0,0.0,0.0,0.0,0.0,0.0,0.0,0.0,0.0,0.0,0.0,0.0,0.0,0.0,0.0,0.0,-1.7891,-1.8703,-2.0154,-2.2223,-2.0334,-1.8446,0.0,0.0,0.0,0.0,0.0,0.0,0.0,0.0,0.0,0.0,0.0,0.0,0.0,0.0,0.0,0.0,0.0,0.0,0.0,0.0,0.0,0.0,0.0,0.0,0.0,0.0,0.0,0.0,0.0,0.0,0.0,0.0,0.0,0.0,0.0,0.0,0.0,0.0,0.0,0.0,0.0,0.0,0.0,0.0,0.0,0.0,0.0,0.0,0.0,0.0,0.0,0.0,0.0,0.0,0.0,0.0,0.0,0.0,0.0,0.0,0.0,0.0,0.0,0.0,0.0,0.0,0.0,0.0,0.0,0.0,0.0,0.0,0.0,0.0,0.0,0.0,0.0,0.0,0.0,0.0,0.0,0.0,0.0,0.0,0.0,0.0,0.0,0.0,0.0,0.0,0.0,0.0,0.0,0.0,0.0,0.0,0.0,0.0,0.0,0.0,0.0,0.0,0.0,0.0,0.0,0.0,0.0,0.0,0.0,-1.7768,0.0,-2.0824,-2.1812,-1.9531,-1.7522,0.0,0.0,0.0,0.0,0.0,0.0,0.0,0.0,0.0,0.0,0.0,0.0,0.0,0.0,0.0,0.0,0.0,0.0,0.0,0.0,0.0,0.0,0.0,0.0,0.0,0.0,0.0,0.0,0.0,0.0,0.0,0.0,0.0,0.0,0.0,0.0,0.0,0.0,0.0,0.0,0.0,0.0,0.0,0.0,0.0,0.0,0.0,0.0,0.0,0.0,0.0,0.0,0.0,0.0,0.0,0.0,0.0,0.0,0.0,0.0,0.0,0.0,0.0,0.0,0.0,0.0,0.0,0.0,0.0,0.0,0.0,0.0,0.0,0.0,0.0,0.0,0.0,0.0,0.0,0.0,0.0,0.0,0.0,0.0,0.0,0.0,0.0,0.0,0.0,0.0,0.0,0.0,0.0,0.0,0.0,0.0,0.0,0.0,0.0,0.0,0.0,0.0,0.0,0.0,0.0,0.0,0.0,0.0,-1.6952,-2.0092,-2.1687,-2.1737,-2.0289,-1.9392,-1.7023,0.0,0.0,0.0,0.0,0.0,0.0,0.0,0.0,0.0,0.0,0.0,0.0,0.0,0.0,0.0,0.0,0.0,0.0,0.0,0.0,0.0,0.0,0.0,0.0,0.0,0.0,0.0,0.0,0.0,0.0,0.0,0.0,0.0,0.0,0.0,0.0,0.0,0.0,0.0,0.0,0.0,0.0,0.0,0.0,0.0,0.0,0.0,0.0,0.0,0.0,0.0,0.0,0.0,0.0,0.0,0.0,0.0,0.0,0.0,0.0,0.0,0.0,0.0,0.0,0.0,0.0,0.0,0.0,0.0,0.0,0.0,0.0,0.0,0.0,0.0,0.0,0.0,0.0,0.0,0.0,0.0,0.0,0.0,0.0,0.0,0.0,0.0,0.0,0.0,0.0,0.0,0.0,0.0,0.0,0.0,0.0,0.0,0.0,0.0,0.0,0.0,0.0,0.0,0.0,0.0,0.0,0.0,0.0,0.0,-1.8448,-1.9496,-2.0628,-2.162,-1.8795,-1.6868,0.0,0.0,0.0,0.0,0.0,0.0,0.0,0.0,0.0,0.0,0.0,0.0,0.0,0.0,0.0,0.0,0.0,0.0,0.0,0.0,0.0,0.0,0.0,0.0,0.0,0.0,0.0,0.0,0.0,0.0,0.0,0.0,0.0,0.0,0.0,0.0,0.0,0.0,0.0,0.0,0.0,0.0,0.0,0.0,0.0,0.0,0.0,0.0,0.0,0.0,0.0,0.0,0.0,0.0,0.0,0.0,0.0,0.0,0.0,0.0,0.0,0.0,0.0,0.0,0.0,0.0,0.0,0.0,0.0,0.0,0.0,0.0,0.0,0.0,0.0,0.0,0.0,0.0,0.0,0.0,0.0,0.0,0.0,0.0,0.0,0.0,0.0,0.0,0.0,0.0,0.0,0.0,0.0,0.0,0.0,0.0,0.0,0.0,0.0,0.0,0.0,0.0,0.0,0.0,0.0,0.0,0.0,0.0,0.0,-1.9045,-2.0412,-2.1434,-2.2004,-1.8912,-1.7078,-1.662,0.0,0.0,0.0,0.0,0.0,0.0,0.0,0.0,0.0,0.0,0.0,0.0,0.0,0.0,0.0,0.0,0.0,0.0,0.0,0.0,0.0,0.0,0.0,0.0,0.0,0.0,0.0,0.0,0.0,0.0,0.0,0.0,0.0,0.0,0.0,0.0,0.0,0.0,0.0,0.0,0.0,0.0,0.0,0.0,0.0,0.0,0.0,0.0,0.0,0.0,0.0,0.0,0.0,0.0,0.0,0.0,0.0,0.0,0.0,0.0,0.0,0.0,0.0,0.0,0.0,0.0,0.0,0.0,0.0,0.0,0.0,0.0,0.0,0.0,0.0,0.0,0.0,0.0,0.0,0.0,0.0,0.0,0.0,0.0,0.0,0.0,0.0,0.0,0.0,0.0,0.0,0.0,0.0,0.0,0.0,0.0,0.0,0.0,0.0,0.0,0.0,0.0,0.0,0.0,0.0,0.0,0.0,0.0,-2.1263,-2.3714,-2.379,-2.1434,-1.962,-1.7595,0.0,0.0,0.0,0.0,0.0,0.0,0.0,0.0,0.0,0.0,0.0,0.0,0.0,0.0,0.0,0.0,0.0,0.0,0.0,0.0,0.0,0.0,0.0,0.0,0.0,0.0,0.0,0.0,0.0,0.0,0.0,0.0,0.0,0.0,0.0,0.0,0.0,0.0,0.0,0.0,0.0,0.0,0.0,0.0,0.0,0.0,0.0,0.0,0.0,0.0,0.0,0.0,0.0,0.0,0.0,0.0,0.0,0.0,0.0,0.0,0.0,0.0,0.0,0.0,0.0,0.0,0.0,0.0,0.0,0.0,0.0,0.0,0.0,0.0,0.0,0.0,0.0,0.0,0.0,0.0,0.0,0.0,0.0,0.0,0.0,0.0,0.0,0.0,0.0,0.0,0.0,0.0,0.0,0.0,0.0,0.0,0.0,0.0,0.0,0.0,0.0,0.0,0.0,0.0,0.0,0.0,0.0,0.0,0.0,-2.2154,-2.4017,-2.4378,-2.3026,-2.024,-1.8142,0.0,0.0,0.0,0.0,0.0,0.0,0.0,0.0,0.0,0.0,0.0,0.0,0.0,0.0,0.0,0.0,0.0,0.0,0.0,0.0,0.0,0.0,0.0,0.0,0.0,0.0,0.0,0.0,0.0,0.0,0.0,0.0,0.0,0.0,0.0,0.0,0.0,0.0,0.0,0.0,0.0,0.0,0.0,0.0,0.0,0.0,0.0,0.0,0.0,0.0,0.0,0.0,0.0,0.0,0.0,0.0,0.0,0.0,0.0,0.0,0.0,0.0,0.0,0.0,0.0,0.0,0.0,0.0,0.0,0.0,0.0,0.0,0.0,0.0,0.0,0.0,0.0,0.0,0.0,0.0,0.0,0.0,0.0,0.0,0.0,0.0,0.0,0.0,0.0,0.0,0.0,0.0,0.0,0.0,0.0,0.0,0.0,0.0,0.0,0.0,0.0,0.0,0.0,0.0,0.0,0.0,0.0,0.0,-2.0973,-2.2956,-2.4321,-2.4567,-2.3733,-2.149,-1.9416,0.0,0.0,0.0,0.0,0.0,0.0,0.0,0.0,0.0,0.0,0.0,0.0,0.0,0.0,0.0,0.0,0.0,0.0,0.0,0.0,0.0,0.0,0.0,0.0,0.0,0.0,0.0,0.0,0.0,0.0,0.0,0.0,0.0,0.0,0.0,0.0,0.0,0.0,0.0,0.0,0.0,0.0,0.0,0.0,0.0,0.0,0.0,0.0,0.0,0.0,0.0,0.0,0.0,0.0,0.0,0.0,0.0,0.0,0.0,0.0,0.0,0.0,0.0,0.0,0.0,0.0,0.0,0.0,0.0,0.0,0.0,0.0,0.0,0.0,0.0,0.0,0.0,0.0,0.0,0.0,0.0,0.0,0.0,0.0,0.0,0.0,0.0,0.0,0.0,0.0,0.0,0.0,0.0,0.0,0.0,0.0,0.0,0.0,0.0,0.0,0.0,0.0,0.0,0.0,0.0,0.0,0.0,0.0,-2.1263,-2.3525,-2.451,-2.4529,-2.3594,-2.2779,-2.0882,0.0,0.0,0.0,0.0,0.0,0.0,0.0,0.0,0.0,0.0,0.0,0.0,0.0,0.0,0.0,0.0,0.0,0.0,0.0,0.0,0.0,0.0,0.0,0.0,0.0,0.0,0.0,0.0,0.0,0.0,0.0,0.0,0.0,0.0,0.0,0.0,0.0,0.0,0.0,0.0,0.0,0.0,0.0,0.0,0.0,0.0,0.0,0.0,0.0,0.0,0.0,0.0,0.0,0.0,0.0,0.0,0.0,0.0,0.0,0.0,0.0,0.0,0.0,0.0,0.0,0.0,0.0,0.0,0.0,0.0,0.0,0.0,0.0,0.0,0.0,0.0,0.0,0.0,0.0,0.0,0.0,0.0,0.0,0.0,0.0,0.0,0.0,0.0,0.0,0.0,0.0,0.0,0.0,0.0,0.0,0.0,0.0,0.0,0.0,0.0,0.0,0.0,0.0,0.0,0.0,0.0,0.0,0.0,-2.1743,-2.276,-2.4226,-2.4283,-2.2785,-2.1926,-2.0516,0.0,0.0,0.0,0.0,0.0,0.0,0.0,0.0,0.0,0.0,0.0,0.0,0.0,0.0,0.0,0.0,0.0,0.0,0.0,0.0,0.0,0.0,0.0,0.0,0.0,0.0,0.0,0.0,0.0,0.0,0.0,0.0,0.0,0.0,0.0,0.0,0.0,0.0,0.0,0.0,0.0,0.0,0.0,0.0,0.0,0.0,0.0,0.0,-1.0332,0.0,0.0,0.0,0.0,0.0,0.0,0.0,0.0,0.0,0.0,0.0,0.0,0.0,0.0,0.0,0.0,0.0,0.0,0.0,0.0,0.0,0.0,0.0,0.0,0.0,0.0,0.0,0.0,0.0,0.0,0.0,0.0,0.0,0.0,0.0,0.0,0.0,0.0,0.0,0.0,0.0,0.0,0.0,0.0,0.0,0.0,0.0,0.0,0.0,0.0,0.0,0.0,0.0,0.0,0.0,0.0,0.0,0.0,0.0,-2.1757,-2.3638,-2.4529,-2.4378,-2.3108,-2.2249,-2.0643,0.0,0.0,0.0,0.0,0.0,0.0,0.0,0.0,0.0,0.0,0.0,0.0,0.0,0.0,0.0,0.0,0.0,0.0,0.0,0.0,0.0,0.0,0.0,0.0,0.0,0.0,0.0,0.0,0.0,0.0,0.0,0.0,0.0,0.0,0.0,0.0,0.0,0.0,0.0,0.0,0.0,0.0,0.0,0.0,0.0,0.0,0.0,0.0,0.0,0.0,0.0,0.0,0.0,0.0,0.0,0.0,0.0,0.0,0.0,0.0,0.0,0.0,0.0,0.0,0.0,0.0,0.0,0.0,0.0,0.0,0.0,0.0,0.0,0.0,0.0,0.0,0.0,0.0,0.0,0.0,0.0,0.0,0.0,0.0,0.0,0.0,0.0,0.0,0.0,0.0,0.0,0.0,0.0,0.0,0.0,0.0,0.0,0.0,0.0,0.0,0.0,0.0,0.0,0.0,0.0,0.0,0.0,-1.9784,-2.1714,-2.4643,-2.4927,-2.4529,-2.3537,-2.2855,-2.0941,-1.7653,0.0,0.0,0.0,0.0,0.0,0.0,0.0,0.0,0.0,0.0,0.0,0.0,0.0,0.0,0.0,0.0,0.0,0.0,0.0,0.0,0.0,0.0,0.0,0.0,0.0,0.0,0.0,0.0,0.0,0.0,0.0,0.0,0.0,0.0,0.0,0.0,0.0,0.0,-1.0661,-1.1378,0.0,0.0,0.0,0.0,0.0,0.0,0.0,0.0,-1.0996,0.0,0.0,0.0,0.0,0.0,0.0,0.0,0.0,0.0,0.0,0.0,0.0,0.0,0.0,0.0,0.0,0.0,0.0,0.0,0.0,0.0,0.0,0.0,0.0,0.0,0.0,0.0,0.0,0.0,0.0,0.0,0.0,0.0,0.0,0.0,0.0,0.0,0.0,0.0,0.0,0.0,0.0,0.0,0.0,0.0,0.0,0.0,0.0,0.0,0.0,0.0,0.0,0.0,0.0,0.0,0.0,-1.9723,-2.0808,-2.2179,-2.3859,-2.4624,-2.4264,-2.2779,-2.2571,-2.0922,-1.7672,0.0,0.0,0.0,0.0,0.0,0.0,0.0,0.0,0.0,0.0,0.0,0.0,0.0,0.0,0.0,0.0,0.0,0.0,0.0,0.0,0.0,0.0,0.0,0.0,0.0,0.0,0.0,0.0,0.0,0.0,0.0,0.0,0.0,0.0,0.0,0.0,0.0,0.0,0.0,-1.3128,-1.3674,0.0,0.0,0.0,0.0,0.0,0.0,0.0,0.0,-1.0677,0.0,0.0,0.0,0.0,0.0,0.0,0.0,0.0,0.0,0.0,0.0,0.0,0.0,0.0,0.0,0.0,0.0,0.0,0.0,0.0,0.0,0.0,0.0,0.0,0.0,0.0,0.0,0.0,0.0,0.0,0.0,0.0,0.0,0.0,0.0,0.0,0.0,0.0,0.0,0.0,0.0,0.0,0.0,0.0,0.0,0.0,0.0,0.0,0.0,0.0,0.0,0.0,0.0,0.0,0.0,-1.9686,-2.1317,-2.2764,-2.4105,-2.4505,-2.3949,-2.2405,-2.1875,-2.0258,0.0,0.0,0.0,0.0,0.0,0.0,0.0,0.0,0.0,0.0,0.0,0.0,0.0,0.0,0.0,0.0,0.0,0.0,0.0,0.0,0.0,0.0,0.0,0.0,0.0,0.0,0.0,0.0,0.0,0.0,0.0,0.0,0.0,0.0,0.0,0.0,0.0,0.0,0.0,0.0,-1.3158,-1.3583,-1.3978,0.0,0.0,0.0,0.0,0.0,0.0,-1.1478,-1.1067,0.0,0.0,0.0,0.0,0.0,0.0,0.0,0.0,0.0,0.0,0.0,0.0,0.0,0.0,0.0,0.0,0.0,0.0,0.0,0.0,0.0,0.0,0.0,0.0,0.0,0.0,0.0,0.0,0.0,0.0,0.0,0.0,0.0,0.0,0.0,0.0,0.0,0.0,0.0,0.0,0.0,0.0,0.0,0.0,0.0,0.0,0.0,0.0,0.0,0.0,0.0,0.0,0.0,0.0,0.0,-1.9351,-2.1202,-2.2832,-2.4214,-2.4197,-2.3526,-2.2188,-2.1261,-1.9664,0.0,0.0,0.0,0.0,0.0,0.0,0.0,0.0,0.0,0.0,0.0,0.0,0.0,0.0,0.0,0.0,0.0,0.0,0.0,0.0,0.0,0.0,0.0,0.0,0.0,0.0,0.0,0.0,0.0,0.0,0.0,0.0,0.0,0.0,0.0,0.0,0.0,0.0,0.0,0.0,0.0,-1.3671,-1.3964,-1.3456,0.0,0.0,0.0,0.0,-1.2984,-1.2352,0.0,0.0,0.0,0.0,0.0,0.0,0.0,0.0,0.0,0.0,0.0,0.0,0.0,0.0,0.0,0.0,0.0,0.0,0.0,0.0,0.0,0.0,0.0,0.0,0.0,0.0,0.0,0.0,0.0,0.0,0.0,0.0,0.0,0.0,0.0,0.0,0.0,0.0,0.0,0.0,0.0,0.0,0.0,0.0,0.0,0.0,0.0,0.0,0.0,0.0,0.0,0.0,0.0,0.0,0.0,0.0,-1.846,-2.0047,-2.1604,-2.3182,-2.3318,-2.2925,-2.205,-2.1217,-1.9664,0.0,0.0,0.0,0.0,0.0,0.0,0.0,0.0,0.0,0.0,0.0,0.0,0.0,0.0,0.0,0.0,0.0,0.0,0.0,0.0,0.0,0.0,0.0,0.0,0.0,0.0,0.0,0.0,0.0,0.0,0.0,0.0,0.0,0.0,0.0,0.0,0.0,0.0,0.0,0.0,0.0,-1.5657,-1.4287,-1.4017,-1.3962,0.0,0.0,-1.2932,-1.3742,-1.3174,0.0,0.0,0.0,0.0,0.0,0.0,0.0,0.0,0.0,0.0,0.0,0.0,0.0,0.0,0.0,0.0,0.0,0.0,0.0,0.0,0.0,0.0,0.0,0.0,0.0,0.0,0.0,0.0,0.0,0.0,0.0,0.0,0.0,0.0,0.0,0.0,0.0,0.0,0.0,0.0,0.0,0.0,0.0,0.0,0.0,0.0,0.0,0.0,0.0,0.0,0.0,0.0,0.0,0.0,0.0,-1.5276,-1.81,-1.9587,-2.0959,-2.2196,-2.2199,-2.1849,-2.1168,-2.0286,-1.8945,0.0,0.0,0.0,0.0,0.0,0.0,0.0,0.0,0.0,0.0,0.0,0.0,0.0,0.0,0.0,0.0,0.0,0.0,0.0,0.0,0.0,0.0,0.0,0.0,0.0,0.0,0.0,0.0,0.0,0.0,0.0,0.0,0.0,0.0,0.0,0.0,0.0,0.0,0.0,0.0,0.0,0.0,-1.4759,-1.4401,0.0,0.0,0.0,-1.4348,-1.4729,0.0,0.0,0.0,0.0,0.0,0.0,0.0,0.0,0.0,0.0,0.0,0.0,0.0,0.0,0.0,0.0,0.0,0.0,0.0,0.0,0.0,0.0,0.0,0.0,0.0,0.0,0.0,0.0,0.0,0.0,0.0,0.0,0.0,0.0,0.0,0.0,0.0,0.0,0.0,0.0,0.0,0.0,0.0,0.0,0.0,0.0,0.0,0.0,0.0,0.0,0.0,0.0,0.0,0.0,0.0,0.0,0.0,-1.7613,-1.9273,-2.0461,-2.1198,-2.1115,-2.0852,-2.0395,-1.9338,0.0,0.0,0.0,0.0,0.0,0.0,0.0,0.0,0.0,0.0,0.0,0.0,0.0,0.0,0.0,0.0,0.0,0.0,0.0,0.0,0.0,0.0,0.0,0.0,0.0,0.0,0.0,-0.5403,0.0,0.0,0.0,0.0,0.0,0.0,0.0,0.0,0.0,0.0,0.0,0.0,0.0,0.0,-1.412,-1.5167,-1.5143,-1.5245,0.0,0.0,-1.5639,-1.5699,-1.5458,-1.4731,0.0,0.0,0.0,0.0,0.0,0.0,0.0,0.0,0.0,0.0,0.0,0.0,0.0,0.0,0.0,0.0,0.0,0.0,0.0,0.0,0.0,0.0,0.0,0.0,0.0,0.0,0.0,0.0,0.0,0.0,0.0,0.0,0.0,0.0,0.0,0.0,0.0,0.0,0.0,0.0,0.0,0.0,0.0,0.0,0.0,0.0,0.0,0.0,0.0,0.0,0.0,0.0,0.0,0.0,-1.5035,-1.6711,-1.8949,-2.0115,-2.0216,-2.019,-2.0164,-2.0101,-1.8678,-1.7545,0.0,0.0,0.0,0.0,0.0,0.0,0.0,0.0,0.0,0.0,0.0,0.0,0.0,0.0,0.0,0.0,0.0,0.0,0.0,0.0,0.0,0.0,0.0,0.0,0.0,0.0,0.0,0.0,0.0,0.0,0.0,0.0,0.0,0.0,0.0,0.0,0.0,0.0,0.0,0.0,0.0,-1.609,-1.5406,-1.6633,-1.7633,0.0,-1.6986,-1.6516,-1.6518,-1.5833,-1.4729,-1.3071,0.0,0.0,0.0,0.0,0.0,0.0,0.0,0.0,0.0,0.0,0.0,0.0,0.0,0.0,0.0,0.0,0.0,0.0,0.0,0.0,0.0,0.0,0.0,0.0,0.0,0.0,0.0,0.0,0.0,0.0,0.0,0.0,0.0,0.0,0.0,0.0,0.0,0.0,0.0,0.0,0.0,0.0,0.0,0.0,0.0,0.0,0.0,0.0,0.0,0.0,0.0,0.0,0.0,-1.4927,-1.6525,-1.836,-1.9334,-1.9371,-1.9372,-1.9363,-1.9354,-1.8355,-1.7451,0.0,0.0,0.0,0.0,0.0,0.0,0.0,0.0,0.0,0.0,0.0,0.0,0.0,0.0,0.0,0.0,0.0,0.0,0.0,0.0,0.0,0.0,0.0,0.0,0.0,0.0,0.0,0.0,-0.7035,-0.7012,-0.6866,0.0,0.0,0.0,0.0,0.0,0.0,0.0,0.0,0.0,0.0,-1.5866,-1.607,-1.7139,0.0,0.0,-1.799,-1.7791,-1.6743,-1.6733,-1.6082,-1.3896,-1.3552,0.0,0.0,0.0,0.0,0.0,0.0,0.0,0.0,0.0,0.0,0.0,0.0,0.0,0.0,0.0,0.0,0.0,0.0,0.0,0.0,0.0,0.0,0.0,0.0,0.0,0.0,0.0,0.0,0.0,0.0,0.0,0.0,0.0,0.0,0.0,0.0,0.0,0.0,0.0,0.0,0.0,0.0,0.0,0.0,0.0,0.0,0.0,0.0,0.0,0.0,0.0,0.0,-1.4631,-1.6473,-1.778,-1.8574,-1.8852,-1.8852,-1.8753,-1.8519,-1.7774,-1.701,0.0,0.0,0.0,0.0,0.0,0.0,0.0,0.0,0.0,0.0,0.0,0.0,0.0,0.0,0.0,0.0,0.0,0.0,0.0,0.0,0.0,0.0,0.0,0.0,0.0,0.0,0.0,0.0,-0.7597,-0.7112,-0.6102,0.0,0.0,0.0,0.0,0.0,0.0,0.0,0.0,0.0,0.0,-1.5995,-1.7106,-1.8039,-1.8601,-1.8569,-1.8858,-1.8608,-1.7183,-1.7448,-1.6945,-1.442,0.0,0.0,0.0,0.0,0.0,0.0,0.0,0.0,0.0,0.0,0.0,0.0,0.0,0.0,0.0,0.0,0.0,0.0,0.0,0.0,0.0,0.0,0.0,0.0,0.0,0.0,0.0,-1.3353,0.0,0.0,-1.331,0.0,0.0,0.0,0.0,0.0,0.0,0.0,0.0,0.0,0.0,0.0,0.0,0.0,0.0,0.0,0.0,0.0,0.0,0.0,0.0,0.0,0.0,-1.4118,-1.637,-1.7236,-1.803,-1.8761,-1.8797,-1.8449,-1.7681,-1.6869,-1.6082,-1.5317,0.0,0.0,0.0,0.0,0.0,0.0,0.0,0.0,0.0,0.0,0.0,0.0,0.0,0.0,0.0,0.0,0.0,0.0,0.0,0.0,0.0,0.0,0.0,0.0,0.0,0.0,-0.8545,-0.7927,-0.6887,0.0,0.0,0.0,0.0,0.0,0.0,0.0,0.0,0.0,0.0,-1.5701,-1.6884,-1.8508,-1.9588,-2.0176,-2.0192,-1.96,-1.88,-1.7907,-1.7791,-1.6956,0.0,0.0,0.0,0.0,0.0,0.0,0.0,0.0,0.0,0.0,0.0,0.0,0.0,0.0,0.0,0.0,0.0,0.0,0.0,0.0,0.0,0.0,0.0,0.0,0.0,0.0,0.0,-1.5479,-1.45,0.0,0.0,0.0,0.0,0.0,0.0,0.0,0.0,0.0,0.0,0.0,-1.6248,-1.711,0.0,0.0,0.0,0.0,0.0,0.0,0.0,0.0,0.0,0.0,0.0,0.0,-1.5123,-1.638,-1.7718,-1.8521,-1.8797,-1.8797,-1.8672,-1.8396,-1.7093,-1.5566,-1.3757,0.0,0.0,0.0,0.0,0.0,0.0,0.0,0.0,0.0,0.0,0.0,0.0,0.0,0.0,0.0,0.0,0.0,0.0,0.0,0.0,0.0,0.0,0.0,0.0,0.0,-0.9174,0.0,0.0,0.0,0.0,0.0,0.0,0.0,0.0,0.0,0.0,0.0,-1.4027,-1.4859,-1.6732,-1.8244,-1.8854,-1.9764,-2.0376,0.0,0.0,0.0,0.0,0.0,0.0,0.0,0.0,0.0,0.0,0.0,0.0,0.0,0.0,-1.4208,-1.081,-0.9993,-0.9967,-1.0545,0.0,0.0,0.0,0.0,0.0,0.0,0.0,0.0,0.0,0.0,0.0,0.0,0.0,0.0,-1.6965,0.0,-1.6021,0.0,0.0,0.0,0.0,0.0,0.0,0.0,0.0,-1.7167,-1.7693,-1.7444,-1.8325,-1.831,0.0,-1.7347,-1.6306,0.0,0.0,0.0,0.0,0.0,0.0,0.0,0.0,-1.5523,-1.678,-1.7843,-1.8521,-1.8779,-1.8797,-1.8654,-1.8351,-1.6852,-1.5166,-1.338,-1.2847,-1.2341,0.0,0.0,0.0,0.0,0.0,0.0,0.0,0.0,0.0,0.0,0.0,0.0,0.0,0.0,0.0,0.0,0.0,0.0,0.0,0.0,0.0,0.0,0.0,-0.9467,0.0,0.0,0.0,0.0,0.0,0.0,0.0,0.0,0.0,-1.162,-1.3528,-1.5181,-1.6083,-1.7662,-1.8887,-1.926,0.0,0.0,0.0,0.0,0.0,0.0,0.0,-1.8432,-1.7819,-1.7536,-1.7219,-1.6665,-1.6806,-1.6905,-1.6635,0.0,0.0,-1.3468,-1.2617,-1.2622,-1.3193,-1.332,-1.3472,-1.4047,-1.4408,-1.4615,0.0,0.0,0.0,0.0,0.0,0.0,0.0,0.0,-1.8424,-1.8527,0.0,-1.7874,0.0,0.0,0.0,0.0,0.0,-1.6796,0.0,0.0,-1.8701,-1.9068,-1.9201,-1.9303,-1.9297,-1.9327,-2.0111,-1.9753,-1.821,-1.4374,0.0,0.0,0.0,0.0,0.0,0.0,-1.5312,-1.7477,-1.7646,-1.8003,-1.877,-1.8797,-1.8431,-1.7619,-1.6173,-1.5031,-1.4196,-1.4107,-1.3393,-1.1848,-1.174,0.0,0.0,0.0,0.0,0.0,0.0,0.0,0.0,0.0,0.0,0.0,0.0,0.0,0.0,0.0,0.0,0.0,0.0,0.0,0.0,-0.9264,0.0,0.0,0.0,0.0,0.0,0.0,0.0,0.0,0.0,0.0,-1.4752,-1.4944,-1.5782,-1.8068,0.0,0.0,0.0,0.0,-2.0214,-2.0235,-2.0308,-2.0047,-1.9213,-1.9696,-1.9626,-1.8059,0.0,0.0,-1.691,-1.7263,-1.7587,-1.6881,-1.7459,-1.7899,-1.7888,-1.7021,-1.6514,-1.6617,-1.6557,-1.6699,-1.6752,-1.712,-1.7724,-2.2189,0.0,0.0,0.0,0.0,-2.053,-2.0749,-2.0774,-2.1144,-2.0693,-1.9653,-1.9638,0.0,0.0,0.0,0.0,0.0,0.0,-1.9153,-1.9454,-2.0623,-2.1215,-2.1327,-2.1423,-2.1212,-2.071,-2.0493,-1.9904,-1.8925,-1.724,-1.5574,-1.4015,0.0,0.0,0.0,0.0,-1.6487,-1.7227,-1.79,-1.84,-1.8733,-1.8761,-1.8414,-1.7619,-1.7181,-1.6316,-1.5006,-1.4952,-1.4449,-1.3398,-1.2806,0.0,0.0,0.0,0.0,0.0,0.0,0.0,0.0,0.0,0.0,0.0,0.0,0.0,0.0,0.0,0.0,0.0,0.0,0.0,-1.0056,-0.9852,-0.9787,0.0,0.0,0.0,0.0,0.0,0.0,0.0,0.0,0.0,-1.7045,-1.7305,-1.7601,0.0,0.0,-1.9581,-1.9979,-2.0083,-1.9928,-1.9373,-1.9319,0.0,-1.8923,-1.8636,-1.867,-1.9311,-1.9654,-1.9695,-1.9276,-1.9398,-1.9502,-1.9233,-1.9455,-1.967,-1.9601,-1.8503,-1.761,-1.755,-1.7566,-1.755,-1.7597,-1.7811,-1.8021,-2.536,-2.3538,-2.2473,-2.2195,-2.249,-2.2566,-2.2643,-2.2705,-2.2686,-2.2278,-2.1559,-2.1561,-2.0798,-1.9499,-1.9059,0.0,0.0,0.0,-2.065,-2.0999,-2.1886,-2.2353,-2.2475,-2.2612,-2.2472,-2.2086,-2.1533,-2.0963,-2.0449,-1.953,-1.8235,-1.6595,0.0,0.0,-1.5714,-1.7089,-1.8007,-1.8399,-1.8755,-1.8981,-1.9045,-1.8846,-1.8484,-1.8057,-1.7434,-1.666,-1.5744,-1.5074,-1.4465,-1.3908,-1.3172,-1.2143,0.0,0.0,0.0,0.0,0.0,0.0,0.0,0.0,0.0,0.0,0.0,-0.6921,-0.5676,0.0,0.0,0.0,-0.8747,-1.0227,-1.1576,-1.1538,0.0,0.0,0.0,0.0,0.0,0.0,0.0,-1.4521,-1.5536,-1.665,-1.8092,-1.8599,-1.8863,-1.8988,-1.9432,-1.9817,-1.9967,0.0,-1.984,-1.9398,-1.9358,-1.9373,-1.9319,-1.8935,-1.9003,-1.9897,-2.0074,-2.0155,-2.0216,-2.0233,-2.0222,-2.025,-2.0318,-2.0369,-2.035,-1.9532,-1.8896,-1.8904,-1.8901,-1.8893,-1.8913,-1.8964,-1.8983,-2.7926,-2.7201,-2.5376,-2.4558,-2.4471,-2.4471,-2.4117,-2.3548,-2.3486,-2.3456,-2.3456,-2.3394,-2.2994,-2.2305,-2.1215,0.0,-2.1641,-2.1659,-2.1981,-2.2561,-2.2636,-2.2833,-2.3067,-2.3151,-2.3248,-2.3356,-2.2965,-2.2622,-2.2329,-2.1279,-2.0365,-1.9616,-1.8363,-1.8066,-1.8747,-1.9052,-1.9585,-2.0314,-1.9851,-1.9587,-1.9566,-1.8933,-1.8604,-1.8652,-1.7188,-1.6348,-1.6251,-1.4795,-1.3896,-1.3692,-1.3036,-1.2261,-1.135,0.0,0.0,0.0,0.0,0.0,0.0,0.0,0.0,0.0,0.0,0.0,0.0,0.0,0.0,0.0,-1.0974,0.0,-1.284,-1.3572,0.0,0.0,0.0,-1.3115,-1.2424,-1.3845,-1.4884,-1.4969,0.0,0.0,-1.8388,-1.91,-1.9597,-1.9601,-1.966,-1.9719,-1.9816,-1.9832,-1.9888,-1.9797,-1.9902,-1.9945,-1.9793,-1.9879,-1.9959,-2.0012,-1.9993,-2.0036,-2.0098,-2.0117,-2.0122,-2.0176,-2.0238,-2.0296,-2.0296,-2.0262,-2.0382,-2.0306,-2.0316,-2.0381,-2.0353,-2.0341,-2.0351,-2.8859,-2.8654,-2.7684,-2.6734,-2.5887,-2.5887,-2.5817,-2.5617,-2.5072,-2.4841,-2.4789,-2.4266,-2.3686,-2.3055,-2.274,-2.2713,-2.2883,-2.2867,-2.3292,-2.394,-2.3557,-2.3763,-2.4464,-2.4111,-2.4001,-2.4096,-2.3594,-2.2995,-2.2426,-2.2118,-2.1598,-2.0884,-2.0542,-1.9745,-1.8563,-1.9012,-1.9442,-1.9779,-1.9723,-1.958,-1.9369,-1.881,-1.8534,-1.8536,-1.7575,-1.6809,-1.6237,-1.518,-1.4305,-1.3708,-1.286,-1.2077,-1.1419,-1.1013,0.0,0.0,0.0,0.0,0.0,0.0,0.0,0.0,0.0,-0.9924,-0.7948,0.0,-1.1682,0.0,-1.1904,-1.2616,-1.2938,-1.2609,0.0,0.0,-1.4005,-1.4205,-1.4578,-1.5575,-1.6527,-1.7295,-1.7879,-1.8486,-1.9198,-1.9472,-1.959,-1.9597,-1.9611,-1.9698,-1.9834,-1.9788,-1.9513,-1.9015,-1.8943,-1.8898,-1.9055,-1.9531,-1.9977,-2.0068,-2.0022,-2.0026,-2.0098,-2.0112,-2.0112,-2.0117,-2.019,-2.0233,-2.0214,-2.0285,-2.0325,-2.0337,-2.0372,-2.0411,-2.0428,-2.0459,-2.0504,-2.9548,-2.9012,-2.8697,-2.8009,-2.7187,-2.6896,-2.678,-2.678,-2.6103,-2.5588,-2.525,-2.461,-2.4102,-2.3748,-2.3748,-2.3748,-2.3763,-2.3748,-2.3968,-2.4374,-2.375,-2.3935,-2.4755,-2.427,-2.4267,-2.4689,-2.4162,-2.3541,-2.2896,-2.2556,-2.2021,-2.1309,-2.1309,-2.0772,-1.9752,-2.0137,-2.0461,-2.0669,-2.0377,-1.9862,-1.9109,-1.8794,-1.8533,-1.831,-1.7446,-1.6682,-1.6045,-1.5141,-1.4306,-1.3528,-1.2759,-1.2326,-1.2149,-1.1559,-1.0818,0.0,0.0,0.0,0.0,0.0,0.0,0.0,0.0,0.0,0.0,0.0,-1.2469,-1.2047,-1.3036,-1.393,-1.4421,-1.4684,-1.5062,-1.5611,-1.5785,-1.589,-1.5926,-1.6747,-1.749,-1.8046,-1.8427,-1.8841,-1.935,-1.9457,-1.9512,-1.9512,-1.9555,-1.9645,-1.9726,-1.9706,-1.9504,-1.9076,-1.9008,-1.9058,-1.9124,-1.9529,-1.9756,-1.9497,-1.9435,-1.943,-1.9468,-1.9477,-1.9592,-1.9963,-2.0112,-2.0149,-2.0153,-2.0201,-2.0269,-2.0307,-2.0324,-2.0377,-2.0382,-2.0414,-2.0458,-3.0021,-2.8947,-2.896,-2.8662,-2.8155,-2.7535,-2.7362,-2.7473,-2.6811,-2.6057,-2.5266,-2.4681,-2.4394,-2.4297,-2.4281,-2.4281,-2.4302,-2.4225,-2.4225,-2.4256,-2.3609,-2.3685,-2.4363,-2.3967,-2.4197,-2.4893,-2.4527,-2.4098,-2.3575,-2.2863,-2.2151,-2.1455,-2.1342,-2.1309,-2.1356,-2.1557,-2.1738,-2.1895,-2.1237,-2.0287,-1.911,-1.8906,-1.8636,-1.8192,-1.7158,-1.6326,-1.5771,-1.4992,-1.4188,-1.3394,-1.2834,-1.2717,-1.3047,-1.1902,-1.1105,0.0,-1.1189,0.0,0.0,0.0,0.0,0.0,0.0,0.0,0.0,-1.2759,-1.2951,-1.3021,-1.4403,-1.5546,-1.621,-1.7497,-1.8019,-1.7409,-1.7574,-1.7477,-1.6828,-1.7524,-1.8094,-1.8099,-1.8741,-1.9186,-1.9219,-1.9314,-1.9416,-1.9431,-1.9508,-1.959,-1.959,-1.9597,-1.9585,-1.9601,-1.9653,-1.9594,-1.9682,-1.9763,-1.9574,-1.8962,-1.8933,-1.8847,-1.8939,-1.8803,-1.8935,-1.9595,-1.9696,-1.9693,-1.9769,-1.9772,-1.9856,-1.9823,-1.9923,-2.0129,-2.0341,-2.041,-2.0385,-3.028,-2.9542,-2.9063,-2.8536,-2.8029,-2.7779,-2.7881,-2.8165,-2.7488,-2.6503,-2.5312,-2.5179,-2.4804,-2.4297,-2.4281,-2.4281,-2.4271,-2.3733,-2.3779,-2.4251,-2.3609,-2.3423,-2.3661,-2.3639,-2.3775,-2.4052,-2.4134,-2.414,-2.4051,-2.3435,-2.2812,-2.2167,-2.1601,-2.1419,-2.1602,0.0,0.0,0.0,-2.1097,-2.0763,-2.0488,-1.949,-1.8915,-1.8791,-1.7333,0.0,-1.5513,-1.5151,-1.4728,-1.4107,-1.324,0.0,0.0,0.0,0.0,0.0,0.0,0.0,0.0,0.0,0.0,0.0,-1.5322,-1.4397,-1.2739,-1.4193,-1.5288,-1.5375,-1.6174,-1.6522,-1.6107,-1.636,-1.651,-1.6422,-1.7003,-1.7365,-1.7294,-1.8003,-1.8565,-1.8714,-1.8919,-1.9087,-1.9233,-1.9303,-1.9408,-1.9438,-1.9519,-1.9602,-1.9602,-1.9576,-1.959,-1.9604,-1.9613,-1.9641,-1.9706,-1.9701,-1.9695,-1.9575,-1.9581,-1.9543,-1.9478,-1.8998,-1.8666,-1.8995,-1.8415,-1.8066,-1.8066,-1.804,-1.8196,-1.8136,-1.8693,-1.9408,-2.0212,-2.038,-2.0383,-3.0726,0.0,-2.9778,-2.9151,0.0,-2.8313,-2.8243,-2.8186,-2.785,-2.714,-2.6228,-2.592,-2.5419,-2.481,-2.4789,-2.4625,-2.4287,-2.3948,-2.3979,-2.4256,-2.3625,-2.3526,-2.386,-2.3328,-2.3285,-2.3693,-2.3866,-2.3824,-2.3549,-2.3273,-2.2835,-2.2261,-2.1569,-2.1341,-2.1511,-2.1356,-2.1309,-2.1309,-2.1165,-2.0938,-2.0593,-1.9978,-1.9338,-1.8705,-1.7794,0.0,0.0,0.0,0.0,0.0,0.0,0.0,0.0,0.0,0.0,-1.347,-1.3946,-1.4184,-1.4126,-1.4622,-1.5247,-1.595,-1.588,-1.5337,-1.4244,-1.5253,-1.5908,-1.5971,-1.6618,-1.6914,-1.6598,-1.6933,-1.7197,-1.7243,-1.7622,-1.8038,-1.8434,-1.8851,-1.9288,-1.9759,-1.987,-1.9927,-1.9987,-1.9795,-1.9719,-1.9682,-1.952,-1.9434,-1.9413,-1.9519,-1.9583,-1.9583,-1.9604,-1.9625,-1.9652,-1.9667,-1.9494,-1.9232,-1.9145,-1.9151,-1.9156,-1.883,-1.8689,-1.9054,-1.8585,-1.8053,-1.8059,-1.7824,-1.7546,-1.7628,-1.7951,-1.8386,-1.8994,-1.94,-1.9735,-3.1107,-3.0507,-3.0492,-2.9901,-2.8925,-2.8951,-2.8615,-2.8112,0.0,0.0,0.0,-2.6696,-2.6127,-2.5518,-2.5481,-2.5096,-2.4502,-2.4487,-2.4425,-2.4266,-2.3733,-2.3717,-2.4071,-2.3107,-2.2971,-2.3526,-2.369,-2.3566,-2.3206,-2.3138,-2.2879,-2.2378,-2.1679,-2.1295,-2.1262,-2.1278,-2.1294,-2.1309,-2.1356,-2.1111,-2.0559,-2.0413,-1.9801,-1.8621,-1.8274,-1.7528,-1.629,-1.6316,-1.6015,-1.531,-1.5357,-1.5648,-1.6108,-1.5474,-1.5277,-1.5766,-1.5964,-1.5763,-1.5145,-1.5851,-1.6144,-1.5742,-1.5992,-1.6132,-1.6094,-1.6088,-1.6199,-1.6494,-1.707,-1.7469,-1.7658,-1.8274,-1.8687,-1.8746,-1.8797,-1.9108,-1.965,-1.9766,-2.0022,-2.0635,-2.0738,-2.0809,-2.0743,-2.0443,-2.0201,-2.0141,-1.9948,-1.9595,-1.9591,-1.9618,-1.9548,-1.9548,-1.9569,-1.959,-1.959,-1.9564,-1.9302,-1.8839,-1.8727,-1.8659,-1.8677,-1.8577,-1.8788,-1.9305,-1.8902,-1.8351,-1.8175,-1.7609,-1.7231,-1.7145,-1.7257,-1.7339,-1.7309,-1.7921,-1.8544,-3.1092,-3.0492,-3.0492,-3.0116,-2.9514,-2.9499,-2.9109,-2.8505,-2.8287,-2.7804,-2.7201,-2.7241,-2.6872,-2.6226,-2.6173,-2.5788,-2.5173,-2.5158,-2.4872,-2.4317,-2.4194,-2.3902,-2.344,-2.3275,-2.3233,-2.3346,-2.3495,-2.3838,-2.4244,-2.3826,-2.3626,-2.3483,-2.2362,-2.1529,-2.1151,-2.1183,-2.1246,-2.1293,-2.151,-2.16,-2.1484,-2.0893,-2.0167,-1.9372,-1.8548,-1.7452,-1.6114,-1.6662,-1.6633,-1.5919,-1.5894,-1.5947,-1.6001,-1.5373,-1.4962,-1.5048,-1.5086,-1.5297,-1.5808,-1.6146,-1.6845,-1.8059,-1.8241,-1.7884,-1.6944,-1.6853,-1.7397,-1.8648,-1.8879,-1.9252,-1.9838,-1.997,-2.0027,-2.0079,-2.0096,-2.02,-2.0362,-2.0436,-2.0552,-2.0784,-2.0764,-2.0839,-2.092,-2.0902,-2.0924,-2.0934,-2.0819,-2.1016,-2.0816,-2.0156,-1.9505,-1.9453,-1.9526,-1.9576,-1.9573,-1.9479,-1.9394,-1.9441,-1.9286,-1.923,-1.9322,-1.8889,-1.8634,-1.8689,-1.8194,-1.7452,-1.6845,-1.6394,-1.6182,-1.5807,-1.606,-1.6288,-1.5819,-1.6262,-1.6995,-3.1316,-3.1076,-3.1032,-3.0672,-3.0058,-2.9729,-2.9232,-2.8618,-2.8545,-2.8156,-2.7564,-2.7727,-2.7455,-2.6857,-2.688,-2.6549,-2.5872,-2.5481,-2.5142,-2.482,-2.4471,-2.4148,-2.3825,-2.3491,-2.3286,-2.3302,-2.3377,-2.3571,-2.3843,-2.3647,-2.3604,-2.3688,-2.2773,-2.206,-2.1513,-2.1514,-2.1372,-2.1039,-2.1324,-2.148,-2.148,-2.1153,-2.0632,-1.9945,-1.9504,-1.8799,-1.7763,-1.7679,-1.75,-1.7164,-1.6791,-1.6593,-1.6593,-1.6273,-1.6257,-1.6613,-1.6645,-1.6953,-1.7695,-1.7834,-1.8241,-1.9051,-1.9147,-1.8981,-1.8515,-1.8459,-1.8805,-1.9628,-1.9725,-1.9909,-2.0348,-2.0377,-2.0377,-2.0377,-2.0377,-2.0591,-2.1006,-2.1117,-2.1314,-2.169,-2.1814,-2.1838,-2.1838,-2.1598,-2.1433,-2.1425,-2.1302,-2.1144,-2.1205,-2.0741,-2.0208,-1.9998,-1.9656,-1.9393,-1.9383,-1.9398,-1.9413,-1.949,-1.9435,-1.9427,-1.9482,-1.9108,-1.8999,-1.8928,-1.8385,-1.7829,-1.7377,-1.7029,-1.6453,-1.5758,-1.5781,-1.5822,-1.5298,-1.5373,-1.6127,-3.1496,-3.1496,-3.1496,-3.1197,-3.0672,-3.0058,-2.949,-2.9052,-2.8993,-2.8609,-2.8047,-2.8115,-2.7862,-2.7413,-2.7508,-2.7187,-2.6573,-2.5997,-2.5582,-2.525,-2.4779,-2.4471,-2.4271,-2.3748,-2.3533,-2.3517,-2.3533,-2.3517,-2.3517,-2.3582,-2.3584,-2.3491,-2.313,-2.2608,-2.1969,-2.1846,-2.1534,-2.1047,-2.1119,-2.1183,-2.1183,-2.1183,-2.086,-2.0263,-2.0229,-1.9874,-1.9133,-1.8596,-1.8302,-1.8259,-1.7817,-1.7526,-1.75,-1.7513,-1.7713,-1.8186,-1.8237,-1.8478,-1.9022,-1.9101,-1.9252,-1.957,-1.9628,-1.9747,-2.0014,-2.0058,-2.0114,-2.0259,-2.0293,-2.0408,-2.0755,-2.0847,-2.0855,-2.085,-2.0899,-2.1204,-2.1733,-2.1867,-2.2044,-2.2608,-2.2712,-2.2677,-2.2604,-2.2267,-2.2002,-2.1929,-2.1587,-2.1364,-2.1396,-2.1369,-2.1113,-2.0705,-2.0036,-1.9456,-1.9265,-1.9251,-1.9314,-1.9344,-1.9321,-1.9314,-1.9318,-1.936,-1.9349,-1.9247,-1.8971,-1.8533,-1.841,-1.7973,-1.7234,-1.6501,-1.64,-1.6167,-1.5446,-1.5398,-1.5902,-3.1511,-3.1496,-3.1496,-3.1466,-3.1301,-3.0673,-3.0372,-3.0223,-2.9756,-2.9142,-2.8539,-2.8193,-2.8005,-2.7929,-2.7923,-2.7616,-2.7124,-2.7048,-2.639,-2.5419,-2.5235,-2.4881,-2.4379,-2.4241,-2.421,-2.4194,-2.4158,-2.4128,-2.4128,-2.4179,-2.3902,-2.3403,-2.3328,-2.3068,-2.254,-2.2003,-2.1717,-2.1692,-2.1127,-2.0844,-2.0844,-2.0844,-2.0559,-1.9954,-1.9999,-1.9664,-1.8968,-1.8954,-1.8963,-1.8861,-1.8869,-1.8836,-1.8719,-1.8705,-1.8711,-1.8644,-1.8661,-1.8693,-1.8756,-1.8814,-1.922,-1.9868,-2.0008,-2.0325,-2.1,-2.1097,-2.1065,-2.0902,-2.0813,-2.1102,-2.1768,-2.2017,-2.2075,-2.2051,-2.2215,-2.2543,-2.2526,-2.2595,-2.2643,-2.2677,-2.2712,-2.2712,-2.2694,-2.2609,-2.2699,-2.2701,-2.2623,-2.2579,-2.2586,-2.2183,-2.179,-2.1567,-2.0922,-2.0053,-1.9507,-1.9112,-1.9219,-1.9249,-1.9129,-1.9129,-1.9202,-1.9227,-1.9216,-1.9222,-1.9271,-1.8992,-1.8569,-1.8204,-1.8031,-1.7272,-1.6995,-1.6878,-1.6238,-1.6089,-1.6636,-3.1839,-3.1496,-3.1496,-3.1496,-3.1451,-3.1197,-3.0853,-3.0477,-3.0238,-2.9774,-2.9217,-2.9023,-2.8559,-2.788,-2.797,-2.7877,-2.7637,-2.7337,-2.6949,-2.639,-2.6089,-2.558,-2.4948,-2.4881,-2.4718,-2.4333,-2.4281,-2.4281,-2.4281,-2.4281,-2.4164,-2.3917,-2.3927,-2.3608,-2.3034,-2.2762,-2.2288,-2.1519,-2.1239,-2.0914,-2.0574,-2.0695,-2.0684,-2.0463,-2.0464,-2.0353,-1.9988,-1.9654,-1.9431,-1.9338,-1.9066,-1.8843,-1.8799,-1.8783,-1.8929,-1.9278,-1.9704,-1.9941,-1.9941,-1.9973,-2.0131,-2.0464,-2.048,-2.0671,-2.0958,-2.1006,-2.1103,-2.1391,-2.1405,-2.1556,-2.1967,-2.2231,-2.2391,-2.2419,-2.2596,-2.2716,-2.2712,-2.2699,-2.2712,-2.2712,-2.2712,-2.2699,-2.2712,-2.2725,-2.2764,-2.2799,-2.2855,-2.2876,-2.2884,-2.2661,-2.2344,-2.1914,-2.1496,-2.1031,-2.0317,-1.9829,-1.9677,-1.9605,-1.9298,-1.9053,-1.907,-1.9087,-1.9095,-1.9095,-1.9211,-1.9191,-1.8921,-1.8853,-1.8735,-1.7989,-1.7263,-1.7013,-1.6766,-1.6822,-1.7264,-3.2363,-3.1795,-3.16,-3.1496,-3.1496,-3.1496,-3.1212,-3.0821,-3.0748,-3.0432,-2.9891,-2.9861,-2.9285,-2.8372,-2.8233,-2.8102,-2.791,-2.7537,-2.7274,-2.7138,-2.6734,-2.6182,-2.5575,-2.5314,-2.5013,-2.4604,-2.4394,-2.4281,-2.4281,-2.4281,-2.4281,-2.4281,-2.4281,-2.4035,-2.3594,-2.3425,-2.2825,-2.1901,-2.1535,-2.1057,-2.0663,-2.0637,-2.0662,-2.0678,-2.0712,-2.0712,-2.0663,-2.0224,-1.9956,-1.9908,-1.9468,-1.9232,-1.9186,-1.9201,-1.939,-1.9829,-2.0347,-2.0677,-2.0662,-2.0835,-2.0962,-2.1011,-2.1169,-2.1345,-2.133,-2.1346,-2.1567,-2.1981,-2.2035,-2.2067,-2.2206,-2.2468,-2.262,-2.2696,-2.288,-2.3022,-2.3119,-2.3014,-2.2874,-2.2812,-2.2706,-2.2619,-2.2619,-2.2659,-2.2712,-2.2712,-2.2712,-2.2712,-2.2764,-2.2782,-2.2625,-2.2136,-2.2098,-2.1744,-2.1046,-2.0505,-2.0238,-1.9867,-1.9449,-1.9165,-1.8977,-1.8905,-1.8941,-1.894,-1.906,-1.9109,-1.9006,-1.9104,-1.9201,-1.8488,-1.7832,-1.741,-1.7454,-1.7412,-1.7659,-3.3066,-3.2422,-3.1765,-3.1511,-3.1511,-3.1496,-3.1467,-3.1318,-3.1421,-3.1062,-3.0507,-3.0434,-3.0103,-2.943,-2.8861,-2.8295,-2.7851,-2.777,-2.7482,-2.7085,-2.7003,-2.6694,-2.613,-2.545,-2.5188,-2.5182,-2.465,-2.4327,-2.4297,-2.4281,-2.4281,-2.4281,-2.4281,-2.4266,-2.4133,-2.364,-2.3271,-2.2917,-2.1947,-2.1304,-2.1183,-2.0645,-2.0419,-2.0502,-2.0492,-2.0492,-2.0441,-2.0578,-2.0581,-2.0448,-2.047,-2.0503,-2.0387,-2.0355,-2.0303,-2.0278,-2.0323,-2.0369,-2.0464,-2.1011,-2.1406,-2.1537,-2.2079,-2.2559,-2.2472,-2.2472,-2.2535,-2.2744,-2.2702,-2.2726,-2.281,-2.2951,-2.3156,-2.334,-2.3589,-2.3767,-2.4043,-2.3555,-2.3315,-2.3089,-2.2767,-2.2575,-2.2473,-2.2565,-2.2632,-2.2659,-2.2685,-2.2685,-2.2672,-2.2699,-2.2643,-2.2621,-2.2522,-2.2215,-2.1144,-2.0848,-2.0462,-2.0128,-1.9926,-1.9439,-1.8976,-1.8678,-1.8742,-1.8807,-1.8914,-1.8992,-1.9018,-1.9086,-1.915,-1.8817,-1.8474,-1.8186,-1.8153,-1.7603,-1.7825,-3.3724,-3.3095,-3.2407,-3.1901,-3.1499,-3.15,-3.1248,-3.094,-3.1307,-3.1376,-3.1109,-3.0689,-3.0133,-2.9518,-2.9298,-2.8843,-2.8284,-2.7951,-2.768,-2.7533,-2.7591,-2.7315,-2.6716,-2.6412,-2.6131,-2.58,-2.5157,-2.4633,-2.4312,-2.4281,-2.4281,-2.4281,-2.4281,-2.4281,-2.4256,-2.4051,-2.3548,-2.2752,-2.2532,-2.2182,-2.1381,-2.1057,-2.0952,-2.0939,-2.0572,-2.0373,-2.0321,-2.0407,-2.0424,-2.0373,-2.0424,-2.0424,-2.0373,-2.0357,-2.0356,-2.035,-2.0705,-2.0934,-2.1011,-2.1602,-2.1991,-2.204,-2.2263,-2.2502,-2.2474,-2.2493,-2.2664,-2.3021,-2.3126,-2.3266,-2.3581,-2.3438,-2.324,-2.3327,-2.35,-2.3719,-2.3819,-2.3751,-2.3648,-2.3597,-2.3202,-2.2853,-2.2738,-2.2519,-2.2257,-2.2271,-2.2257,-2.2377,-2.2474,-2.2497,-2.2576,-2.2659,-2.2694,-2.2565,-2.2215,-2.1614,-2.1202,-2.084,-2.0464,-1.983,-1.9308,-1.8837,-1.8807,-1.8801,-1.8851,-1.8816,-1.887,-1.8905,-1.9001,-1.9079,-1.8757,-1.8682,-1.8814,-1.8354,-1.8508,-3.3682,-3.3164,-3.2344,-3.1795,-3.1438,-3.1229,-3.0773,-3.0253,-3.0644,-3.0866,-3.0763,-3.0359,-2.9889,-2.9502,-2.9272,-2.8958,-2.8536,-2.8006,-2.7656,-2.7448,-2.7524,-2.7375,-2.702,-2.695,-2.6775,-2.639,-2.5734,-2.5092,-2.4575,-2.452,-2.4413,-2.4213,-2.4213,-2.4234,-2.4255,-2.4291,-2.3769,-2.3132,-2.2994,-2.2563,-2.1951,-2.1522,-2.1411,-2.1488,-2.0965,-2.052,-2.0318,-2.0287,-2.0287,-2.0287,-2.0287,-2.0287,-2.0287,-2.0287,-2.0379,-2.0626,-2.1044,-2.1411,-2.1673,-2.2243,-2.2609,-2.264,-2.2859,-2.2932,-2.2948,-2.2948,-2.3194,-2.3502,-2.3625,-2.3856,-2.4076,-2.385,-2.3584,-2.3658,-2.3791,-2.3937,-2.4079,-2.4024,-2.3849,-2.3654,-2.3342,-2.3159,-2.314,-2.282,-2.2697,-2.2627,-2.2673,-2.2761,-2.2642,-2.2632,-2.2525,-2.2474,-2.2453,-2.248,-2.236,-2.2044,-2.1658,-2.1316,-2.1109,-2.0411,-1.979,-1.9272,-1.8901,-1.8872,-1.878,-1.8703,-1.8705,-1.876,-1.8861,-1.9035,-1.8995,-1.8885,-1.9022,-1.9165,-1.9117,-3.2815,-3.2668,-3.1445,-3.1101,-3.1097,-3.0655,-3.0066,-2.9574,-2.9566,-2.9704,-2.9735,-2.9535,-2.9445,-2.9319,-2.8867,-2.8531,-2.8329,-2.7924,-2.7364,-2.684,-2.6808,-2.6829,-2.6824,-2.6808,-2.6817,-2.6786,-2.6273,-2.5644,-2.4955,-2.4915,-2.4648,-2.4161,-2.407,-2.4088,-2.4202,-2.4187,-2.4198,-2.3841,-2.3031,-2.2697,-2.3025,-2.1978,-2.1609,-2.2024,-2.155,-2.0919,-2.0318,-2.0287,-2.0287,-2.0287,-2.0287,-2.0287,-2.0364,-2.0379,-2.0628,-2.1196,-2.135,-2.167,-2.2274,-2.2917,-2.3317,-2.3379,-2.3871,-2.4066,-2.404,-2.4066,-2.4133,-2.4164,-2.421,-2.4266,-2.4251,-2.422,-2.423,-2.4522,-2.444,-2.454,-2.4705,-2.4502,-2.3991,-2.3545,-2.3339,-2.3256,-2.3347,-2.334,-2.3408,-2.3539,-2.367,-2.3551,-2.3099,-2.3013,-2.2755,-2.2348,-2.232,-2.2473,-2.2426,-2.2354,-2.2032,-2.1739,-2.1589,-2.1189,-2.0576,-2.0018,-1.9489,-1.9324,-1.8735,-1.8643,-1.8603,-1.8658,-1.8723,-1.8843,-1.8896,-1.8976,-1.9026,-1.9094,-1.9142,-3.2542,-3.2577,-3.1751,-3.0918,-3.0307,-3.0061,-2.9518,-2.8771,-2.9139,-2.9407,-2.9425,-2.903,-2.8807,-2.878,-2.857,-2.8283,-2.7886,-2.7734,-2.7336,-2.6778,-2.6706,-2.6492,-2.6285,-2.657,-2.6556,-2.6283,-2.612,-2.5738,-2.5161,-2.5033,-2.4869,-2.4657,-2.421,-2.404,-2.407,-2.4046,-2.3884,-2.3447,-2.3468,-2.3173,-2.2507,-2.2057,-2.1777,-2.1486,-2.136,-2.098,-2.035,-2.0287,-2.0287,-2.0302,-2.0287,-2.0487,-2.0872,-2.098,-2.1322,-2.1951,-2.2424,-2.2752,-2.3009,-2.3594,-2.3943,-2.4005,-2.4189,-2.4266,-2.4281,-2.4281,-2.4281,-2.4281,-2.4281,-2.4281,-2.4281,-2.4281,-2.4292,-2.4385,-2.4405,-2.4482,-2.463,-2.4622,-2.459,-2.4417,-2.3988,-2.3734,-2.3628,-2.3551,-2.33,-2.3319,-2.3372,-2.3263,-2.3223,-2.3259,-2.3326,-2.3207,-2.2972,-2.2535,-2.2525,-2.2396,-2.2079,-2.1885,-2.1798,-2.1721,-2.1199,-2.0714,-2.0193,-1.9634,-1.9045,-1.8693,-1.8655,-1.8661,-1.878,-1.8703,-1.8725,-1.8807,-1.887,-1.8932,-1.8966,-3.1852,-3.1884,-3.1294,-3.0668,-2.9975,-2.9609,-2.8899,-2.8193,-2.8348,-2.85,-2.8454,-2.8222,-2.8059,-2.8072,-2.8105,-2.7924,-2.7571,-2.7608,-2.7292,-2.672,-2.6434,-2.6145,-2.5841,-2.6166,-2.6218,-2.5937,-2.5928,-2.5651,-2.5055,-2.5171,-2.5048,-2.4574,-2.4164,-2.3977,-2.3939,-2.3773,-2.3507,-2.343,-2.3532,-2.3335,-2.2818,-2.2539,-2.2365,-2.2186,-2.203,-2.1593,-2.0995,-2.0704,-2.0602,-2.0718,-2.0888,-2.1257,-2.1642,-2.1689,-2.1963,-2.2594,-2.304,-2.3379,-2.3671,-2.404,-2.4281,-2.4281,-2.4281,-2.4281,-2.4281,-2.4281,-2.4281,-2.4281,-2.4035,-2.3933,-2.3933,-2.3933,-2.3948,-2.3933,-2.4164,-2.4307,-2.4436,-2.4539,-2.4609,-2.4534,-2.4284,-2.4116,-2.3963,-2.3829,-2.3488,-2.3541,-2.3598,-2.3446,-2.3538,-2.3501,-2.3582,-2.3496,-2.3009,-2.2736,-2.2667,-2.2432,-2.2127,-2.1996,-2.1942,-2.1881,-2.1632,-2.1265,-2.08,-2.0183,-1.9577,-1.9295,-1.9209,-1.9066,-1.9067,-1.887,-1.8725,-1.8639,-1.8704,-1.8751,-1.8797,-3.0871,-3.0758,-3.0317,-3.0172,-3.0066,-2.921,-2.8428,-2.7789,-2.7387,-2.7211,-2.7159,-2.7426,-2.7387,-2.7348,-2.7581,-2.7589,-2.7477,-2.7478,-2.7269,-2.6752,-2.6297,-2.5977,-2.5963,-2.5854,-2.5771,-2.5825,-2.5755,-2.5446,-2.498,-2.5314,-2.5077,-2.4215,-2.4009,-2.3856,-2.372,-2.3337,-2.3341,-2.3496,-2.3182,-2.3203,-2.3553,-2.3094,-2.3025,-2.3521,-2.3031,-2.2475,-2.1865,-2.1455,-2.1225,-2.136,-2.1664,-2.1987,-2.2267,-2.2313,-2.2621,-2.3247,-2.3328,-2.3682,-2.4128,-2.4251,-2.4281,-2.4281,-2.4189,-2.4287,-2.4245,-2.4168,-2.4153,-2.423,-2.382,-2.3502,-2.3502,-2.3533,-2.3533,-2.3486,-2.3994,-2.4287,-2.4281,-2.4323,-2.4364,-2.4343,-2.4302,-2.4343,-2.441,-2.4373,-2.4454,-2.4534,-2.4587,-2.4312,-2.4048,-2.38,-2.3582,-2.3404,-2.3242,-2.3085,-2.3071,-2.2669,-2.2329,-2.1967,-2.1973,-2.2013,-2.1874,-2.1496,-2.1177,-2.06,-2.012,-1.9877,-1.9693,-1.9536,-1.9412,-1.9286,-1.9037,-1.8678,-1.8647,-1.8857,-1.8797,-3.0062,-3.0075,-2.9921,-2.9631,-2.9275,-2.8936,-2.8379,-2.7697,-2.7507,-2.7245,-2.7131,-2.7468,-2.7413,-2.7143,-2.7524,-2.7588,-2.7439,-2.7395,-2.7351,-2.7223,-2.673,-2.6485,-2.6243,-2.5587,-2.5426,-2.5705,-2.5421,-2.5134,-2.497,-2.5097,-2.496,-2.4645,-2.4106,-2.3667,-2.3277,-2.3145,-2.2833,-2.2623,-2.2497,-2.2395,-2.2417,-2.2091,-2.1949,-2.2315,-2.2411,-2.2273,-2.2072,-2.2313,-2.1968,-2.1157,-2.1203,-2.1828,-2.27,-2.2822,-2.3112,-2.3651,-2.3881,-2.3999,-2.4188,-2.4276,-2.4281,-2.4235,-2.3866,-2.3723,-2.4168,-2.3769,-2.38,-2.403,-2.4056,-2.3994,-2.401,-2.3994,-2.3994,-2.4056,-2.4174,-2.4281,-2.4281,-2.4281,-2.4281,-2.4281,-2.4281,-2.4338,-2.4359,-2.4364,-2.4421,-2.4462,-2.4487,-2.4482,-2.4206,-2.42,-2.4006,-2.4018,-2.3912,-2.3645,-2.3394,-2.2952,-2.2531,-2.2028,-2.1973,-2.2121,-2.1838,-2.1443,-2.113,-2.0746,-2.0422,-2.0149,-2.0067,-1.9971,-1.9849,-1.9703,-1.973,-1.9545,-1.9342,-1.9373,-1.9082,-2.9779,-2.9779,-2.9779,-2.9603,-2.9277,-2.9001,-2.8473,-2.7851,-2.7546,-2.7189,-2.6938,-2.7169,-2.7296,-2.7318,-2.7643,-2.7686,-2.7541,-2.7515,-2.742,-2.725,-2.7038,-2.673,-2.6246,-2.5542,-2.5485,-2.5708,-2.5277,-2.502,-2.4989,-2.4956,-2.4833,-2.4518,-2.4173,-2.3796,-2.3506,-2.3133,-2.287,-2.2562,-2.247,-2.2343,-2.2004,-2.179,-2.176,-2.1916,-2.2055,-2.204,-2.1771,-2.1768,-2.1737,-2.1827,-2.213,-2.2651,-2.3305,-2.3411,-2.3624,-2.4003,-2.4067,-2.4124,-2.4124,-2.4151,-2.4156,-2.4126,-2.3733,-2.3758,-2.3987,-2.3743,-2.3773,-2.4048,-2.3921,-2.3779,-2.3774,-2.383,-2.4025,-2.4204,-2.4281,-2.4281,-2.4281,-2.4281,-2.4281,-2.4281,-2.4281,-2.4281,-2.4281,-2.4281,-2.4281,-2.4317,-2.4338,-2.4323,-2.4277,-2.438,-2.4426,-2.4337,-2.4202,-2.3908,-2.3623,-2.3255,-2.2891,-2.2398,-2.2021,-2.215,-2.1916,-2.1514,-2.1323,-2.1057,-2.0713,-2.0503,-2.0461,-2.039,-2.0187,-2.0164,-2.036,-2.022,-1.9866,-1.9802,-1.949,-2.9779,-2.9779,-2.9779,-2.9779,-2.9679,-2.9252,-2.875,-2.8147,-2.7681,-2.714,-2.6773,-2.6737,-2.7135,-2.7589,-2.7723,-2.7851,-2.7873,-2.7745,-2.7434,-2.722,-2.7051,-2.6823,-2.6192,-2.6026,-2.5947,-2.5905,-2.5358,-2.5153,-2.515,-2.5081,-2.4727,-2.4423,-2.4198,-2.3986,-2.369,-2.3326,-2.3073,-2.2845,-2.2771,-2.254,-2.215,-2.1977,-2.1927,-2.2047,-2.207,-2.1911,-2.1431,-2.1064,-2.1248,-2.2831,-2.3435,-2.3462,-2.3655,-2.3846,-2.3824,-2.3818,-2.3797,-2.3818,-2.3818,-2.376,-2.3882,-2.3831,-2.377,-2.3931,-2.3864,-2.3701,-2.3634,-2.3967,-2.3436,-2.3396,-2.3412,-2.3386,-2.3697,-2.4112,-2.4255,-2.4261,-2.4261,-2.4281,-2.4281,-2.4281,-2.4281,-2.4281,-2.4281,-2.4281,-2.4281,-2.4281,-2.4281,-2.4281,-2.4281,-2.4338,-2.4338,-2.4313,-2.4189,-2.4061,-2.3793,-2.3509,-2.3204,-2.2817,-2.2292,-2.215,-2.2053,-2.1774,-2.1604,-2.1341,-2.0937,-2.0843,-2.0941,-2.0808,-2.0605,-2.0663,-2.0873,-2.0426,-1.9948,-2.0111,-2.0,-2.9779,-2.9779,-2.9779,-2.9779,-2.9767,-2.9654,-2.9277,-2.8699,-2.816,-2.762,-2.7228,-2.7175,-2.7264,-2.7402,-2.7877,-2.8115,-2.817,-2.7863,-2.7411,-2.7075,-2.7024,-2.7002,-2.669,-2.6564,-2.6491,-2.636,-2.5916,-2.5623,-2.5559,-2.5227,-2.4958,-2.4751,-2.4324,-2.3881,-2.3459,-2.3383,-2.2958,-2.2605,-2.2565,-2.2491,-2.2222,-2.1834,-2.1781,-2.1987,-2.2011,-2.2002,-2.1927,-2.1759,-2.1897,-2.213,-2.21,-2.2342,-2.2981,-2.3157,-2.3157,-2.3179,-2.3238,-2.3127,-2.2852,-2.3106,-2.3363,-2.3311,-2.2972,-2.2865,-2.3706,-2.3012,-2.3063,-2.3573,-2.3803,-2.361,-2.3616,-2.376,-2.38,-2.39,-2.3967,-2.4024,-2.4088,-2.4193,-2.4261,-2.4281,-2.4261,-2.4281,-2.4281,-2.4281,-2.4281,-2.4281,-2.4281,-2.4281,-2.4251,-2.422,-2.4189,-2.4143,-2.4235,-2.4148,-2.4071,-2.385,-2.3643,-2.3285,-2.2779,-2.2405,-2.2321,-2.1871,-2.1632,-2.1392,-2.1102,-2.1112,-2.1095,-2.1282,-2.1101,-2.1244,-2.1275,-2.0905,-2.06,-2.0633,-2.053,-2.9779,-2.9779,-2.9779,-2.9779,-2.9779,-2.9779,-2.9465,-2.89,-2.8599,-2.8185,-2.7745,-2.7657,-2.7657,-2.7708,-2.8197,-2.8422,-2.8219,-2.799,-2.7794,-2.7596,-2.7474,-2.7305,-2.728,-2.7038,-2.6815,-2.6758,-2.6233,-2.6019,-2.5914,-2.5543,-2.5149,-2.5005,-2.4661,-2.4259,-2.3704,-2.36,-2.3328,-2.2924,-2.2766,-2.2669,-2.2326,-2.1799,-2.1378,-2.1445,-2.1444,-2.1444,-2.1407,-2.1393,-2.1431,-2.1376,-2.1172,-2.1434,-2.2312,-2.2549,-2.2549,-2.2558,-2.2581,-2.2535,-2.2383,-2.2475,-2.268,-2.2703,-2.2282,-2.2502,-2.2789,-2.2393,-2.2408,-2.284,-2.3054,-2.312,-2.3201,-2.3253,-2.329,-2.329,-2.3326,-2.3392,-2.3631,-2.3925,-2.4172,-2.4156,-2.4135,-2.4193,-2.4213,-2.4213,-2.4276,-2.4276,-2.4281,-2.4251,-2.3917,-2.3902,-2.3912,-2.3958,-2.4174,-2.4235,-2.4266,-2.4194,-2.4107,-2.3747,-2.3308,-2.3041,-2.2879,-2.2269,-2.1584,-2.1422,-2.1322,-2.1006,-2.1037,-2.1276,-2.1388,-2.1255,-2.1185,-2.1244,-2.1207,-2.0982,-2.0883,-2.9779,-2.9779,-2.9779,-2.9779,-2.9779,-2.9779,-2.9528,-2.9076,-2.8925,-2.8587,-2.826,-2.816,-2.8072,-2.8298,-2.8524,-2.8473,-2.821,-2.8084,-2.8055,-2.8113,-2.7809,-2.7627,-2.7516,-2.7254,-2.6948,-2.6884,-2.6524,-2.6372,-2.6316,-2.5923,-2.5521,-2.5222,-2.5058,-2.4702,-2.4285,-2.4158,-2.3897,-2.3417,-2.3341,-2.3067,-2.2652,-2.2113,-2.1708,-2.1325,-2.1245,-2.1258,-2.1297,-2.1245,-2.1116,-2.0949,-2.0857,-2.1251,-2.1746,-2.1992,-2.2002,-2.1988,-2.2025,-2.1908,-2.1813,-2.1931,-2.2011,-2.1988,-2.1974,-2.203,-2.21,-2.2114,-2.2184,-2.2386,-2.2607,-2.2758,-2.2593,-2.2899,-2.2903,-2.2837,-2.2794,-2.2856,-2.3147,-2.3577,-2.3789,-2.4003,-2.3888,-2.3846,-2.3967,-2.4046,-2.4151,-2.4234,-2.424,-2.4117,-2.3779,-2.3672,-2.3769,-2.3733,-2.3902,-2.3605,-2.3543,-2.3569,-2.3605,-2.3528,-2.3271,-2.3148,-2.2998,-2.2508,-2.1859,-2.1737,-2.1563,-2.1269,-2.1019,-2.107,-2.1118,-2.107,-2.1071,-2.1053,-2.1133,-2.123,-2.1165,-2.9779,-2.9779,-2.9779,-2.9779,-2.9779,-2.9792,-2.9729,-2.9578,-2.9101,-2.885,-2.8712,-2.8348,-2.8436,-2.8612,-2.8335,-2.821,-2.8285,-2.8298,-2.8247,-2.8308,-2.8094,-2.7929,-2.7599,-2.7432,-2.7069,-2.6759,-2.668,-2.6836,-2.6691,-2.6327,-2.5961,-2.5807,-2.5466,-2.504,-2.4745,-2.4563,-2.4313,-2.3946,-2.3803,-2.3506,-2.313,-2.283,-2.2479,-2.1995,-2.1877,-2.1943,-2.2009,-2.2061,-2.2113,-2.2073,-2.1629,-2.1524,-2.166,-2.1664,-2.1604,-2.1516,-2.1506,-2.1399,-2.126,-2.1391,-2.1496,-2.1506,-2.1615,-2.1815,-2.192,-2.1852,-2.2083,-2.2634,-2.3111,-2.3482,-2.3627,-2.3356,-2.3557,-2.3596,-2.3434,-2.3354,-2.3148,-2.3207,-2.3449,-2.3747,-2.3627,-2.3428,-2.3508,-2.3653,-2.376,-2.3846,-2.3909,-2.3809,-2.3552,-2.3624,-2.3827,-2.3722,-2.3575,-2.3099,-2.2636,-2.2663,-2.2689,-2.2716,-2.2613,-2.2578,-2.2478,-2.2424,-2.2183,-2.1999,-2.1838,-2.1612,-2.1351,-2.1136,-2.1014,-2.1095,-2.1002,-2.086,-2.0958,-2.1055,-2.1119,-2.9417,-2.9456,-2.9417,-2.9417,-2.9468,-2.9573,-2.9599,-2.9574,-2.9401,-2.9377,-2.9302,-2.9101,-2.8925,-2.8925,-2.9051,-2.8988,-2.8938,-2.8988,-2.8976,-2.8938,-2.8674,-2.8423,-2.8047,-2.7858,-2.7394,-2.71,-2.7101,-2.7014,-2.6841,-2.6561,-2.6302,-2.6081,-2.58,-2.5493,-2.5011,-2.4651,-2.4506,-2.4245,-2.4003,-2.3777,-2.3527,-2.3347,-2.2908,-2.2462,-2.2346,-2.2401,-2.2401,-2.2401,-2.2388,-2.2336,-2.2139,-2.1995,-2.193,-2.1851,-2.1647,-2.1219,-2.1086,-2.112,-2.1104,-2.1373,-2.1581,-2.1899,-2.1912,-2.2002,-2.2155,-2.2133,-2.2199,-2.2583,-2.2837,-2.3122,-2.3041,-2.3201,-2.3122,-2.3135,-2.3189,-2.3196,-2.3065,-2.3059,-2.3255,-2.3441,-2.3014,-2.2847,-2.2928,-2.3098,-2.3297,-2.3443,-2.3551,-2.3439,-2.3223,-2.3357,-2.3543,-2.3254,-2.3026,-2.2823,-2.2274,-2.2073,-2.2011,-2.1974,-2.1823,-2.1808,-2.1892,-2.1827,-2.2076,-2.2219,-2.2044,-2.1726,-2.1748,-2.1555,-2.1342,-2.1067,-2.0865,-2.0742,-2.0794,-2.086,-2.0909,-2.9104,-2.9104,-2.9104,-2.9104,-2.9143,-2.9275,-2.9341,-2.9392,-2.9534,-2.9599,-2.9663,-2.9586,-2.9363,-2.9188,-2.9339,-2.9566,-2.9628,-2.9553,-2.9553,-2.9603,-2.9302,-2.9026,-2.875,-2.8486,-2.7984,-2.7555,-2.748,-2.7163,-2.6746,-2.6595,-2.6468,-2.6286,-2.6166,-2.5926,-2.5435,-2.5058,-2.4739,-2.4413,-2.4059,-2.3855,-2.3715,-2.3469,-2.3041,-2.2474,-2.2574,-2.2682,-2.2747,-2.276,-2.2734,-2.2682,-2.2538,-2.2462,-2.2447,-2.2356,-2.1889,-2.1146,-2.1015,-2.1302,-2.1525,-2.1681,-2.1944,-2.2246,-2.2363,-2.2389,-2.2442,-2.247,-2.2573,-2.2571,-2.2822,-2.2929,-2.309,-2.2849,-2.2847,-2.2901,-2.2956,-2.2866,-2.3058,-2.3071,-2.2959,-2.2839,-2.2387,-2.2342,-2.2544,-2.2351,-2.2512,-2.2793,-2.2905,-2.2832,-2.2665,-2.2789,-2.2833,-2.2571,-2.2386,-2.2427,-2.2066,-2.163,-2.1536,-2.143,-2.1074,-2.0843,-2.105,-2.1203,-2.1443,-2.1549,-2.1864,-2.1617,-2.1782,-2.1667,-2.1122,-2.0724,-2.0615,-2.0588,-2.0626,-2.0599,-2.0602,-2.9104,-2.9104,-2.9104,-2.9104,-2.9091,-2.9131,-2.9131,-2.9131,-2.9209,-2.917,-2.926,-2.9209,-2.9277,-2.9257,-2.9088,-2.9063,-2.9063,-2.9176,-2.9402,-2.9704,-2.9641,-2.9365,-2.8976,-2.8863,-2.8511,-2.8097,-2.8009,-2.7429,-2.6886,-2.6672,-2.6521,-2.6451,-2.6362,-2.6245,-2.5846,-2.5567,-2.5542,-2.516,-2.4591,-2.408,-2.3731,-2.3594,-2.3491,-2.3401,-2.335,-2.3328,-2.3293,-2.328,-2.3331,-2.3302,-2.2984,-2.2804,-2.2673,-2.2206,-2.1988,-2.1892,-2.2029,-2.2231,-2.2256,-2.2228,-2.2307,-2.2515,-2.2502,-2.2426,-2.2635,-2.2895,-2.3104,-2.3132,-2.3511,-2.372,-2.3681,-2.3812,-2.3877,-2.3799,-2.3655,-2.3474,-2.3403,-2.3399,-2.3243,-2.2857,-2.2587,-2.2319,-2.2287,-2.1959,-2.1732,-2.2011,-2.2216,-2.216,-2.2131,-2.2248,-2.2257,-2.203,-2.198,-2.2011,-2.1621,-2.1219,-2.1126,-2.0957,-2.0495,-2.0061,-2.0246,-2.0409,-2.0215,-2.0411,-2.0818,-2.1064,-2.0945,-2.0728,-2.0494,-2.0404,-2.0334,-2.036,-2.0423,-2.0381,-2.0238,-2.9055,-2.8776,-2.8736,-2.8736,-2.8776,-2.8895,-2.8922,-2.8961,-2.9052,-2.9104,-2.9104,-2.9104,-2.917,-2.9162,-2.9042,-2.9096,-2.9148,-2.9173,-2.9388,-2.969,-2.9767,-2.9641,-2.949,-2.9377,-2.9114,-2.8625,-2.8461,-2.821,-2.7507,-2.703,-2.6839,-2.6549,-2.6499,-2.642,-2.6219,-2.5895,-2.5663,-2.5362,-2.4963,-2.443,-2.4012,-2.3938,-2.3871,-2.3548,-2.3607,-2.3595,-2.3637,-2.3586,-2.3586,-2.356,-2.3334,-2.324,-2.3202,-2.3023,-2.2869,-2.2898,-2.2984,-2.2915,-2.2685,-2.2646,-2.2778,-2.2979,-2.3073,-2.3179,-2.3277,-2.341,-2.3621,-2.3704,-2.3942,-2.407,-2.4083,-2.4125,-2.4125,-2.4083,-2.4054,-2.3949,-2.3715,-2.3759,-2.3607,-2.3212,-2.282,-2.2578,-2.239,-2.2196,-2.1889,-2.1773,-2.187,-2.1746,-2.1704,-2.1704,-2.1673,-2.1572,-2.1602,-2.1696,-2.1169,-2.0669,-2.0728,-2.0555,-2.0025,-1.9668,-1.9603,-1.9589,-1.9488,-1.9259,-1.9389,-1.9624,-1.9853,-2.0146,-2.0249,-2.0158,-2.0068,-2.0023,-1.9973,-1.9803,-1.9697,-2.9256,-2.8883,-2.8579,-2.851,-2.851,-2.8657,-2.8724,-2.8724,-2.8855,-2.8934,-2.8973,-2.9013,-2.9013,-2.9052,-2.9067,-2.9135,-2.9289,-2.9314,-2.9443,-2.9573,-2.9624,-2.9585,-2.9471,-2.9498,-2.9336,-2.8949,-2.8975,-2.8662,-2.8237,-2.786,-2.7482,-2.6914,-2.6851,-2.6738,-2.6562,-2.6197,-2.5854,-2.5564,-2.5315,-2.4829,-2.4356,-2.4381,-2.4184,-2.3905,-2.375,-2.3773,-2.3874,-2.3747,-2.3722,-2.3933,-2.3959,-2.3865,-2.3692,-2.3615,-2.3577,-2.3526,-2.3454,-2.3416,-2.3297,-2.3275,-2.3279,-2.3432,-2.3586,-2.3533,-2.3686,-2.3819,-2.3835,-2.3846,-2.3897,-2.3923,-2.3966,-2.3966,-2.3936,-2.3936,-2.3923,-2.3966,-2.3953,-2.3849,-2.3755,-2.345,-2.3127,-2.2937,-2.272,-2.2552,-2.223,-2.1797,-2.1553,-2.1417,-2.1347,-2.1345,-2.1237,-2.118,-2.1185,-2.1267,-2.0935,-2.0516,-2.0475,-2.0293,-1.979,-1.9521,-1.956,-1.9249,-1.9014,-1.8714,-1.8484,-1.8537,-1.8967,-1.9517,-2.0024,-1.9804,-1.959,-1.9527,-1.9435,-1.9281,-1.9284,-3.0013,-2.9905,-2.8943,-2.8546,-2.8534,-2.851,-2.851,-2.855,-2.855,-2.859,-2.863,-2.8724,-2.8803,-2.8855,-2.8973,-2.9052,-2.9131,-2.9131,-2.9131,-2.9131,-2.9143,-2.917,-2.917,-2.9157,-2.9106,-2.9098,-2.9012,-2.8793,-2.8661,-2.8438,-2.8262,-2.8009,-2.7347,-2.7268,-2.7102,-2.6725,-2.6172,-2.5883,-2.5619,-2.5317,-2.4908,-2.4777,-2.4714,-2.4576,-2.4274,-2.4186,-2.4619,-2.4255,-2.4173,-2.452,-2.4551,-2.4413,-2.4098,-2.4035,-2.4022,-2.3959,-2.3694,-2.3808,-2.4053,-2.3814,-2.3607,-2.3599,-2.3671,-2.3812,-2.3906,-2.3714,-2.368,-2.388,-2.4082,-2.3949,-2.3842,-2.3667,-2.4,-2.4056,-2.4094,-2.3953,-2.3914,-2.3717,-2.3636,-2.3594,-2.3443,-2.3219,-2.3119,-2.296,-2.2482,-2.2036,-2.181,-2.1676,-2.1215,-2.1096,-2.0952,-2.0848,-2.0797,-2.0807,-2.0782,-2.0631,-2.0598,-2.0489,-2.0141,-1.9877,-1.9737,-1.9318,-1.8999,-1.8657,-1.8515,-1.8281,-1.8215,-1.8987,-1.9455,-1.9286,-1.912,-1.8988,-1.8883,-1.8726,-1.8896,-3.0609,-3.0537,-2.9785,-2.9292,-2.8967,-2.8655,-2.851,-2.851,-2.851,-2.851,-2.8471,-2.8578,-2.8618,-2.8657,-2.8697,-2.8816,-2.8803,-2.8291,-2.8554,-2.8724,-2.8685,-2.8673,-2.8712,-2.8633,-2.8554,-2.8791,-2.8676,-2.8512,-2.8433,-2.8407,-2.7786,-2.7409,-2.7446,-2.7761,-2.7607,-2.7107,-2.6675,-2.6311,-2.6109,-2.5871,-2.541,-2.5272,-2.5146,-2.4795,-2.4675,-2.4562,-2.4757,-2.4619,-2.4669,-2.4782,-2.487,-2.4732,-2.4569,-2.4519,-2.4506,-2.4449,-2.4161,-2.4387,-2.4587,-2.4287,-2.3995,-2.4311,-2.4349,-2.4348,-2.4335,-2.4411,-2.4529,-2.4617,-2.4558,-2.4438,-2.4597,-2.4653,-2.4705,-2.4577,-2.4379,-2.4144,-2.3999,-2.3884,-2.3692,-2.3688,-2.362,-2.3462,-2.3414,-2.3341,-2.2825,-2.2315,-2.211,-2.1864,-2.1433,-2.1107,-2.1055,-2.0898,-2.0859,-2.078,-2.078,-2.0752,-2.0712,-2.0594,-2.0465,-2.0242,-1.9982,-1.9784,-1.9419,-1.9012,-1.8706,-1.864,-1.8687,-1.886,-1.8899,-1.8749,-1.8562,-1.8352,-1.826,-1.8217,-1.845,-3.01,-3.0147,-2.9515,-2.9248,-2.9227,-2.8895,-2.8643,-2.8483,-2.8179,-2.8099,-2.8139,-2.8099,-2.8299,-2.8379,-2.8179,-2.8167,-2.7983,-2.7516,-2.7568,-2.7568,-2.7516,-2.7597,-2.773,-2.7649,-2.7354,-2.7879,-2.7723,-2.738,-2.7526,-2.7687,-2.7285,-2.6995,-2.7143,-2.7365,-2.7138,-2.7153,-2.6847,-2.6801,-2.6512,-2.6487,-2.6109,-2.5946,-2.5774,-2.536,-2.5197,-2.5234,-2.5272,-2.5234,-2.5209,-2.5335,-2.5372,-2.5234,-2.5134,-2.5059,-2.5046,-2.4976,-2.4901,-2.4926,-2.5059,-2.4675,-2.4456,-2.4664,-2.472,-2.4796,-2.4917,-2.4949,-2.4836,-2.4982,-2.5065,-2.5173,-2.5186,-2.4989,-2.4906,-2.4722,-2.4633,-2.4437,-2.4374,-2.4272,-2.3999,-2.3809,-2.3755,-2.3661,-2.3424,-2.3352,-2.3116,-2.2662,-2.2489,-2.2182,-2.1728,-2.1509,-2.1457,-2.1264,-2.1069,-2.099,-2.0886,-2.0819,-2.0726,-2.0686,-2.0581,-2.0478,-2.0268,-2.0061,-1.9839,-1.9441,-1.9192,-1.9094,-1.9012,-1.8977,-1.8642,-1.8253,-1.8146,-1.8146,-1.8055,-1.8045,-1.8066,-2.838,-2.8574,-2.772,-2.8082,-2.9165,-2.9263,-2.8894,-2.8277,-2.7592,-2.726,-2.7237,-2.7214,-2.7592,-2.7966,-2.747,-2.7255,-2.7051,-2.6329,-2.6069,-2.6235,-2.6152,-2.5986,-2.6069,-2.6121,-2.6193,-2.5975,-2.6036,-2.6199,-2.6252,-2.6488,-2.6377,-2.6136,-2.6034,-2.6163,-2.5651,-2.6005,-2.6547,-2.7009,-2.6479,-2.6447,-2.6544,-2.627,-2.6012,-2.5803,-2.5471,-2.5425,-2.5391,-2.5185,-2.5163,-2.5558,-2.5645,-2.5552,-2.5436,-2.5419,-2.5486,-2.5586,-2.5172,-2.5435,-2.6185,-2.5322,-2.5059,-2.5071,-2.5209,-2.5134,-2.4958,-2.4921,-2.5066,-2.5353,-2.5181,-2.5061,-2.4953,-2.4953,-2.5073,-2.5073,-2.501,-2.4847,-2.4816,-2.4602,-2.4318,-2.4185,-2.4003,-2.3847,-2.3513,-2.3271,-2.3221,-2.3003,-2.2831,-2.2501,-2.2093,-2.1941,-2.1891,-2.1609,-2.1366,-2.1353,-2.1225,-2.0912,-2.0753,-2.0713,-2.0648,-2.0544,-2.0531,-2.0415,-2.0141,-1.9839,-1.9723,-1.966,-1.9319,-1.8973,-1.8829,-1.8684,-1.8236,-1.8105,-1.7984,-1.7943,-1.8018,-2.8528,-2.8648,-2.8285,-2.8242,-2.8329,-2.7969,-2.7732,-2.7509,-2.7006,-2.6568,-2.6332,-2.6246,-2.637,-2.6535,-2.6494,-2.6287,-2.6121,-2.5421,-2.5073,-2.5652,-2.52,-2.5411,-2.5453,-2.521,-2.52,-2.5495,-2.5462,-2.5154,-2.5417,-2.5448,-2.4878,-2.4491,-2.46,-2.4628,-2.5013,-2.5295,-2.5326,-2.4818,-2.4598,-2.4778,-2.5493,-2.5456,-2.5323,-2.5311,-2.5094,-2.4978,-2.4898,-2.4531,-2.4649,-2.4957,-2.4981,-2.5015,-2.5196,-2.5288,-2.5554,-2.5921,-2.5854,-2.6072,-2.6411,-2.6059,-2.5971,-2.5866,-2.5812,-2.5799,-2.5921,-2.5933,-2.5946,-2.585,-2.5749,-2.5774,-2.5971,-2.5925,-2.5984,-2.5908,-2.577,-2.5468,-2.5267,-2.4908,-2.4664,-2.4613,-2.4506,-2.436,-2.4098,-2.3436,-2.3213,-2.3215,-2.3062,-2.2903,-2.2546,-2.2462,-2.2388,-2.1975,-2.1734,-2.1721,-2.1568,-2.1144,-2.1017,-2.1056,-2.0823,-2.0536,-2.0549,-2.0653,-2.0496,-2.0196,-2.0222,-2.0222,-1.9725,-1.9354,-1.9425,-1.9272,-1.8771,-1.8416,-1.8345,-1.8251,-1.8169,-2.7369,-2.7369,-2.7369,-2.7202,-2.6951,-2.7203,-2.7147,-2.6697,-2.6353,-2.6087,-2.5851,-2.5669,-2.5827,-2.5869,-2.557,-2.5368,-2.5242,-2.4445,-2.4112,-2.4776,-2.4327,-2.436,-2.4402,-2.4413,-2.4274,-2.4616,-2.4467,-2.4152,-2.4304,-2.4315,-2.3971,-2.346,-2.3122,-2.3567,-2.41,-2.4338,-2.4814,-2.4468,-2.4495,-2.4334,-2.4678,-2.4601,-2.4312,-2.4301,-2.423,-2.4156,-2.3818,-2.3635,-2.3588,-2.3734,-2.3854,-2.4,-2.4492,-2.4779,-2.4957,-2.5311,-2.5452,-2.5454,-2.5528,-2.5564,-2.5529,-2.6176,-2.6402,-2.6477,-2.6487,-2.6373,-2.6386,-2.6411,-2.649,-2.649,-2.6455,-2.6446,-2.6213,-2.6079,-2.5862,-2.5518,-2.561,-2.5299,-2.493,-2.4901,-2.4678,-2.4628,-2.4402,-2.3835,-2.3232,-2.3262,-2.3274,-2.3105,-2.29,-2.2781,-2.2626,-2.2248,-2.1905,-2.1826,-2.165,-2.1325,-2.1285,-2.1371,-2.1052,-2.0629,-2.0733,-2.0836,-2.0707,-2.0462,-2.0105,-1.9864,-1.9864,-1.9737,-1.9471,-1.9369,-1.924,-1.8953,-1.8761,-1.8494,-1.8228,-2.4941,-2.4892,-2.4892,-2.503,-2.5276,-2.6822,-2.6928,-2.5815,-2.5774,-2.5743,-2.5692,-2.5228,-2.5401,-2.5915,-2.5069,-2.4611,-2.4504,-2.369,-2.3529,-2.3392,-2.3436,-2.3416,-2.3343,-2.3353,-2.3474,-2.3309,-2.3256,-2.3454,-2.3226,-2.3408,-2.3301,-2.3104,-2.3083,-2.313,-2.3378,-2.3813,-2.4371,-2.4158,-2.3872,-2.3924,-2.4227,-2.3853,-2.3575,-2.3475,-2.3383,-2.3254,-2.3047,-2.301,-2.3121,-2.3195,-2.3257,-2.3379,-2.3489,-2.3489,-2.3478,-2.3588,-2.3708,-2.4147,-2.4422,-2.4576,-2.5012,-2.5789,-2.6142,-2.6342,-2.6385,-2.6288,-2.616,-2.6325,-2.6397,-2.6449,-2.6467,-2.6107,-2.5778,-2.5646,-2.5515,-2.5548,-2.5838,-2.5642,-2.5259,-2.4976,-2.4659,-2.44,-2.3931,-2.3421,-2.31,-2.3181,-2.3129,-2.2863,-2.2694,-2.2765,-2.2575,-2.2333,-2.2063,-2.1896,-2.165,-2.121,-2.1056,-2.1014,-2.1098,-2.0829,-2.0961,-2.0787,-2.0412,-2.0028,-1.9639,-1.9437,-1.9334,-1.9242,-1.9139,-1.9082,-1.9026,-1.9108,-1.8807,-1.837,-1.8072,-2.4892,-2.4892,-2.4892,-2.4892,-2.4962,-2.5499,-2.554,-2.5325,-2.5285,-2.5136,-2.4808,-2.4689,-2.4846,-2.4917,-2.4591,-2.4476,-2.4222,-2.3959,-2.3732,-2.3516,-2.3286,-2.3159,-2.3101,-2.311,-2.3101,-2.3101,-2.3101,-2.3101,-2.3125,-2.3101,-2.3101,-2.3125,-2.3101,-2.2974,-2.3093,-2.3308,-2.3356,-2.3258,-2.3001,-2.3262,-2.3459,-2.3112,-2.2819,-2.2751,-2.2567,-2.2341,-2.2053,-2.1831,-2.1859,-2.1953,-2.1769,-2.1863,-2.2723,-2.2761,-2.2835,-2.3486,-2.3806,-2.4115,-2.4223,-2.4475,-2.4803,-2.5088,-2.5261,-2.5683,-2.5826,-2.5804,-2.5669,-2.5896,-2.6092,-2.6044,-2.5984,-2.5703,-2.5407,-2.5224,-2.5034,-2.4956,-2.5142,-2.4884,-2.4529,-2.433,-2.4036,-2.3931,-2.3431,-2.3119,-2.2877,-2.2995,-2.2913,-2.2577,-2.2477,-2.2488,-2.2418,-2.2183,-2.1832,-2.1558,-2.1261,-2.0843,-2.074,-2.0635,-2.0782,-2.0752,-2.0413,-2.0197,-1.9901,-1.9582,-1.9199,-1.8925,-1.8712,-1.8664,-1.8604,-1.8545,-1.851,-1.872,-1.8797,-1.8307,-1.8041,-2.4646,-2.4646,-2.4637,-2.4686,-2.4735,-2.4735,-2.4819,-2.5006,-2.5035,-2.4823,-2.4591,-2.4475,-2.436,-2.4359,-2.4214,-2.4108,-2.4079,-2.3977,-2.3851,-2.3745,-2.3504,-2.3486,-2.3389,-2.3188,-2.3101,-2.3101,-2.3101,-2.3101,-2.3101,-2.3101,-2.3101,-2.3101,-2.3101,-2.3101,-2.3149,-2.3114,-2.2895,-2.2647,-2.2424,-2.2492,-2.2531,-2.2484,-2.2261,-2.218,-2.1926,-2.1639,-2.1342,-2.1124,-2.1263,-2.1382,-2.1204,-2.1381,-2.2097,-2.2218,-2.2092,-2.2646,-2.2889,-2.3158,-2.337,-2.364,-2.4083,-2.4425,-2.4375,-2.4651,-2.5024,-2.5144,-2.5237,-2.5425,-2.5482,-2.5528,-2.5424,-2.5281,-2.5076,-2.482,-2.4481,-2.4133,-2.3977,-2.3798,-2.3624,-2.346,-2.3345,-2.3297,-2.3066,-2.2743,-2.255,-2.2523,-2.2289,-2.1876,-2.1889,-2.2083,-2.2054,-2.1882,-2.1455,-2.1052,-2.0773,-2.059,-2.0515,-2.0534,-2.0819,-2.0659,-2.0086,-1.9815,-1.9767,-1.9339,-1.8794,-1.8572,-1.8402,-1.8176,-1.8064,-1.8058,-1.799,-1.7988,-1.8124,-1.8065,-1.7958,-2.4211,-2.4202,-2.4211,-2.4341,-2.4489,-2.448,-2.4618,-2.4833,-2.4796,-2.4864,-2.4809,-2.4534,-2.4421,-2.4412,-2.4212,-2.4079,-2.4088,-2.4058,-2.4055,-2.4017,-2.376,-2.3677,-2.3541,-2.3349,-2.3163,-2.3101,-2.3067,-2.3057,-2.3101,-2.3101,-2.3101,-2.3101,-2.3101,-2.3101,-2.3101,-2.3101,-2.2984,-2.2877,-2.2695,-2.2634,-2.2484,-2.2239,-2.1934,-2.2007,-2.1928,-2.1848,-2.1867,-2.1897,-2.1926,-2.1728,-2.1652,-2.1585,-2.1794,-2.1943,-2.1736,-2.1797,-2.2149,-2.2469,-2.2739,-2.298,-2.3442,-2.3665,-2.3637,-2.3821,-2.4148,-2.4352,-2.4465,-2.4894,-2.5029,-2.5029,-2.496,-2.4759,-2.4557,-2.4198,-2.3826,-2.3655,-2.3551,-2.3211,-2.2768,-2.2605,-2.2461,-2.2413,-2.2237,-2.1907,-2.1961,-2.1945,-2.1775,-2.1345,-2.1337,-2.1645,-2.1564,-2.1486,-2.1193,-2.0794,-2.0488,-2.0324,-2.0322,-2.0416,-2.0574,-2.043,-1.98,-1.9674,-1.9694,-1.9083,-1.8461,-1.8343,-1.8137,-1.7941,-1.7824,-1.781,-1.7694,-1.7346,-1.7356,-1.7595,-1.7725,-2.4211,-2.4211,-2.4211,-2.4242,-2.4242,-2.4301,-2.4301,-2.435,-2.435,-2.4597,-2.4815,-2.4779,-2.4722,-2.4598,-2.4522,-2.4437,-2.4467,-2.4259,-2.4231,-2.4136,-2.3935,-2.3836,-2.3658,-2.335,-2.3204,-2.315,-2.3113,-2.3032,-2.3159,-2.3154,-2.313,-2.313,-2.3179,-2.3227,-2.3227,-2.3218,-2.3218,-2.3179,-2.3062,-2.2916,-2.2818,-2.2574,-2.2363,-2.2266,-2.2178,-2.2012,-2.1982,-2.1943,-2.1914,-2.1826,-2.1797,-2.1797,-2.1906,-2.1894,-2.1855,-2.1836,-2.2119,-2.2402,-2.2568,-2.274,-2.3162,-2.3274,-2.3266,-2.3309,-2.3384,-2.3483,-2.3766,-2.4284,-2.4556,-2.4535,-2.4451,-2.4242,-2.4022,-2.3572,-2.3219,-2.3194,-2.3186,-2.2645,-2.2097,-2.1852,-2.1667,-2.1537,-2.143,-2.1341,-2.1349,-2.1367,-2.1336,-2.1156,-2.1032,-2.1125,-2.0957,-2.0899,-2.0925,-2.0607,-2.0298,-1.9959,-1.9885,-1.9691,-1.9704,-1.9586,-1.9468,-1.9372,-1.9231,-1.869,-1.8228,-1.8249,-1.8166,-1.7842,-1.7727,-1.7796,-1.7583,-1.7344,-1.7222,-1.7381,-1.7437,-2.4211,-2.4211,-2.4211,-2.4211,-2.4211,-2.4211,-2.4211,-2.4211,-2.4211,-2.435,-2.4538,-2.4597,-2.4597,-2.4597,-2.4597,-2.4597,-2.4599,-2.4461,-2.4416,-2.4284,-2.4117,-2.4032,-2.3758,-2.3512,-2.3463,-2.3438,-2.3334,-2.3309,-2.3348,-2.3506,-2.3525,-2.3483,-2.3538,-2.3617,-2.3627,-2.3637,-2.353,-2.3403,-2.3383,-2.3286,-2.3169,-2.2877,-2.275,-2.2633,-2.2588,-2.2422,-2.2441,-2.2441,-2.2441,-2.2451,-2.2471,-2.2119,-2.2158,-2.2295,-2.2324,-2.2334,-2.251,-2.275,-2.2808,-2.2925,-2.3101,-2.3101,-2.3101,-2.3178,-2.3178,-2.3292,-2.3292,-2.3735,-2.3735,-2.3768,-2.3725,-2.3564,-2.3521,-2.3246,-2.308,-2.307,-2.2816,-2.2378,-2.2058,-2.1909,-2.172,-2.159,-2.1432,-2.1273,-2.1223,-2.0925,-2.0925,-2.0964,-2.0854,-2.0851,-2.0607,-2.0444,-2.0594,-2.0401,-2.0017,-1.9665,-1.9387,-1.9151,-1.9059,-1.9039,-1.9112,-1.8946,-1.8694,-1.8537,-1.8475,-1.856,-1.8403,-1.8112,-1.7998,-1.8114,-1.7791,-1.7417,-1.7332,-1.7287,-1.7379,-2.4211,-2.4211,-2.4211,-2.4211,-2.4211,-2.4211,-2.4211,-2.4211,-2.4211,-2.4211,-2.4251,-2.426,-2.4211,-2.4211,-2.4211,-2.4211,-2.4233,-2.4356,-2.4433,-2.4408,-2.4311,-2.4198,-2.4011,-2.3862,-2.3655,-2.357,-2.3568,-2.3568,-2.3642,-2.3725,-2.3844,-2.4015,-2.4137,-2.4256,-2.4331,-2.4227,-2.3997,-2.3774,-2.3638,-2.3435,-2.3266,-2.312,-2.3062,-2.3071,-2.3101,-2.3101,-2.3081,-2.3071,-2.3071,-2.3033,-2.2945,-2.2643,-2.2529,-2.2676,-2.2672,-2.2711,-2.2799,-2.2984,-2.3052,-2.3052,-2.3101,-2.3101,-2.3101,-2.312,-2.313,-2.313,-2.3174,-2.3164,-2.3208,-2.3188,-2.3188,-2.3178,-2.3144,-2.3144,-2.3023,-2.2964,-2.2607,-2.2268,-2.2122,-2.1995,-2.1848,-2.1711,-2.1514,-2.1348,-2.1113,-2.0791,-2.0674,-2.0635,-2.0654,-2.0721,-2.0658,-2.0518,-2.0481,-2.0219,-1.9915,-1.9636,-1.9329,-1.9323,-1.9292,-1.8998,-1.8819,-1.891,-1.8906,-1.8839,-1.8798,-1.8759,-1.8763,-1.8597,-1.8515,-1.8401,-1.8112,-1.7802,-1.7657,-1.7626,-1.7533,-2.4211,-2.4211,-2.4211,-2.4211,-2.4211,-2.4211,-2.4211,-2.4211,-2.4211,-2.4211,-2.4211,-2.4211,-2.4211,-2.4211,-2.4211,-2.4211,-2.4211,-2.4301,-2.4251,-2.4245,-2.4251,-2.426,-2.4149,-2.3883,-2.3558,-2.3532,-2.3664,-2.3711,-2.3805,-2.3805,-2.3785,-2.3842,-2.386,-2.3898,-2.3888,-2.3879,-2.3991,-2.3847,-2.3761,-2.3608,-2.3233,-2.3117,-2.312,-2.3101,-2.3101,-2.3101,-2.3091,-2.3091,-2.3091,-2.3091,-2.3091,-2.2945,-2.2906,-2.2916,-2.2945,-2.2955,-2.3052,-2.313,-2.3159,-2.3198,-2.3218,-2.3296,-2.3305,-2.3266,-2.3276,-2.3257,-2.3301,-2.3247,-2.3262,-2.3193,-2.3174,-2.3144,-2.3101,-2.3101,-2.3052,-2.3052,-2.29,-2.2637,-2.2432,-2.2285,-2.2139,-2.1992,-2.1846,-2.1699,-2.1562,-2.1289,-2.1103,-2.1035,-2.0762,-2.0732,-2.0752,-2.0585,-2.0476,-2.045,-2.0359,-1.9892,-1.9629,-1.9625,-1.9524,-1.9299,-1.9153,-1.9137,-1.9116,-1.8985,-1.89,-1.8831,-1.8813,-1.8754,-1.8821,-1.8666,-1.8453,-1.8247,-1.8079,-1.7869,-1.7701]},{"header":{"parameterUnit":"m.s-1","parameterCategory":1,"la1":31.0,"la2":29.5877,"lo1":-88.7671,"lo2":-86.6584,"dy":0.0162,"dx":0.0185,"nx":115,"ny":88,"refTime":"2026-04-09T12:00:00:Z","depth":0,"parameterNumber":3,"parameterNumberName":"V-component_of_WINDS"},"data":[0.0,0.0,0.0,0.0,0.0,0.0,0.0,0.0,0.0,0.0,0.0,0.0,0.0,0.0,0.0,0.0,0.0,0.0,0.0,0.0,0.0,0.0,0.0,0.0,0.0,0.0,0.0,0.0,0.0,0.0,0.0,0.0,0.0,0.0,0.0,0.0,0.0,0.0,0.0,0.0,0.0,0.0,0.0,0.0,0.0,0.0,0.0,0.0,0.0,0.0,0.0,0.0,0.0,0.0,0.0,0.0,0.0,0.0,0.0,0.0,0.0,0.0,0.0,0.0,0.0,0.0,0.0,0.0,0.0,0.0,0.0,0.0,0.0,0.0,0.0,0.0,0.0,0.0,0.0,0.0,0.0,0.0,0.0,0.0,0.0,0.0,0.0,0.0,0.0,0.0,0.0,0.0,0.0,0.0,0.0,0.0,0.0,0.0,0.0,0.0,0.0,0.0,0.0,0.0,0.0,0.0,0.0,0.0,0.0,0.0,0.0,0.0,0.0,0.0,0.0,0.0,0.0,0.0,0.0,0.0,0.0,0.0,0.0,0.0,0.0,0.0,0.0,0.0,0.0,0.0,0.0,0.0,0.0,0.0,0.0,0.0,0.0,0.0,0.0,0.0,0.0,0.0,0.0,0.0,0.0,0.0,0.0,0.0,0.0,0.0,0.0,0.0,0.0,0.0,0.0,0.0,0.0,0.0,0.0,0.0,0.0,0.0,0.0,0.0,0.0,0.0,0.0,0.0,0.0,0.0,0.0,0.0,0.0,0.0,0.0,0.0,0.0,0.0,0.0,0.0,0.0,0.0,0.0,0.0,0.0,0.0,0.0,0.0,0.0,0.0,0.0,0.0,0.0,0.0,0.0,0.0,0.0,0.0,0.0,0.0,0.0,0.0,0.0,0.0,0.0,0.0,0.0,0.0,0.0,0.0,0.0,0.0,0.0,0.0,0.0,0.0,0.0,0.0,0.0,0.0,0.0,0.0,0.0,0.0,0.0,0.0,0.0,0.0,0.0,0.0,0.0,0.0,0.0,0.0,0.0,0.0,0.0,0.0,0.0,0.0,0.0,0.0,0.0,0.0,0.0,0.0,0.0,0.0,0.0,0.0,0.0,0.0,0.0,0.0,0.0,0.0,0.0,0.0,0.0,0.0,0.0,0.0,0.0,0.0,0.0,0.0,0.0,0.0,0.0,0.0,0.0,0.0,0.0,0.0,0.0,0.0,0.0,0.0,0.0,0.0,0.0,0.0,0.0,0.0,0.0,0.0,0.0,0.0,0.0,0.0,0.0,0.0,0.0,0.0,0.0,0.0,0.0,0.0,0.0,0.0,0.0,0.0,0.0,0.0,0.0,0.0,0.0,0.0,0.0,0.0,0.0,0.0,0.0,0.0,0.0,0.0,0.0,0.0,0.0,0.0,0.0,0.0,0.0,0.0,0.0,0.0,0.0,0.0,0.0,0.0,0.0,0.0,0.0,0.0,0.0,0.0,0.0,0.0,0.0,0.0,0.0,0.0,0.0,0.0,0.0,0.0,0.0,0.0,0.0,0.0,0.0,0.0,0.0,0.0,0.0,0.0,0.0,0.0,0.0,0.0,0.0,0.0,0.0,0.0,0.0,0.0,0.0,0.0,0.0,0.0,0.0,0.0,0.0,0.0,0.0,0.0,0.0,0.0,0.0,0.0,0.0,0.0,0.0,0.0,0.0,0.0,0.0,0.0,0.0,0.0,0.0,0.0,0.0,0.0,0.0,0.0,0.0,0.0,0.0,0.0,0.0,0.0,0.0,0.0,0.0,0.0,0.0,0.0,0.0,0.0,0.0,0.0,0.0,0.0,0.0,0.0,0.0,0.0,0.0,0.0,0.0,0.0,0.0,0.0,0.0,0.0,0.0,0.0,0.0,0.0,0.0,0.0,0.0,0.0,0.0,0.0,0.0,0.0,0.0,0.0,0.0,0.0,0.0,0.0,0.0,0.0,0.0,0.0,0.0,0.0,0.0,0.0,0.0,0.0,0.0,0.0,0.0,0.0,0.0,0.0,0.0,0.0,0.0,0.0,0.0,0.0,0.0,0.0,0.0,0.0,0.0,0.0,0.0,0.0,0.0,0.0,0.0,0.0,0.0,0.0,0.0,0.0,0.0,0.0,0.0,0.0,0.0,0.0,0.0,0.0,0.0,0.0,0.0,0.0,0.0,0.0,0.0,0.0,0.0,0.0,0.0,0.0,0.0,0.0,0.0,0.0,0.0,0.0,0.0,0.0,0.0,0.0,0.0,0.0,0.0,0.0,0.0,0.0,0.0,0.0,0.0,0.0,0.0,0.0,0.0,0.0,0.0,0.0,0.0,0.0,0.0,0.0,0.0,0.0,0.0,0.0,0.0,0.0,0.0,0.0,0.0,0.0,0.0,0.0,0.0,0.0,0.0,0.0,0.0,0.0,0.0,0.0,0.0,0.0,0.0,0.0,0.0,0.0,0.0,0.0,0.0,0.0,0.0,0.0,0.0,0.0,0.0,0.0,0.0,0.0,0.0,0.0,0.0,0.0,0.0,0.0,0.0,0.0,0.0,0.0,0.0,0.0,0.0,0.0,0.0,0.0,0.0,0.0,0.0,0.0,0.0,0.0,0.0,0.0,0.0,0.0,0.0,0.0,0.0,0.0,0.0,0.0,0.0,0.0,0.0,0.0,0.0,0.0,0.0,0.0,0.0,0.0,0.0,0.0,0.0,0.0,0.0,0.0,0.0,0.0,0.0,0.0,0.0,0.0,0.0,0.0,0.0,0.0,0.0,0.0,0.0,0.0,0.0,0.0,0.0,0.0,0.0,0.0,0.0,0.0,0.0,0.0,0.0,0.0,0.0,0.0,0.0,0.0,0.0,0.0,0.0,0.0,0.0,0.0,0.0,0.0,0.0,0.0,0.0,0.0,0.0,0.0,0.0,0.0,0.0,0.0,0.0,0.0,0.0,0.0,0.0,0.0,0.0,0.0,0.0,0.0,0.0,0.0,0.0,0.0,0.0,0.0,0.0,0.0,0.0,0.0,0.0,0.0,0.0,0.0,0.0,0.0,0.0,0.0,0.0,0.0,0.0,0.0,0.0,0.0,0.0,0.0,0.0,0.0,0.0,0.0,0.0,0.0,0.0,0.0,0.0,0.0,0.0,0.0,0.0,0.0,0.0,0.0,0.0,0.0,0.0,0.0,0.0,0.0,0.0,0.0,0.0,0.0,0.0,0.0,0.0,0.0,0.0,0.0,0.0,0.0,0.0,0.0,0.0,0.0,0.0,0.0,0.0,0.0,0.0,0.0,0.0,0.0,0.0,0.0,0.0,0.0,0.0,0.0,0.0,0.0,0.0,0.0,0.0,0.0,0.0,0.0,0.0,0.0,0.0,0.0,0.0,0.0,0.0,0.0,0.0,0.0,0.0,0.0,0.0,0.0,0.0,0.0,0.0,0.0,0.0,0.0,0.0,0.0,0.0,0.0,0.0,0.0,0.0,0.0,0.0,0.0,0.0,0.0,0.0,0.0,0.0,0.0,0.0,0.0,0.0,0.0,0.0,0.0,0.0,0.0,0.0,0.0,0.0,0.0,0.0,0.0,0.0,0.0,0.0,0.0,0.0,0.0,0.0,0.0,0.0,0.0,0.0,0.0,0.0,0.0,0.0,0.0,0.0,0.0,0.0,0.0,0.0,0.0,0.0,0.0,0.0,0.0,0.0,0.0,0.0,0.0,0.0,0.0,0.0,0.0,0.0,0.0,0.0,0.0,0.0,0.0,0.0,0.0,0.0,0.0,0.0,0.0,0.0,0.0,0.0,0.0,0.0,0.0,0.0,0.0,0.0,0.0,0.0,0.0,0.0,0.0,0.0,0.0,0.0,0.0,0.0,0.0,0.0,0.0,0.0,0.0,0.0,0.0,0.0,0.0,0.0,0.0,0.0,0.0,0.0,0.0,0.0,0.0,0.0,0.0,0.0,0.0,0.0,0.0,0.0,0.0,0.0,0.0,0.0,0.0,0.0,0.0,0.0,0.0,0.0,0.0,0.0,0.0,0.0,0.0,0.0,0.0,0.0,0.0,0.0,0.0,0.0,0.0,0.0,0.0,0.0,0.0,0.0,0.0,0.0,0.0,0.0,0.0,0.0,0.0,0.0,0.0,0.0,0.0,0.0,0.0,0.0,0.0,0.0,0.0,0.0,0.0,0.0,0.0,0.0,0.0,0.0,0.0,0.0,0.0,0.0,0.0,0.0,0.0,0.0,0.0,0.0,0.0,0.0,0.0,0.2435,0.0,0.0,0.0,0.0,0.0,0.0,0.0,0.0,0.0,0.0,0.0,0.0,0.0,0.0,0.0,0.0,0.0,0.0,0.0,0.0,0.0,0.0,0.0,0.0,0.0,0.0,0.0,0.0,0.0,0.0,0.0,0.0,0.0,0.0,0.0,0.0,0.0,0.0,0.0,0.0,0.0,0.0,0.0,0.0,0.0,0.0,0.0,0.0,0.0,0.0,0.0,0.0,0.0,0.0,0.0,0.0,0.0,0.0,0.0,0.0,0.0,0.0,0.0,0.0,0.0,0.0,0.0,0.0,0.0,0.0,0.0,0.0,0.0,0.0,0.0,0.0,0.0,0.0,0.0,0.0,0.0,0.0,0.0,0.0,0.0,0.0,0.0,0.0,0.0,0.0,0.0,0.0,0.0,0.0,0.0,0.0,0.0,0.0,0.0,0.0,0.0,0.0,0.0,0.0,0.0,0.0,0.0,0.0,0.0,0.0,0.2909,0.2907,0.2652,0.2465,0.2326,0.0,0.0,0.0,0.0,0.0,0.0,0.0,0.0,0.0,0.0,0.0,0.0,0.0,0.0,0.0,0.0,0.0,0.0,0.0,0.0,0.0,0.0,0.0,0.0,0.0,0.0,0.0,0.0,0.0,0.0,0.0,0.0,0.0,0.0,0.0,0.0,0.0,0.0,0.0,0.0,0.0,0.0,0.0,0.0,0.0,0.0,0.0,0.0,0.0,0.0,0.0,0.0,0.0,0.0,0.0,0.0,0.0,0.0,0.0,0.0,0.0,0.0,0.0,0.0,0.0,0.0,0.0,0.0,0.0,0.0,0.0,0.0,0.0,0.0,0.0,0.0,0.0,0.0,0.0,0.0,0.0,0.0,0.0,0.0,0.0,0.0,0.0,0.0,0.0,0.0,0.0,0.0,0.0,0.0,0.0,0.0,0.0,0.0,0.0,0.0,0.0,0.0,0.0,0.0,0.0,0.0,0.0,0.0,0.0,0.0,0.0,0.0,0.2696,0.2448,0.218,0.0,0.0,0.0,0.0,0.0,0.0,0.0,0.0,0.0,0.0,0.0,0.0,0.0,0.0,0.0,0.0,0.0,0.0,0.0,0.0,0.0,0.0,0.0,0.0,0.0,0.0,0.0,0.0,0.0,0.0,0.0,0.0,0.0,0.0,0.0,0.0,0.0,0.0,0.0,0.0,0.0,0.0,0.0,0.0,0.0,0.0,0.0,0.0,0.0,0.0,0.0,0.0,0.0,0.0,0.0,0.0,0.0,0.0,0.0,0.0,0.0,0.0,0.0,0.0,0.0,0.0,0.0,0.0,0.0,0.0,0.0,0.0,0.0,0.0,0.0,0.0,0.0,0.0,0.0,0.0,0.0,0.0,0.0,0.0,0.0,0.0,0.0,0.0,0.0,0.0,0.0,0.0,0.0,0.0,0.0,0.0,0.0,0.0,0.0,0.0,0.0,0.0,0.0,0.0,0.0,0.0,0.0,0.0,0.0,0.0,0.2808,0.2976,0.29,0.0,0.2138,0.0,0.0,0.0,0.0,0.0,0.0,0.0,0.0,0.0,0.0,0.0,0.0,0.0,0.0,0.0,0.0,0.0,0.0,0.0,0.0,0.0,0.0,0.0,0.0,0.0,0.0,0.0,0.0,0.0,0.0,0.0,0.0,0.0,0.0,0.0,0.0,0.0,0.0,0.0,0.0,0.0,0.0,0.0,0.0,0.0,0.0,0.0,0.0,0.0,0.0,0.0,0.0,0.0,0.0,0.0,0.0,0.0,0.0,0.0,0.0,0.0,0.0,0.0,0.0,0.0,0.0,0.0,0.0,0.0,0.0,0.0,0.0,0.0,0.0,0.0,0.0,0.0,0.0,0.0,0.0,0.0,0.0,0.0,0.0,0.0,0.0,0.0,0.0,0.0,0.0,0.0,0.0,0.0,0.0,0.0,0.0,0.0,0.0,0.0,0.0,0.0,0.0,0.0,0.0,0.0,0.0,0.0,0.0,0.0,0.0,0.2876,0.2997,0.2837,0.2521,0.0,0.0,0.0,0.0,0.0,0.0,0.0,0.0,0.0,0.0,0.0,0.0,0.0,0.0,0.0,0.0,0.0,0.0,0.0,0.0,0.0,0.0,0.0,0.0,0.0,0.0,0.0,0.0,0.0,0.0,0.0,0.0,0.0,0.0,0.0,0.0,0.0,0.0,0.0,0.0,0.0,0.0,0.0,0.0,0.0,0.0,0.0,0.0,0.0,0.0,0.0,0.0,0.0,0.0,0.0,0.0,0.0,0.0,0.0,0.0,0.0,0.0,0.0,0.0,0.0,0.0,0.0,0.0,0.0,0.0,0.0,0.0,0.0,0.0,0.0,0.0,0.0,0.0,0.0,0.0,0.0,0.0,0.0,0.0,0.0,0.0,0.0,0.0,0.0,0.0,0.0,0.0,0.0,0.0,0.0,0.0,0.0,0.0,0.0,0.0,0.0,0.0,0.0,0.0,0.0,0.0,0.0,0.0,0.0,0.0,0.2811,0.2889,0.2981,0.2787,0.246,0.2078,0.0,0.0,0.0,0.0,0.0,0.0,0.0,0.0,0.0,0.0,0.0,0.0,0.0,0.0,0.0,0.0,0.0,0.0,0.0,0.0,0.0,0.0,0.0,0.0,0.0,0.0,0.0,0.0,0.0,0.0,0.0,0.0,0.0,0.0,0.0,0.0,0.0,0.0,0.0,0.0,0.0,0.0,0.0,0.0,0.0,0.0,0.0,0.0,0.0,0.0,0.0,0.0,0.0,0.0,0.0,0.0,0.0,0.0,0.0,0.0,0.0,0.0,0.0,0.0,0.0,0.0,0.0,0.0,0.0,0.0,0.0,0.0,0.0,0.0,0.0,0.0,0.0,0.0,0.0,0.0,0.0,0.0,0.0,0.0,0.0,0.0,0.0,0.0,0.0,0.0,0.0,0.0,0.0,0.0,0.0,0.0,0.0,0.0,0.0,0.0,0.0,0.0,0.0,0.0,0.0,0.0,0.0,0.0,0.2849,0.2769,0.2808,0.2994,0.2869,0.254,0.0,0.0,0.0,0.0,0.0,0.0,0.0,0.0,0.0,0.0,0.0,0.0,0.0,0.0,0.0,0.0,0.0,0.0,0.0,0.0,0.0,0.0,0.0,0.0,0.0,0.0,0.0,0.0,0.0,0.0,0.0,0.0,0.0,0.0,0.0,0.0,0.0,0.0,0.0,0.0,0.0,0.0,0.0,0.0,0.0,0.0,0.0,0.0,0.0,0.0,0.0,0.0,0.0,0.0,0.0,0.0,0.0,0.0,0.0,0.0,0.0,0.0,0.0,0.0,0.0,0.0,0.0,0.0,0.0,0.0,0.0,0.0,0.0,0.0,0.0,0.0,0.0,0.0,0.0,0.0,0.0,0.0,0.0,0.0,0.0,0.0,0.0,0.0,0.0,0.0,0.0,0.0,0.0,0.0,0.0,0.0,0.0,0.0,0.0,0.0,0.0,0.0,0.0,0.0,0.0,0.0,0.0,0.0,0.0,0.2514,0.2629,0.2967,0.352,0.2948,0.2633,0.0,0.0,0.0,0.0,0.0,0.0,0.0,0.0,0.0,0.0,0.0,0.0,0.0,0.0,0.0,0.0,0.0,0.0,0.0,0.0,0.0,0.0,0.0,0.0,0.0,0.0,0.0,0.0,0.0,0.0,0.0,0.0,0.0,0.0,0.0,0.0,0.0,0.0,0.0,0.0,0.0,0.0,0.0,0.0,0.0,0.0,0.0,0.0,0.0,0.0,0.0,0.0,0.0,0.0,0.0,0.0,0.0,0.0,0.0,0.0,0.0,0.0,0.0,0.0,0.0,0.0,0.0,0.0,0.0,0.0,0.0,0.0,0.0,0.0,0.0,0.0,0.0,0.0,0.0,0.0,0.0,0.0,0.0,0.0,0.0,0.0,0.0,0.0,0.0,0.0,0.0,0.0,0.0,0.0,0.0,0.0,0.0,0.0,0.0,0.0,0.0,0.0,0.0,0.0,0.0,0.0,0.0,0.0,0.0,0.2675,0.0,0.3485,0.3846,0.3159,0.2736,0.0,0.0,0.0,0.0,0.0,0.0,0.0,0.0,0.0,0.0,0.0,0.0,0.0,0.0,0.0,0.0,0.0,0.0,0.0,0.0,0.0,0.0,0.0,0.0,0.0,0.0,0.0,0.0,0.0,0.0,0.0,0.0,0.0,0.0,0.0,0.0,0.0,0.0,0.0,0.0,0.0,0.0,0.0,0.0,0.0,0.0,0.0,0.0,0.0,0.0,0.0,0.0,0.0,0.0,0.0,0.0,0.0,0.0,0.0,0.0,0.0,0.0,0.0,0.0,0.0,0.0,0.0,0.0,0.0,0.0,0.0,0.0,0.0,0.0,0.0,0.0,0.0,0.0,0.0,0.0,0.0,0.0,0.0,0.0,0.0,0.0,0.0,0.0,0.0,0.0,0.0,0.0,0.0,0.0,0.0,0.0,0.0,0.0,0.0,0.0,0.0,0.0,0.0,0.0,0.0,0.0,0.0,0.0,0.259,0.3475,0.4093,0.425,0.3921,0.3507,0.2887,0.0,0.0,0.0,0.0,0.0,0.0,0.0,0.0,0.0,0.0,0.0,0.0,0.0,0.0,0.0,0.0,0.0,0.0,0.0,0.0,0.0,0.0,0.0,0.0,0.0,0.0,0.0,0.0,0.0,0.0,0.0,0.0,0.0,0.0,0.0,0.0,0.0,0.0,0.0,0.0,0.0,0.0,0.0,0.0,0.0,0.0,0.0,0.0,0.0,0.0,0.0,0.0,0.0,0.0,0.0,0.0,0.0,0.0,0.0,0.0,0.0,0.0,0.0,0.0,0.0,0.0,0.0,0.0,0.0,0.0,0.0,0.0,0.0,0.0,0.0,0.0,0.0,0.0,0.0,0.0,0.0,0.0,0.0,0.0,0.0,0.0,0.0,0.0,0.0,0.0,0.0,0.0,0.0,0.0,0.0,0.0,0.0,0.0,0.0,0.0,0.0,0.0,0.0,0.0,0.0,0.0,0.0,0.0,0.0,0.3565,0.39,0.4314,0.4719,0.3824,0.3298,0.0,0.0,0.0,0.0,0.0,0.0,0.0,0.0,0.0,0.0,0.0,0.0,0.0,0.0,0.0,0.0,0.0,0.0,0.0,0.0,0.0,0.0,0.0,0.0,0.0,0.0,0.0,0.0,0.0,0.0,0.0,0.0,0.0,0.0,0.0,0.0,0.0,0.0,0.0,0.0,0.0,0.0,0.0,0.0,0.0,0.0,0.0,0.0,0.0,0.0,0.0,0.0,0.0,0.0,0.0,0.0,0.0,0.0,0.0,0.0,0.0,0.0,0.0,0.0,0.0,0.0,0.0,0.0,0.0,0.0,0.0,0.0,0.0,0.0,0.0,0.0,0.0,0.0,0.0,0.0,0.0,0.0,0.0,0.0,0.0,0.0,0.0,0.0,0.0,0.0,0.0,0.0,0.0,0.0,0.0,0.0,0.0,0.0,0.0,0.0,0.0,0.0,0.0,0.0,0.0,0.0,0.0,0.0,0.0,0.4244,0.4572,0.4924,0.5232,0.4301,0.3728,0.3628,0.0,0.0,0.0,0.0,0.0,0.0,0.0,0.0,0.0,0.0,0.0,0.0,0.0,0.0,0.0,0.0,0.0,0.0,0.0,0.0,0.0,0.0,0.0,0.0,0.0,0.0,0.0,0.0,0.0,0.0,0.0,0.0,0.0,0.0,0.0,0.0,0.0,0.0,0.0,0.0,0.0,0.0,0.0,0.0,0.0,0.0,0.0,0.0,0.0,0.0,0.0,0.0,0.0,0.0,0.0,0.0,0.0,0.0,0.0,0.0,0.0,0.0,0.0,0.0,0.0,0.0,0.0,0.0,0.0,0.0,0.0,0.0,0.0,0.0,0.0,0.0,0.0,0.0,0.0,0.0,0.0,0.0,0.0,0.0,0.0,0.0,0.0,0.0,0.0,0.0,0.0,0.0,0.0,0.0,0.0,0.0,0.0,0.0,0.0,0.0,0.0,0.0,0.0,0.0,0.0,0.0,0.0,0.0,0.5301,0.5885,0.5904,0.5344,0.4869,0.4184,0.0,0.0,0.0,0.0,0.0,0.0,0.0,0.0,0.0,0.0,0.0,0.0,0.0,0.0,0.0,0.0,0.0,0.0,0.0,0.0,0.0,0.0,0.0,0.0,0.0,0.0,0.0,0.0,0.0,0.0,0.0,0.0,0.0,0.0,0.0,0.0,0.0,0.0,0.0,0.0,0.0,0.0,0.0,0.0,0.0,0.0,0.0,0.0,0.0,0.0,0.0,0.0,0.0,0.0,0.0,0.0,0.0,0.0,0.0,0.0,0.0,0.0,0.0,0.0,0.0,0.0,0.0,0.0,0.0,0.0,0.0,0.0,0.0,0.0,0.0,0.0,0.0,0.0,0.0,0.0,0.0,0.0,0.0,0.0,0.0,0.0,0.0,0.0,0.0,0.0,0.0,0.0,0.0,0.0,0.0,0.0,0.0,0.0,0.0,0.0,0.0,0.0,0.0,0.0,0.0,0.0,0.0,0.0,0.0,0.5524,0.596,0.605,0.5741,0.5046,0.4418,0.0,0.0,0.0,0.0,0.0,0.0,0.0,0.0,0.0,0.0,0.0,0.0,0.0,0.0,0.0,0.0,0.0,0.0,0.0,0.0,0.0,0.0,0.0,0.0,0.0,0.0,0.0,0.0,0.0,0.0,0.0,0.0,0.0,0.0,0.0,0.0,0.0,0.0,0.0,0.0,0.0,0.0,0.0,0.0,0.0,0.0,0.0,0.0,0.0,0.0,0.0,0.0,0.0,0.0,0.0,0.0,0.0,0.0,0.0,0.0,0.0,0.0,0.0,0.0,0.0,0.0,0.0,0.0,0.0,0.0,0.0,0.0,0.0,0.0,0.0,0.0,0.0,0.0,0.0,0.0,0.0,0.0,0.0,0.0,0.0,0.0,0.0,0.0,0.0,0.0,0.0,0.0,0.0,0.0,0.0,0.0,0.0,0.0,0.0,0.0,0.0,0.0,0.0,0.0,0.0,0.0,0.0,0.0,0.5253,0.5697,0.6036,0.6097,0.589,0.5358,0.4796,0.0,0.0,0.0,0.0,0.0,0.0,0.0,0.0,0.0,0.0,0.0,0.0,0.0,0.0,0.0,0.0,0.0,0.0,0.0,0.0,0.0,0.0,0.0,0.0,0.0,0.0,0.0,0.0,0.0,0.0,0.0,0.0,0.0,0.0,0.0,0.0,0.0,0.0,0.0,0.0,0.0,0.0,0.0,0.0,0.0,0.0,0.0,0.0,0.0,0.0,0.0,0.0,0.0,0.0,0.0,0.0,0.0,0.0,0.0,0.0,0.0,0.0,0.0,0.0,0.0,0.0,0.0,0.0,0.0,0.0,0.0,0.0,0.0,0.0,0.0,0.0,0.0,0.0,0.0,0.0,0.0,0.0,0.0,0.0,0.0,0.0,0.0,0.0,0.0,0.0,0.0,0.0,0.0,0.0,0.0,0.0,0.0,0.0,0.0,0.0,0.0,0.0,0.0,0.0,0.0,0.0,0.0,0.0,0.5301,0.5838,0.6083,0.6087,0.5883,0.5679,0.5134,0.0,0.0,0.0,0.0,0.0,0.0,0.0,0.0,0.0,0.0,0.0,0.0,0.0,0.0,0.0,0.0,0.0,0.0,0.0,0.0,0.0,0.0,0.0,0.0,0.0,0.0,0.0,0.0,0.0,0.0,0.0,0.0,0.0,0.0,0.0,0.0,0.0,0.0,0.0,0.0,0.0,0.0,0.0,0.0,0.0,0.0,0.0,0.0,0.0,0.0,0.0,0.0,0.0,0.0,0.0,0.0,0.0,0.0,0.0,0.0,0.0,0.0,0.0,0.0,0.0,0.0,0.0,0.0,0.0,0.0,0.0,0.0,0.0,0.0,0.0,0.0,0.0,0.0,0.0,0.0,0.0,0.0,0.0,0.0,0.0,0.0,0.0,0.0,0.0,0.0,0.0,0.0,0.0,0.0,0.0,0.0,0.0,0.0,0.0,0.0,0.0,0.0,0.0,0.0,0.0,0.0,0.0,0.0,0.5396,0.5675,0.6012,0.6026,0.5655,0.5467,0.5068,0.0,0.0,0.0,0.0,0.0,0.0,0.0,0.0,0.0,0.0,0.0,0.0,0.0,0.0,0.0,0.0,0.0,0.0,0.0,0.0,0.0,0.0,0.0,0.0,0.0,0.0,0.0,0.0,0.0,0.0,0.0,0.0,0.0,0.0,0.0,0.0,0.0,0.0,0.0,0.0,0.0,0.0,0.0,0.0,0.0,0.0,0.0,0.0,0.0,0.0,0.0,0.0,0.0,0.0,0.0,0.0,0.0,0.0,0.0,0.0,0.0,0.0,0.0,0.0,0.0,0.0,0.0,0.0,0.0,0.0,0.0,0.0,0.0,0.0,0.0,0.0,0.0,0.0,0.0,0.0,0.0,0.0,0.0,0.0,0.0,0.0,0.0,0.0,0.0,0.0,0.0,0.0,0.0,0.0,0.0,0.0,0.0,0.0,0.0,0.0,0.0,0.0,0.0,0.0,0.0,0.0,0.0,0.0,0.55,0.5866,0.6087,0.605,0.5735,0.5547,0.5123,0.0,0.0,0.0,0.0,0.0,0.0,0.0,0.0,0.0,0.0,0.0,0.0,0.0,0.0,0.0,0.0,0.0,0.0,0.0,0.0,0.0,0.0,0.0,0.0,0.0,0.0,0.0,0.0,0.0,0.0,0.0,0.0,0.0,0.0,0.0,0.0,0.0,0.0,0.0,0.0,0.0,0.0,0.0,0.0,0.0,0.0,0.0,0.0,0.0,0.0,0.0,0.0,0.0,0.0,0.0,0.0,0.0,0.0,0.0,0.0,0.0,0.0,0.0,0.0,0.0,0.0,0.0,0.0,0.0,0.0,0.0,0.0,0.0,0.0,0.0,0.0,0.0,0.0,0.0,0.0,0.0,0.0,0.0,0.0,0.0,0.0,0.0,0.0,0.0,0.0,0.0,0.0,0.0,0.0,0.0,0.0,0.0,0.0,0.0,0.0,0.0,0.0,0.0,0.0,0.0,0.0,0.0,0.5094,0.559,0.6116,0.6186,0.6087,0.5868,0.5698,0.5221,0.4442,0.0,0.0,0.0,0.0,0.0,0.0,0.0,0.0,0.0,0.0,0.0,0.0,0.0,0.0,0.0,0.0,0.0,0.0,0.0,0.0,0.0,0.0,0.0,0.0,0.0,0.0,0.0,0.0,0.0,0.0,0.0,0.0,0.0,0.0,0.0,0.0,0.0,0.0,0.0256,0.0435,0.0,0.0,0.0,0.0,0.0,0.0,0.0,0.0,0.006,0.0,0.0,0.0,0.0,0.0,0.0,0.0,0.0,0.0,0.0,0.0,0.0,0.0,0.0,0.0,0.0,0.0,0.0,0.0,0.0,0.0,0.0,0.0,0.0,0.0,0.0,0.0,0.0,0.0,0.0,0.0,0.0,0.0,0.0,0.0,0.0,0.0,0.0,0.0,0.0,0.0,0.0,0.0,0.0,0.0,0.0,0.0,0.0,0.0,0.0,0.0,0.0,0.0,0.0,0.0,0.0,0.494,0.5188,0.5504,0.5949,0.6111,0.6022,0.5679,0.5628,0.5216,0.4447,0.0,0.0,0.0,0.0,0.0,0.0,0.0,0.0,0.0,0.0,0.0,0.0,0.0,0.0,0.0,0.0,0.0,0.0,0.0,0.0,0.0,0.0,0.0,0.0,0.0,0.0,0.0,0.0,0.0,0.0,0.0,0.0,0.0,0.0,0.0,0.0,0.0,0.0,0.0,0.0976,0.1001,0.0,0.0,0.0,0.0,0.0,0.0,0.0,0.0,0.0361,0.0,0.0,0.0,0.0,0.0,0.0,0.0,0.0,0.0,0.0,0.0,0.0,0.0,0.0,0.0,0.0,0.0,0.0,0.0,0.0,0.0,0.0,0.0,0.0,0.0,0.0,0.0,0.0,0.0,0.0,0.0,0.0,0.0,0.0,0.0,0.0,0.0,0.0,0.0,0.0,0.0,0.0,0.0,0.0,0.0,0.0,0.0,0.0,0.0,0.0,0.0,0.0,0.0,0.0,0.0,0.539,0.6012,0.642,0.6628,0.694,0.6754,0.6108,0.6118,0.5737,0.0,0.0,0.0,0.0,0.0,0.0,0.0,0.0,0.0,0.0,0.0,0.0,0.0,0.0,0.0,0.0,0.0,0.0,0.0,0.0,0.0,0.0,0.0,0.0,0.0,0.0,0.0,0.0,0.0,0.0,0.0,0.0,0.0,0.0,0.0,0.0,0.0,0.0,0.0,0.0,0.1093,0.1159,0.1346,0.0,0.0,0.0,0.0,0.0,0.0,0.0376,0.0399,0.0,0.0,0.0,0.0,0.0,0.0,0.0,0.0,0.0,0.0,0.0,0.0,0.0,0.0,0.0,0.0,0.0,0.0,0.0,0.0,0.0,0.0,0.0,0.0,0.0,0.0,0.0,0.0,0.0,0.0,0.0,0.0,0.0,0.0,0.0,0.0,0.0,0.0,0.0,0.0,0.0,0.0,0.0,0.0,0.0,0.0,0.0,0.0,0.0,0.0,0.0,0.0,0.0,0.0,0.0,0.5778,0.6736,0.7281,0.7374,0.7629,0.7418,0.6652,0.6678,0.6223,0.0,0.0,0.0,0.0,0.0,0.0,0.0,0.0,0.0,0.0,0.0,0.0,0.0,0.0,0.0,0.0,0.0,0.0,0.0,0.0,0.0,0.0,0.0,0.0,0.0,0.0,0.0,0.0,0.0,0.0,0.0,0.0,0.0,0.0,0.0,0.0,0.0,0.0,0.0,0.0,0.0,0.1271,0.1483,0.1266,0.0,0.0,0.0,0.0,0.034,0.0526,0.0,0.0,0.0,0.0,0.0,0.0,0.0,0.0,0.0,0.0,0.0,0.0,0.0,0.0,0.0,0.0,0.0,0.0,0.0,0.0,0.0,0.0,0.0,0.0,0.0,0.0,0.0,0.0,0.0,0.0,0.0,0.0,0.0,0.0,0.0,0.0,0.0,0.0,0.0,0.0,0.0,0.0,0.0,0.0,0.0,0.0,0.0,0.0,0.0,0.0,0.0,0.0,0.0,0.0,0.0,0.0,0.5622,0.6562,0.7203,0.7532,0.7492,0.7311,0.7032,0.6817,0.6223,0.0,0.0,0.0,0.0,0.0,0.0,0.0,0.0,0.0,0.0,0.0,0.0,0.0,0.0,0.0,0.0,0.0,0.0,0.0,0.0,0.0,0.0,0.0,0.0,0.0,0.0,0.0,0.0,0.0,0.0,0.0,0.0,0.0,0.0,0.0,0.0,0.0,0.0,0.0,0.0,0.0,0.1439,0.1187,0.1134,0.1084,0.0,0.0,0.0975,0.1353,0.1341,0.0,0.0,0.0,0.0,0.0,0.0,0.0,0.0,0.0,0.0,0.0,0.0,0.0,0.0,0.0,0.0,0.0,0.0,0.0,0.0,0.0,0.0,0.0,0.0,0.0,0.0,0.0,0.0,0.0,0.0,0.0,0.0,0.0,0.0,0.0,0.0,0.0,0.0,0.0,0.0,0.0,0.0,0.0,0.0,0.0,0.0,0.0,0.0,0.0,0.0,0.0,0.0,0.0,0.0,0.0,0.5598,0.6343,0.7397,0.7967,0.7942,0.8107,0.7925,0.7392,0.7308,0.6825,0.0,0.0,0.0,0.0,0.0,0.0,0.0,0.0,0.0,0.0,0.0,0.0,0.0,0.0,0.0,0.0,0.0,0.0,0.0,0.0,0.0,0.0,0.0,0.0,0.0,0.0,0.0,0.0,0.0,0.0,0.0,0.0,0.0,0.0,0.0,0.0,0.0,0.0,0.0,0.0,0.0,0.0,0.1389,0.1228,0.0,0.0,0.0,0.1161,0.1289,0.0,0.0,0.0,0.0,0.0,0.0,0.0,0.0,0.0,0.0,0.0,0.0,0.0,0.0,0.0,0.0,0.0,0.0,0.0,0.0,0.0,0.0,0.0,0.0,0.0,0.0,0.0,0.0,0.0,0.0,0.0,0.0,0.0,0.0,0.0,0.0,0.0,0.0,0.0,0.0,0.0,0.0,0.0,0.0,0.0,0.0,0.0,0.0,0.0,0.0,0.0,0.0,0.0,0.0,0.0,0.0,0.0,0.6872,0.8082,0.858,0.8323,0.8584,0.8451,0.7855,0.7715,0.0,0.0,0.0,0.0,0.0,0.0,0.0,0.0,0.0,0.0,0.0,0.0,0.0,0.0,0.0,0.0,0.0,0.0,0.0,0.0,0.0,0.0,0.0,0.0,0.0,0.0,0.0,0.0844,0.0,0.0,0.0,0.0,0.0,0.0,0.0,0.0,0.0,0.0,0.0,0.0,0.0,0.0,0.15,0.1628,0.1475,0.1434,0.0,0.0,0.142,0.1408,0.1659,0.1662,0.0,0.0,0.0,0.0,0.0,0.0,0.0,0.0,0.0,0.0,0.0,0.0,0.0,0.0,0.0,0.0,0.0,0.0,0.0,0.0,0.0,0.0,0.0,0.0,0.0,0.0,0.0,0.0,0.0,0.0,0.0,0.0,0.0,0.0,0.0,0.0,0.0,0.0,0.0,0.0,0.0,0.0,0.0,0.0,0.0,0.0,0.0,0.0,0.0,0.0,0.0,0.0,0.0,0.0,0.6266,0.6815,0.8044,0.8694,0.8659,0.857,0.8481,0.8429,0.7832,0.72,0.0,0.0,0.0,0.0,0.0,0.0,0.0,0.0,0.0,0.0,0.0,0.0,0.0,0.0,0.0,0.0,0.0,0.0,0.0,0.0,0.0,0.0,0.0,0.0,0.0,0.0,0.0,0.0,0.0,0.0,0.0,0.0,0.0,0.0,0.0,0.0,0.0,0.0,0.0,0.0,0.0,0.162,0.1772,0.1877,0.2068,0.0,0.2048,0.1864,0.2175,0.2137,0.1841,0.1187,0.0,0.0,0.0,0.0,0.0,0.0,0.0,0.0,0.0,0.0,0.0,0.0,0.0,0.0,0.0,0.0,0.0,0.0,0.0,0.0,0.0,0.0,0.0,0.0,0.0,0.0,0.0,0.0,0.0,0.0,0.0,0.0,0.0,0.0,0.0,0.0,0.0,0.0,0.0,0.0,0.0,0.0,0.0,0.0,0.0,0.0,0.0,0.0,0.0,0.0,0.0,0.0,0.0,0.6471,0.7057,0.8031,0.8482,0.8398,0.8348,0.8269,0.819,0.7744,0.7273,0.0,0.0,0.0,0.0,0.0,0.0,0.0,0.0,0.0,0.0,0.0,0.0,0.0,0.0,0.0,0.0,0.0,0.0,0.0,0.0,0.0,0.0,0.0,0.0,0.0,0.0,0.0,0.0,0.1471,0.1284,0.1095,0.0,0.0,0.0,0.0,0.0,0.0,0.0,0.0,0.0,0.0,0.1878,0.1813,0.1915,0.0,0.0,0.2209,0.2066,0.226,0.2333,0.2189,0.1737,0.1484,0.0,0.0,0.0,0.0,0.0,0.0,0.0,0.0,0.0,0.0,0.0,0.0,0.0,0.0,0.0,0.0,0.0,0.0,0.0,0.0,0.0,0.0,0.0,0.0,0.0,0.0,0.0,0.0,0.0,0.0,0.0,0.0,0.0,0.0,0.0,0.0,0.0,0.0,0.0,0.0,0.0,0.0,0.0,0.0,0.0,0.0,0.0,0.0,0.0,0.0,0.0,0.0,0.6514,0.7227,0.7893,0.8221,0.827,0.827,0.8154,0.7957,0.7613,0.7264,0.0,0.0,0.0,0.0,0.0,0.0,0.0,0.0,0.0,0.0,0.0,0.0,0.0,0.0,0.0,0.0,0.0,0.0,0.0,0.0,0.0,0.0,0.0,0.0,0.0,0.0,0.0,0.0,0.1824,0.1487,0.1049,0.0,0.0,0.0,0.0,0.0,0.0,0.0,0.0,0.0,0.0,0.2515,0.248,0.2435,0.2511,0.2734,0.2504,0.2305,0.2358,0.2433,0.2363,0.1946,0.0,0.0,0.0,0.0,0.0,0.0,0.0,0.0,0.0,0.0,0.0,0.0,0.0,0.0,0.0,0.0,0.0,0.0,0.0,0.0,0.0,0.0,0.0,0.0,0.0,0.0,0.0,0.7574,0.0,0.0,0.7531,0.0,0.0,0.0,0.0,0.0,0.0,0.0,0.0,0.0,0.0,0.0,0.0,0.0,0.0,0.0,0.0,0.0,0.0,0.0,0.0,0.0,0.0,0.6323,0.7267,0.7674,0.8004,0.8378,0.8394,0.8214,0.7826,0.7489,0.7097,0.67,0.0,0.0,0.0,0.0,0.0,0.0,0.0,0.0,0.0,0.0,0.0,0.0,0.0,0.0,0.0,0.0,0.0,0.0,0.0,0.0,0.0,0.0,0.0,0.0,0.0,0.0,0.237,0.2032,0.1598,0.0,0.0,0.0,0.0,0.0,0.0,0.0,0.0,0.0,0.0,0.3535,0.3608,0.3955,0.363,0.3331,0.3356,0.2973,0.2642,0.2537,0.252,0.2289,0.0,0.0,0.0,0.0,0.0,0.0,0.0,0.0,0.0,0.0,0.0,0.0,0.0,0.0,0.0,0.0,0.0,0.0,0.0,0.0,0.0,0.0,0.0,0.0,0.0,0.0,0.0,0.9909,0.9082,0.0,0.0,0.0,0.0,0.0,0.0,0.0,0.0,0.0,0.0,0.0,0.9667,1.0357,0.0,0.0,0.0,0.0,0.0,0.0,0.0,0.0,0.0,0.0,0.0,0.0,0.6753,0.7293,0.7888,0.8246,0.8394,0.8394,0.8338,0.819,0.761,0.691,0.6125,0.0,0.0,0.0,0.0,0.0,0.0,0.0,0.0,0.0,0.0,0.0,0.0,0.0,0.0,0.0,0.0,0.0,0.0,0.0,0.0,0.0,0.0,0.0,0.0,0.0,0.2794,0.0,0.0,0.0,0.0,0.0,0.0,0.0,0.0,0.0,0.0,0.0,0.3319,0.3533,0.3575,0.3588,0.3622,0.3307,0.3068,0.0,0.0,0.0,0.0,0.0,0.0,0.0,0.0,0.0,0.0,0.0,0.0,0.0,0.0,0.176,0.1029,0.0732,0.0511,0.0219,0.0,0.0,0.0,0.0,0.0,0.0,0.0,0.0,0.0,0.0,0.0,0.0,0.0,0.0,1.166,0.0,1.0756,0.0,0.0,0.0,0.0,0.0,0.0,0.0,0.0,1.1255,1.1628,1.1113,1.173,1.1609,0.0,1.0605,0.9798,0.0,0.0,0.0,0.0,0.0,0.0,0.0,0.0,0.6911,0.7449,0.7944,0.8246,0.8386,0.8394,0.833,0.8194,0.7481,0.6752,0.601,0.572,0.5462,0.0,0.0,0.0,0.0,0.0,0.0,0.0,0.0,0.0,0.0,0.0,0.0,0.0,0.0,0.0,0.0,0.0,0.0,0.0,0.0,0.0,0.0,0.0,0.3099,0.0,0.0,0.0,0.0,0.0,0.0,0.0,0.0,0.0,0.2884,0.3467,0.4015,0.4272,0.424,0.4144,0.3984,0.0,0.0,0.0,0.0,0.0,0.0,0.0,0.2858,0.2982,0.2895,0.265,0.225,0.2231,0.2226,0.2024,0.0,0.0,0.1534,0.1215,0.0924,0.0504,0.0073,-0.0338,-0.0659,-0.0865,-0.099,0.0,0.0,0.0,0.0,0.0,0.0,0.0,0.0,1.3051,1.3276,0.0,1.2779,0.0,0.0,0.0,0.0,0.0,1.1249,0.0,0.0,1.3064,1.329,1.3166,1.3051,1.2955,1.2945,1.2998,1.2614,1.1657,0.8765,0.0,0.0,0.0,0.0,0.0,0.0,0.6857,0.7804,0.7857,0.8016,0.8406,0.8394,0.8206,0.7822,0.718,0.6673,0.6339,0.6299,0.5981,0.5275,0.5227,0.0,0.0,0.0,0.0,0.0,0.0,0.0,0.0,0.0,0.0,0.0,0.0,0.0,0.0,0.0,0.0,0.0,0.0,0.0,0.0,0.3269,0.0,0.0,0.0,0.0,0.0,0.0,0.0,0.0,0.0,0.0,0.4317,0.4356,0.4693,0.5632,0.0,0.0,0.0,0.0,0.3792,0.3454,0.3126,0.2884,0.2786,0.312,0.3306,0.3083,0.0,0.0,0.2849,0.2869,0.2825,0.226,0.2357,0.2456,0.2236,0.192,0.1499,0.0889,0.0434,-0.0018,-0.0439,-0.056,-0.0619,1.7026,0.0,0.0,0.0,0.0,1.54,1.5564,1.5725,1.6078,1.5735,1.4843,1.4799,0.0,0.0,0.0,0.0,0.0,0.0,1.3474,1.359,1.4474,1.4786,1.4658,1.4552,1.4307,1.3969,1.3661,1.3206,1.2526,1.1357,0.9685,0.7669,0.0,0.0,0.0,0.0,0.8469,0.8519,0.861,0.8604,0.8488,0.8427,0.8198,0.7822,0.7605,0.7243,0.6681,0.6657,0.649,0.6159,0.5904,0.0,0.0,0.0,0.0,0.0,0.0,0.0,0.0,0.0,0.0,0.0,0.0,0.0,0.0,0.0,0.0,0.0,0.0,0.0,0.3549,0.3598,0.3659,0.0,0.0,0.0,0.0,0.0,0.0,0.0,0.0,0.0,0.5436,0.5519,0.5423,0.0,0.0,0.5178,0.4452,0.4246,0.4032,0.3612,0.3472,0.0,0.3678,0.3517,0.3545,0.3929,0.3909,0.3695,0.3269,0.3246,0.322,0.3046,0.2886,0.2764,0.2689,0.2354,0.1929,0.1535,0.1055,0.0555,0.0134,-0.0214,-0.0492,1.9948,1.8473,1.7361,1.7147,1.7531,1.7433,1.7493,1.77,1.7724,1.7327,1.6692,1.6657,1.5887,1.4594,1.4039,0.0,0.0,0.0,1.5107,1.5292,1.5865,1.6018,1.5847,1.565,1.5372,1.5002,1.4354,1.3941,1.3761,1.2957,1.1617,0.9848,0.0,0.0,0.8755,0.9376,0.965,0.9578,0.9351,0.9156,0.8931,0.8663,0.8375,0.8087,0.7853,0.7527,0.7134,0.6909,0.6784,0.6727,0.6318,0.589,0.0,0.0,0.0,0.0,0.0,0.0,0.0,0.0,0.0,0.0,0.0,0.3181,0.2662,0.0,0.0,0.0,0.3736,0.4197,0.456,0.4603,0.0,0.0,0.0,0.0,0.0,0.0,0.0,0.4736,0.5086,0.545,0.5944,0.6088,0.597,0.549,0.5572,0.5426,0.4679,0.0,0.4444,0.3991,0.3895,0.3919,0.4084,0.3917,0.3974,0.4548,0.4473,0.4192,0.3884,0.3796,0.3748,0.3593,0.3309,0.3112,0.3109,0.2767,0.2362,0.1945,0.155,0.1114,0.0702,0.0207,-0.0186,2.2214,2.1588,1.996,1.923,1.9119,1.9119,1.8843,1.8398,1.835,1.8326,1.8326,1.8277,1.7965,1.7387,1.6242,0.0,1.6456,1.6433,1.6752,1.7312,1.7213,1.705,1.6798,1.6514,1.6241,1.6052,1.5092,1.4761,1.5026,1.3852,1.3036,1.2648,1.167,1.1152,1.1043,1.0669,1.0634,1.0886,1.0169,0.9739,0.9649,0.9031,0.8675,0.8525,0.7969,0.7645,0.7621,0.7136,0.6928,0.7071,0.6553,0.618,0.5987,0.0,0.0,0.0,0.0,0.0,0.0,0.0,0.0,0.0,0.0,0.0,0.0,0.0,0.0,0.0,0.4786,0.0,0.5734,0.5866,0.0,0.0,0.0,0.4855,0.4583,0.4784,0.4944,0.4936,0.0,0.0,0.6041,0.6252,0.6367,0.6227,0.6105,0.5841,0.5356,0.5221,0.5005,0.4548,0.4435,0.4331,0.4297,0.4362,0.4539,0.4828,0.4985,0.481,0.4456,0.4368,0.4254,0.399,0.366,0.3442,0.3442,0.3164,0.2751,0.2246,0.1956,0.1671,0.1245,0.0666,0.02,2.2955,2.2742,2.1922,2.1076,2.0225,2.0225,2.0125,1.9969,1.9588,1.9408,1.9411,1.9001,1.8506,1.8013,1.7687,1.7626,1.7758,1.7746,1.7994,1.837,1.7873,1.7664,1.7733,1.7119,1.6767,1.6561,1.584,1.5365,1.5091,1.4779,1.4397,1.3954,1.3693,1.2915,1.1684,1.1996,1.2119,1.1943,1.1618,1.0965,1.0083,0.9327,0.8915,0.8866,0.843,0.8085,0.7832,0.7548,0.7289,0.7041,0.6892,0.6574,0.6024,0.5871,0.0,0.0,0.0,0.0,0.0,0.0,0.0,0.0,0.0,0.4827,0.3931,0.0,0.5588,0.0,0.571,0.585,0.5659,0.5434,0.0,0.0,0.5587,0.556,0.589,0.6076,0.6158,0.6103,0.6266,0.6365,0.6331,0.6374,0.6389,0.6367,0.6325,0.6046,0.5291,0.5534,0.5641,0.5251,0.5142,0.5086,0.495,0.4983,0.4888,0.4587,0.4784,0.4854,0.4456,0.439,0.439,0.4276,0.4016,0.3796,0.3792,0.3508,0.3265,0.3062,0.2524,0.1988,0.181,0.1095,0.038,2.3875,2.3389,2.3032,2.2329,2.1385,2.1155,2.1017,2.0923,2.0394,2.0037,1.9772,1.9227,1.8831,1.8554,1.8554,1.8554,1.8566,1.8554,1.8684,1.883,1.8265,1.8118,1.836,1.7634,1.727,1.7248,1.6568,1.5953,1.5443,1.5214,1.4854,1.4407,1.4407,1.3912,1.3012,1.3171,1.3067,1.2697,1.2426,1.1729,1.0647,1.0125,0.9699,0.9279,0.9082,0.873,0.8175,0.8009,0.7748,0.7421,0.7036,0.685,0.6926,0.654,0.6105,0.0,0.0,0.0,0.0,0.0,0.0,0.0,0.0,0.0,0.0,0.0,0.62,0.6039,0.6464,0.6681,0.6553,0.6634,0.6746,0.6808,0.6599,0.6501,0.6617,0.6724,0.6758,0.6725,0.6821,0.6881,0.6852,0.6723,0.6623,0.6623,0.6496,0.6218,0.582,0.5954,0.608,0.5809,0.5698,0.56,0.5439,0.537,0.5201,0.4794,0.4801,0.4822,0.4584,0.4542,0.4568,0.4609,0.439,0.4122,0.41,0.3858,0.3597,0.3376,0.3015,0.2637,0.2435,0.1741,0.1117,2.4747,2.3809,2.3608,2.3107,2.2396,2.1952,2.1668,2.1464,2.0947,2.0358,1.9784,1.9326,1.9059,1.9025,1.9013,1.9013,1.8987,1.8927,1.8927,1.8951,1.8446,1.838,1.8652,1.7979,1.7701,1.7838,1.7174,1.6523,1.5939,1.5457,1.4976,1.4506,1.4429,1.4373,1.4303,1.4033,1.3716,1.3351,1.2855,1.216,1.1313,1.1081,1.0571,0.9801,0.9733,0.9378,0.8652,0.8525,0.8316,0.8008,0.7261,0.7231,0.8015,0.7116,0.6623,0.0,0.6558,0.0,0.0,0.0,0.0,0.0,0.0,0.0,0.0,0.6748,0.676,0.6581,0.7181,0.7645,0.7753,0.8276,0.845,0.8049,0.7779,0.7464,0.7143,0.7147,0.7196,0.713,0.7312,0.7461,0.7377,0.7125,0.6899,0.6857,0.6575,0.6389,0.6389,0.6367,0.634,0.6227,0.6126,0.592,0.576,0.562,0.5428,0.5147,0.5029,0.4896,0.4854,0.4754,0.4787,0.4886,0.4638,0.4388,0.4405,0.4113,0.3792,0.354,0.3423,0.3256,0.2904,0.237,0.2053,2.5016,2.4407,2.3852,2.3263,2.2647,2.2646,2.2427,2.2005,2.1476,2.0706,1.982,1.9672,1.9423,1.9025,1.9013,1.9013,1.8963,1.8542,1.8578,1.8989,1.8446,1.8177,1.8156,1.7894,1.7713,1.7635,1.7255,1.6942,1.6763,1.6144,1.5532,1.4987,1.4604,1.4244,1.3928,0.0,0.0,0.0,1.3119,1.2506,1.228,1.1281,1.0674,1.0496,1.0134,0.0,0.9183,0.933,0.9159,0.8603,0.8334,0.0,0.0,0.0,0.0,0.0,0.0,0.0,0.0,0.0,0.0,0.0,0.8126,0.7494,0.6702,0.7546,0.8065,0.794,0.8352,0.8487,0.814,0.8157,0.8164,0.8032,0.8178,0.8236,0.8064,0.8252,0.8242,0.7847,0.7812,0.7712,0.7503,0.7097,0.6921,0.6955,0.6602,0.6416,0.6416,0.6432,0.6389,0.6346,0.6255,0.6099,0.5954,0.5836,0.5717,0.5567,0.5546,0.5466,0.5333,0.509,0.4893,0.4868,0.4613,0.44,0.44,0.4082,0.3826,0.3731,0.3634,0.3422,0.2976,0.2457,0.2075,2.5611,0.0,2.4766,2.4083,0.0,2.3288,2.2973,2.242,2.2153,2.154,2.0677,2.0342,1.9904,1.9384,1.9411,1.9239,1.8975,1.871,1.8734,1.8951,1.8458,1.8298,1.8474,1.782,1.7586,1.7693,1.7459,1.7151,1.6797,1.641,1.5878,1.53,1.4755,1.4361,1.4104,1.4303,1.4407,1.4407,1.3777,1.3371,1.3151,1.2514,1.1879,1.1267,1.1146,0.0,0.0,0.0,0.0,0.0,0.0,0.0,0.0,0.0,0.0,0.8664,0.8715,0.8777,0.887,0.8808,0.8981,0.9442,0.8939,0.8306,0.7574,0.8132,0.8481,0.8403,0.8767,0.8875,0.8595,0.8628,0.8668,0.862,0.869,0.8773,0.8941,0.9067,0.9148,0.9109,0.9055,0.8976,0.8794,0.8199,0.7867,0.7802,0.7298,0.6906,0.6851,0.6602,0.641,0.641,0.6346,0.6282,0.6196,0.6083,0.5913,0.5765,0.5648,0.5559,0.547,0.5333,0.5183,0.5106,0.4893,0.469,0.4587,0.432,0.4051,0.3868,0.3754,0.3574,0.3178,0.2856,0.2576,2.616,2.5598,2.5586,2.4923,2.3897,2.3865,2.3536,2.2917,0.0,0.0,0.0,2.0998,2.0458,1.9937,1.9953,1.9652,1.9143,1.9131,1.9083,1.9001,1.8542,1.853,1.8806,1.7851,1.7547,1.7849,1.773,1.7438,1.6938,1.6734,1.6357,1.5815,1.5145,1.4704,1.4477,1.4454,1.443,1.4407,1.4337,1.4106,1.3737,1.364,1.3044,1.192,1.2095,1.1629,1.0453,1.052,1.0375,0.9919,0.9737,0.9897,1.0411,1.0025,1.004,1.061,1.0417,1.0261,1.0239,1.0269,1.021,1.0005,0.9562,0.9127,0.867,0.8599,0.8681,0.8793,0.9124,0.9289,0.9266,0.9437,0.9573,0.95,0.9398,0.9475,0.9744,0.9774,0.9874,1.0176,1.0143,1.0177,1.0089,0.9398,0.8889,0.8784,0.8135,0.7595,0.7496,0.6971,0.6517,0.6517,0.6453,0.6389,0.6389,0.6404,0.6202,0.5917,0.5815,0.5705,0.5577,0.5503,0.5476,0.5445,0.522,0.4939,0.4764,0.4534,0.4276,0.3879,0.3826,0.3725,0.3384,0.3301,0.3145,2.6147,2.5586,2.5586,2.5214,2.4655,2.4643,2.4317,2.376,2.2856,2.2116,2.1588,2.1379,2.0995,2.049,2.0494,2.0193,1.9712,1.97,1.9432,1.8999,1.8903,1.8674,1.8313,1.8144,1.807,1.8117,1.7987,1.8085,1.8228,1.7711,1.7323,1.7022,1.6173,1.5357,1.4707,1.4593,1.45,1.4396,1.4069,1.386,1.3786,1.3406,1.291,1.2341,1.2247,1.1744,1.0793,1.1133,1.114,1.0662,1.0595,1.0656,1.0717,1.032,1.0092,1.0174,1.0152,1.0293,1.0688,1.046,1.0526,1.1013,1.1015,1.043,0.9152,0.9032,0.9299,0.9942,1.0091,1.0263,1.0576,1.0618,1.0593,1.062,1.0629,1.06,1.0543,1.0441,1.0387,1.0447,1.0268,1.0248,1.026,0.9802,0.9426,0.9211,0.8837,0.8411,0.8173,0.7436,0.6883,0.6793,0.6581,0.6432,0.6502,0.666,0.6607,0.634,0.65,0.6481,0.6138,0.5888,0.5719,0.5536,0.5282,0.4963,0.4671,0.4469,0.4279,0.4014,0.3967,0.3854,0.3453,0.3438,0.3361,2.6336,2.6076,2.6097,2.5737,2.5222,2.4946,2.4474,2.396,2.3374,2.2801,2.2321,2.2055,2.1644,2.1172,2.1048,2.0742,2.0213,1.9953,1.9688,1.9435,1.9119,1.8867,1.8614,1.8312,1.8193,1.8205,1.8141,1.8209,1.8336,1.7981,1.7747,1.7568,1.6736,1.5991,1.538,1.5311,1.514,1.4766,1.435,1.4116,1.4116,1.3902,1.3592,1.3108,1.3032,1.268,1.1981,1.1896,1.1776,1.1577,1.1326,1.1166,1.1166,1.0976,1.0965,1.1206,1.1228,1.1435,1.1907,1.1804,1.1789,1.1934,1.1965,1.1603,1.0744,1.0684,1.0748,1.088,1.0906,1.0894,1.0905,1.0892,1.0892,1.0892,1.0892,1.0948,1.1081,1.1081,1.1125,1.1291,1.1265,1.1217,1.1217,1.0739,1.0367,1.0248,0.982,0.9414,0.9275,0.8671,0.8011,0.7527,0.7154,0.6963,0.6935,0.6893,0.6851,0.6687,0.6787,0.6808,0.659,0.6417,0.6311,0.615,0.5731,0.5345,0.5085,0.4883,0.4621,0.4352,0.4266,0.411,0.3796,0.3567,0.3318,2.6487,2.6487,2.6487,2.6235,2.5737,2.5222,2.4745,2.4324,2.406,2.3636,2.312,2.2665,2.2262,2.1854,2.1735,2.1385,2.0808,2.0402,2.0077,1.9772,1.936,1.9119,1.8963,1.8554,1.8386,1.8374,1.8386,1.8374,1.8374,1.8259,1.8096,1.7863,1.7272,1.6729,1.6182,1.6018,1.5717,1.5292,1.4822,1.4558,1.4558,1.4558,1.4303,1.3862,1.3773,1.3531,1.3058,1.2632,1.2403,1.2432,1.2075,1.1877,1.1916,1.1897,1.2089,1.247,1.2534,1.27,1.3012,1.3036,1.2986,1.2861,1.2808,1.2732,1.2567,1.2534,1.2296,1.1785,1.1687,1.1605,1.1505,1.1378,1.1323,1.1291,1.12,1.1334,1.1586,1.1627,1.1752,1.2021,1.2076,1.2058,1.1987,1.1622,1.1241,1.1083,1.0763,1.042,1.0263,0.9908,0.929,0.8656,0.7968,0.7468,0.7419,0.7293,0.7125,0.7041,0.7104,0.7125,0.7055,0.6999,0.6971,0.6792,0.6394,0.5977,0.5717,0.5409,0.5085,0.481,0.4664,0.4484,0.4157,0.3715,0.3344,2.6499,2.6487,2.6487,2.6461,2.6323,2.5795,2.5485,2.536,2.4913,2.4399,2.3841,2.3034,2.2678,2.2616,2.2561,2.2164,2.1527,2.1467,2.0851,1.9904,1.976,1.9483,1.9047,1.8939,1.8915,1.8903,1.8917,1.8893,1.8893,1.8891,1.8674,1.8202,1.7981,1.7581,1.6985,1.6431,1.5997,1.5833,1.5314,1.504,1.504,1.504,1.4766,1.4168,1.4036,1.3801,1.3499,1.318,1.3063,1.3176,1.3029,1.3006,1.3107,1.3127,1.3254,1.3515,1.3558,1.3581,1.3627,1.3513,1.3583,1.3815,1.3751,1.3806,1.4098,1.4163,1.368,1.284,1.2536,1.2586,1.2918,1.2647,1.2426,1.2349,1.2093,1.2018,1.2009,1.2046,1.2039,1.2058,1.2076,1.2076,1.2067,1.1895,1.1722,1.1504,1.131,1.1135,1.1077,1.079,1.0481,1.0085,0.9043,0.7925,0.7659,0.7649,0.7643,0.7461,0.7607,0.7607,0.7419,0.7356,0.7328,0.7259,0.7014,0.6632,0.6303,0.5915,0.5556,0.5363,0.5135,0.484,0.4446,0.4012,0.365,2.6776,2.6487,2.6487,2.6487,2.6449,2.6235,2.5946,2.5573,2.5372,2.4983,2.4462,2.4085,2.3542,2.283,2.2751,2.2524,2.2231,2.1793,2.134,2.0851,2.0475,1.9985,1.9492,1.9483,1.9312,1.9011,1.9013,1.9013,1.9013,1.9013,1.8879,1.8686,1.861,1.832,1.7754,1.7466,1.7025,1.6327,1.6114,1.5832,1.5504,1.5244,1.4993,1.4765,1.4664,1.4585,1.4423,1.4084,1.3892,1.3922,1.3631,1.3472,1.3534,1.3522,1.3721,1.4071,1.4382,1.4521,1.4521,1.4478,1.4492,1.4631,1.4608,1.4643,1.4778,1.4811,1.4708,1.453,1.3801,1.3307,1.3232,1.29,1.27,1.2652,1.2332,1.211,1.2076,1.2101,1.2076,1.2076,1.2076,1.2101,1.2076,1.2051,1.1977,1.1868,1.1803,1.1719,1.166,1.1453,1.1171,1.0807,1.0052,0.9474,0.8966,0.857,0.8378,0.8146,0.7969,0.7795,0.7753,0.7712,0.7691,0.7691,0.7398,0.7175,0.7004,0.6676,0.636,0.6128,0.5713,0.5344,0.4946,0.4606,0.4385,2.7216,2.6738,2.6575,2.6487,2.6487,2.6487,2.6248,2.5862,2.5858,2.5536,2.5026,2.5001,2.4411,2.3492,2.317,2.296,2.2702,2.22,2.1841,2.1635,2.117,2.064,2.0117,1.9912,1.9631,1.9266,1.9059,1.9013,1.9013,1.9013,1.9013,1.9013,1.9013,1.8821,1.8434,1.8301,1.7832,1.7111,1.6787,1.6415,1.5999,1.5551,1.5289,1.5266,1.5221,1.5221,1.5255,1.4863,1.4666,1.4698,1.434,1.4166,1.4197,1.4208,1.4381,1.474,1.509,1.53,1.5289,1.5382,1.5441,1.5441,1.5522,1.5579,1.5533,1.5544,1.5705,1.5933,1.518,1.4502,1.4181,1.3836,1.3625,1.3536,1.3143,1.2893,1.2881,1.2626,1.2516,1.2547,1.2457,1.2249,1.2249,1.2175,1.2076,1.2076,1.2076,1.2076,1.1977,1.1859,1.1653,1.1279,1.1138,1.0753,1.018,0.9589,0.9143,0.8871,0.8609,0.8383,0.8178,0.8098,0.8064,0.8015,0.7725,0.7551,0.7439,0.7238,0.7036,0.6935,0.6512,0.5889,0.5566,0.524,0.5022,2.7745,2.7205,2.6713,2.6559,2.6499,2.6487,2.6521,2.6454,2.6424,2.6122,2.5598,2.5594,2.5259,2.4695,2.4217,2.3585,2.2958,2.2841,2.2454,2.1982,2.1866,2.1472,2.0738,2.0244,1.9946,1.9763,1.9302,1.9049,1.9025,1.9013,1.9013,1.9013,1.9013,1.9001,1.8855,1.847,1.8181,1.7905,1.7147,1.6607,1.6476,1.6021,1.5739,1.5696,1.5547,1.5547,1.5614,1.5401,1.5299,1.5444,1.5251,1.5241,1.5363,1.5373,1.5474,1.5666,1.5736,1.5772,1.5809,1.6123,1.6314,1.6303,1.6525,1.6731,1.6553,1.6553,1.6599,1.6677,1.657,1.6436,1.6421,1.5847,1.5582,1.5375,1.51,1.4743,1.4518,1.3771,1.3563,1.36,1.3145,1.2772,1.2715,1.2348,1.2224,1.2175,1.2126,1.2126,1.215,1.2101,1.2039,1.1996,1.1849,1.1595,1.0513,1.014,0.9952,0.9655,0.9398,0.9194,0.8849,0.8561,0.8467,0.8324,0.8077,0.7891,0.7829,0.7663,0.7447,0.7223,0.6861,0.6395,0.6251,0.5614,0.5428,2.8298,2.777,2.7253,2.7246,2.7563,2.6844,2.6748,2.7074,2.6679,2.6386,2.6278,2.6619,2.6543,2.6,2.5807,2.4962,2.3629,2.3144,2.2767,2.2545,2.2443,2.207,2.1538,2.1293,2.0925,2.0431,1.9922,1.9419,1.9037,1.9013,1.9013,1.9013,1.9013,1.9013,1.8951,1.8833,1.8398,1.7736,1.7604,1.7291,1.6667,1.6415,1.6296,1.6249,1.5893,1.5703,1.577,1.5659,1.5637,1.5703,1.5637,1.5637,1.5703,1.5691,1.5726,1.5828,1.6104,1.6319,1.6379,1.6764,1.7027,1.7027,1.7122,1.7228,1.7168,1.7143,1.7273,1.7546,1.7665,1.7772,1.781,1.6951,1.6047,1.592,1.5628,1.5367,1.5102,1.4733,1.4527,1.4425,1.3907,1.3462,1.3427,1.3067,1.2817,1.2793,1.2817,1.2725,1.2554,1.2471,1.245,1.2175,1.2067,1.1935,1.1595,1.1013,1.0658,1.0334,1.0036,0.9645,0.9287,0.896,0.8795,0.8668,0.8417,0.8255,0.818,0.8098,0.787,0.7467,0.7107,0.7031,0.7011,0.6387,0.6238,2.9279,2.8892,2.8553,2.8378,2.8307,2.7751,2.7587,2.7782,2.7351,2.7129,2.7217,2.7637,2.7629,2.7271,2.7118,2.6419,2.5135,2.4078,2.3465,2.3288,2.3198,2.292,2.2522,2.2117,2.1682,2.1133,2.0608,2.0004,1.9461,1.9373,1.9289,1.9131,1.9131,1.9105,1.9078,1.9064,1.8654,1.8073,1.7965,1.7628,1.7111,1.6739,1.6691,1.6751,1.6343,1.596,1.5838,1.5814,1.5814,1.5814,1.5814,1.5814,1.5814,1.5814,1.5886,1.6078,1.6368,1.6691,1.6895,1.7339,1.7664,1.7688,1.782,1.7917,1.7929,1.7929,1.8121,1.8362,1.8458,1.8638,1.8641,1.7809,1.7017,1.6914,1.6658,1.6413,1.6203,1.5864,1.5561,1.5288,1.4942,1.4648,1.4494,1.4121,1.3874,1.3764,1.3725,1.3541,1.3204,1.3066,1.2939,1.2554,1.251,1.2461,1.2235,1.1876,1.1395,1.1037,1.0669,1.0232,0.9813,0.9452,0.9142,0.8976,0.8807,0.8647,0.8549,0.8475,0.8201,0.7787,0.7626,0.7534,0.7397,0.7189,0.6981,3.0735,3.0664,3.0699,2.9903,2.8998,2.9154,2.9034,2.856,2.8427,2.8312,2.8279,2.846,2.8497,2.8375,2.7999,2.7672,2.7178,2.5813,2.4747,2.422,2.4138,2.3998,2.368,2.2744,2.2155,2.1885,2.1371,2.0813,2.0298,2.0131,1.9871,1.9478,1.9405,1.9289,1.9208,1.9196,1.9119,1.8752,1.8075,1.7773,1.7989,1.7171,1.6883,1.7207,1.6799,1.6307,1.5838,1.5814,1.5814,1.5814,1.5814,1.5814,1.5874,1.5886,1.6044,1.6523,1.6643,1.6931,1.7363,1.7905,1.8217,1.8265,1.865,1.8845,1.8782,1.8845,1.8855,1.8879,1.8915,1.9001,1.8989,1.8838,1.8634,1.8605,1.8292,1.8158,1.7867,1.7276,1.6643,1.6258,1.6041,1.6058,1.5822,1.5412,1.5056,1.4924,1.4826,1.461,1.419,1.4068,1.374,1.3395,1.3213,1.3106,1.2915,1.2647,1.2181,1.1742,1.1358,1.0942,1.0512,1.0145,0.9717,0.9477,0.9037,0.8867,0.8724,0.8651,0.8557,0.8242,0.8118,0.7981,0.7808,0.7642,0.7468,3.2118,3.1943,3.1612,3.1257,3.0707,3.0126,2.9647,2.9341,2.8949,2.8648,2.8602,2.903,2.9251,2.9223,2.9073,2.8781,2.8377,2.7674,2.6688,2.5578,2.5343,2.5085,2.4565,2.3819,2.3187,2.2697,2.2407,2.1982,2.1395,2.0635,2.0094,1.9922,1.9605,1.938,1.9405,1.9342,1.9169,1.8777,1.8751,1.8557,1.7983,1.7545,1.7206,1.6976,1.6725,1.6355,1.5828,1.5814,1.5814,1.5826,1.5814,1.597,1.6271,1.6355,1.6584,1.7111,1.752,1.7736,1.7977,1.8434,1.8748,1.8797,1.8941,1.9001,1.9013,1.9013,1.9013,1.9013,1.9013,1.9013,1.9013,1.9013,1.8936,1.8881,1.8854,1.8786,1.856,1.8178,1.7825,1.7497,1.719,1.7008,1.6854,1.649,1.6201,1.6139,1.6063,1.5876,1.5517,1.5285,1.5076,1.4607,1.4285,1.3877,1.3668,1.339,1.3006,1.2445,1.1959,1.1732,1.1301,1.0755,1.0317,0.995,0.947,0.9168,0.9023,0.8876,0.8807,0.8647,0.8459,0.8324,0.8229,0.8085,0.7904,3.3345,3.3233,3.3121,3.2744,3.2215,3.1407,3.0922,3.0565,2.9938,2.9577,2.9594,2.987,3.0023,3.0038,3.0007,2.9749,2.9437,2.9348,2.8572,2.725,2.6434,2.6031,2.5561,2.4776,2.4235,2.3819,2.3655,2.3351,2.2758,2.1833,2.1346,2.1268,2.0547,2.0163,2.0087,1.9859,1.9507,1.9016,1.9014,1.8854,1.8437,1.813,1.791,1.7727,1.7484,1.7061,1.6588,1.6358,1.6205,1.6151,1.6283,1.6571,1.6871,1.6907,1.7159,1.7652,1.8001,1.8265,1.8494,1.8782,1.9013,1.9013,1.9013,1.9013,1.9013,1.9013,1.9013,1.9013,1.8821,1.8698,1.8698,1.8698,1.871,1.8698,1.8879,1.8948,1.8878,1.8744,1.8587,1.8362,1.8175,1.8008,1.7853,1.7673,1.738,1.734,1.7263,1.7074,1.6712,1.6494,1.617,1.5811,1.552,1.5049,1.451,1.4153,1.3793,1.3184,1.2541,1.2411,1.2177,1.1426,1.0886,1.0591,1.0191,0.9884,0.9709,0.9428,0.9248,0.9026,0.8831,0.8692,0.8598,0.8496,0.8345,3.4361,3.4461,3.4953,3.4328,3.3245,3.3015,3.2559,3.1897,3.1367,3.1028,3.0969,3.0864,3.082,3.0776,3.0699,3.064,3.0583,3.0451,3.0087,2.9131,2.7954,2.7018,2.6651,2.5798,2.527,2.5103,2.498,2.4681,2.4123,2.34,2.3282,2.303,2.2049,2.1433,2.1264,2.0783,2.0246,1.9672,1.9195,1.917,1.9329,1.8995,1.8771,1.909,1.8733,1.824,1.7627,1.7296,1.6959,1.6725,1.7002,1.7255,1.7436,1.7472,1.7713,1.8244,1.8267,1.8544,1.8893,1.8989,1.9013,1.9013,1.8941,1.8975,1.9028,1.8967,1.8955,1.9016,1.8652,1.8362,1.8362,1.8386,1.8386,1.835,1.8746,1.8975,1.9013,1.896,1.8907,1.8934,1.8987,1.8934,1.8688,1.8576,1.8469,1.8362,1.8193,1.7908,1.7673,1.7451,1.7252,1.6965,1.6655,1.6202,1.5672,1.529,1.4955,1.4334,1.3597,1.3194,1.2853,1.21,1.1588,1.1301,1.1038,1.0708,1.0389,1.0143,0.9784,0.9511,0.931,0.911,0.8994,0.8919,0.8815,3.5198,3.5213,3.5344,3.4924,3.4201,3.4105,3.3374,3.2287,3.2064,3.1619,3.1279,3.1529,3.1396,3.1087,3.1455,3.132,3.0878,3.0761,3.0644,3.0234,2.9363,2.834,2.7655,2.72,2.6735,2.633,2.5925,2.5577,2.5354,2.4395,2.3947,2.3851,2.3228,2.2558,2.2089,2.1916,2.1479,2.0959,2.075,2.0253,1.9789,1.9891,1.9376,1.8436,1.893,1.873,1.7993,1.8068,1.7749,1.6981,1.7017,1.7518,1.8178,1.8276,1.8508,1.8897,1.8953,1.8962,1.9069,1.9052,1.9013,1.8977,1.8815,1.8744,1.9095,1.878,1.8804,1.8986,1.8921,1.8746,1.8758,1.8746,1.8746,1.8794,1.8929,1.9013,1.9013,1.9013,1.9013,1.9013,1.9013,1.8972,1.8946,1.8907,1.8866,1.8813,1.8747,1.8658,1.8407,1.8319,1.809,1.7976,1.7694,1.7298,1.688,1.6523,1.6071,1.5532,1.4821,1.4059,1.3481,1.2662,1.2385,1.219,1.197,1.1663,1.1295,1.0985,1.0554,1.0202,1.0107,1.0039,0.9617,0.9423,0.9307,3.5489,3.5489,3.5489,3.528,3.4891,3.4638,3.3857,3.2899,3.2467,3.1976,3.1471,3.1531,3.1679,3.1634,3.1869,3.178,3.1336,3.1306,3.113,3.0733,3.0294,2.9363,2.8455,2.812,2.7934,2.7569,2.6929,2.6714,2.6449,2.5451,2.5051,2.5059,2.4385,2.3796,2.3506,2.3133,2.2622,2.1931,2.1746,2.1342,2.0564,2.0677,2.0425,1.9647,1.9989,1.9802,1.9134,1.9048,1.8607,1.7953,1.7921,1.8302,1.883,1.8915,1.9087,1.9394,1.9316,1.9275,1.9275,1.921,1.9172,1.9148,1.892,1.8983,1.9165,1.897,1.8995,1.9214,1.9028,1.883,1.8742,1.8702,1.877,1.8953,1.9013,1.9013,1.9013,1.9013,1.9013,1.9013,1.9013,1.9013,1.9013,1.9013,1.9013,1.8999,1.8972,1.896,1.8924,1.8919,1.8827,1.859,1.8445,1.8057,1.7721,1.7365,1.6938,1.6423,1.5744,1.5011,1.4198,1.3411,1.3163,1.2999,1.2849,1.2595,1.2173,1.1832,1.1597,1.1321,1.117,1.0978,1.0646,1.0308,1.0146,3.5489,3.5489,3.5489,3.5489,3.537,3.4861,3.4262,3.3544,3.2916,3.2273,3.1765,3.1514,3.1842,3.2302,3.2316,3.218,3.2135,3.1987,3.1559,3.1176,3.0778,3.0119,2.9217,2.8841,2.8754,2.8582,2.8101,2.7813,2.7446,2.6604,2.64,2.6363,2.5611,2.5111,2.4801,2.4473,2.3685,2.2895,2.2721,2.2344,2.1766,2.1691,2.1547,2.1059,2.1035,2.0975,2.0516,2.0165,1.9598,1.8946,1.9318,1.947,1.9543,1.9526,1.9552,1.9591,1.9617,1.9591,1.9591,1.963,1.9512,1.9514,1.9464,1.9422,1.9411,1.9364,1.9353,1.9408,1.8978,1.8778,1.8664,1.8477,1.8682,1.9008,1.9078,1.904,1.904,1.9013,1.9013,1.9013,1.9013,1.9013,1.9013,1.9013,1.9013,1.9013,1.9013,1.9013,1.9013,1.8972,1.8972,1.891,1.8814,1.8756,1.8464,1.8161,1.7725,1.7233,1.6533,1.5799,1.5015,1.4344,1.3997,1.3793,1.3662,1.3375,1.2927,1.2658,1.2503,1.2293,1.2051,1.2002,1.1927,1.1611,1.1373,3.5489,3.5489,3.5489,3.5489,3.5474,3.534,3.4891,3.4203,3.3559,3.2916,3.2378,3.2243,3.2348,3.2512,3.2929,3.3137,3.291,3.2479,3.1812,3.1146,3.1087,3.0925,3.0367,2.9828,2.9421,2.9276,2.8782,2.852,2.8262,2.7773,2.7357,2.7308,2.672,2.6119,2.5657,2.5462,2.511,2.4453,2.4251,2.3649,2.2961,2.3008,2.2653,2.1654,2.1489,2.1387,2.1267,2.1104,2.0961,2.0772,2.0518,2.0428,2.0332,2.0308,2.0308,2.0283,2.0245,2.0372,2.0622,2.0308,2.0042,2.0042,1.9837,1.9572,1.9542,1.9611,1.9611,1.9519,1.9362,1.929,1.9252,1.9198,1.9273,1.9397,1.9408,1.9368,1.9289,1.9158,1.904,1.9013,1.904,1.9013,1.9013,1.9013,1.9013,1.9013,1.9013,1.9013,1.8989,1.8965,1.8941,1.8905,1.8977,1.8867,1.8806,1.855,1.8307,1.7908,1.7283,1.6807,1.5995,1.5314,1.5007,1.4737,1.4537,1.414,1.3634,1.3558,1.3443,1.3179,1.2942,1.2873,1.281,1.2644,1.255,3.5489,3.5489,3.5489,3.5489,3.5489,3.5489,3.5115,3.4518,3.4159,3.3589,3.3066,3.2961,3.2961,3.3021,3.3604,3.3798,3.3407,3.3063,3.2615,3.2168,3.1886,3.1619,3.1382,3.0764,3.0309,3.0178,2.9651,2.9345,2.9098,2.8618,2.8053,2.771,2.7389,2.6883,2.6384,2.6268,2.5908,2.5404,2.5284,2.4793,2.4099,2.3841,2.3432,2.2353,2.2109,2.2109,2.2119,2.2105,2.2095,2.2039,2.1829,2.1434,2.1035,2.0981,2.0981,2.0944,2.0919,2.0968,2.1102,2.1004,2.0782,2.0758,2.0552,2.0484,2.0429,2.043,2.0443,2.0431,2.0396,2.0321,2.0258,2.0169,2.0156,2.0156,2.0144,2.0067,1.9785,1.946,1.9184,1.9172,1.9198,1.9158,1.9131,1.9131,1.9052,1.9052,1.9013,1.8989,1.8686,1.8674,1.8724,1.876,1.8929,1.8977,1.9001,1.8903,1.8792,1.8428,1.8006,1.768,1.728,1.6629,1.6045,1.5672,1.5244,1.4811,1.4391,1.4351,1.4291,1.4102,1.3889,1.3763,1.3641,1.3593,1.3529,3.5489,3.5489,3.5489,3.5489,3.5489,3.5489,3.519,3.4728,3.4548,3.4144,3.3679,3.3559,3.3455,3.3724,3.3993,3.3933,3.3619,3.3469,3.3213,3.3062,3.2705,3.2347,3.2005,3.156,3.1205,3.1131,3.0513,3.0205,2.9942,2.943,2.8846,2.8197,2.7952,2.7615,2.7149,2.6948,2.6657,2.6065,2.5923,2.5618,2.4993,2.4505,2.3951,2.3374,2.3236,2.325,2.3241,2.3236,2.3195,2.3215,2.3113,2.2591,2.2033,2.1565,2.1527,2.1513,2.1503,2.1623,2.1718,2.1599,2.1489,2.1513,2.15,2.1414,2.1342,2.1355,2.1423,2.1524,2.1547,2.1643,2.1533,2.1494,2.1404,2.1389,2.1349,2.1081,2.0614,2.0092,1.9962,1.9394,1.9474,1.9526,1.9408,1.9342,1.921,1.9105,1.9066,1.897,1.8704,1.862,1.878,1.8668,1.8801,1.8484,1.8435,1.8497,1.8484,1.8423,1.8181,1.8085,1.7928,1.7349,1.6622,1.6232,1.5811,1.5418,1.5097,1.4891,1.4856,1.4891,1.472,1.4436,1.4423,1.4523,1.4377,3.5489,3.5489,3.5489,3.5489,3.5489,3.5504,3.5429,3.525,3.4758,3.4459,3.4294,3.3784,3.3888,3.4098,3.3769,3.3619,3.3709,3.3724,3.3664,3.3587,3.3333,3.3064,3.2601,3.2333,3.1975,3.147,3.1101,3.094,3.0704,3.0219,2.9734,2.9557,2.9103,2.849,2.7969,2.7764,2.736,2.6771,2.6611,2.6221,2.5745,2.5411,2.4965,2.4375,2.4297,2.4317,2.4389,2.4447,2.4505,2.4515,2.4022,2.3696,2.3278,2.263,2.2226,2.2039,2.2077,2.2208,2.2502,2.2297,2.2114,2.2077,2.2189,2.191,2.1777,2.19,2.2276,2.2388,2.2711,2.2975,2.2966,2.2852,2.2898,2.2886,2.2828,2.2602,2.2111,2.1736,2.1068,2.0103,2.0002,1.9965,1.9901,1.9759,1.963,1.9526,1.9448,1.9323,1.9114,1.9087,1.9209,1.8996,1.871,1.821,1.7725,1.7786,1.7847,1.7908,1.7786,1.7799,1.7641,1.752,1.7098,1.6728,1.6456,1.6138,1.5835,1.5533,1.5337,1.5292,1.5154,1.5017,1.488,1.4777,1.4685,3.5765,3.5733,3.5765,3.5765,3.5748,3.5636,3.5589,3.5559,3.5194,3.5011,3.4921,3.4681,3.4472,3.4548,3.4622,3.4547,3.4487,3.4547,3.4532,3.4487,3.4173,3.3873,3.3425,3.32,3.2647,3.2154,3.1871,3.156,3.122,3.0894,3.0524,3.0069,2.9745,2.9261,2.8645,2.8233,2.7944,2.7524,2.719,2.6816,2.636,2.6101,2.5498,2.5111,2.4927,2.4824,2.4824,2.4824,2.481,2.4752,2.4534,2.4428,2.425,2.3899,2.3264,2.2755,2.2612,2.2847,2.3285,2.3172,2.3245,2.3536,2.3498,2.344,2.3295,2.3477,2.3496,2.3643,2.3752,2.4101,2.4069,2.4078,2.4101,2.4115,2.4118,2.3811,2.342,2.3261,2.231,2.1106,2.0996,2.0889,2.0509,2.0346,2.0118,1.9978,1.985,1.9711,1.9573,1.9686,1.9799,1.9383,1.9108,1.8772,1.8239,1.8115,1.7944,1.7834,1.7711,1.7699,1.7688,1.7675,1.7521,1.7243,1.6991,1.686,1.6575,1.628,1.601,1.566,1.5474,1.5278,1.5142,1.5017,1.4915,3.602,3.602,3.602,3.602,3.5988,3.5831,3.5752,3.5735,3.5668,3.5589,3.5587,3.5574,3.5227,3.494,3.5043,3.5235,3.531,3.522,3.522,3.528,3.4921,3.4668,3.4339,3.3948,3.335,3.2766,3.2676,3.2228,3.1455,3.1276,3.0922,3.0641,3.0435,3.0023,2.9389,2.9018,2.8648,2.8207,2.7738,2.7321,2.6923,2.6411,2.5929,2.557,2.5404,2.5413,2.5485,2.55,2.5471,2.5413,2.5252,2.5111,2.515,2.5048,2.4471,2.3589,2.3339,2.3606,2.3905,2.408,2.4158,2.4491,2.4728,2.4757,2.4761,2.463,2.4906,2.5013,2.5181,2.5243,2.5254,2.521,2.5264,2.5268,2.5218,2.5009,2.4619,2.4311,2.3931,2.3039,2.2387,2.1765,2.1301,2.1164,2.0993,2.0658,2.0534,2.0468,2.0363,2.0429,2.038,1.9881,1.9589,1.9452,1.9182,1.8969,1.8721,1.8425,1.8239,1.8118,1.8058,1.8029,1.7834,1.7645,1.7784,1.7623,1.7326,1.6776,1.6171,1.5759,1.5676,1.555,1.5402,1.5242,1.5106,3.602,3.602,3.602,3.602,3.6005,3.5973,3.5973,3.5973,3.591,3.5941,3.5893,3.591,3.5753,3.5492,3.4896,3.4713,3.4713,3.4848,3.5117,3.54,3.5325,3.4996,3.4608,3.4474,3.3978,3.3484,3.338,3.2617,3.19,3.1646,3.1467,3.1245,3.114,3.0933,3.0195,2.9868,2.9709,2.9007,2.8414,2.7823,2.7299,2.7082,2.6964,2.6861,2.6802,2.6718,2.6619,2.6604,2.6663,2.6688,2.6266,2.606,2.5967,2.5545,2.5295,2.4963,2.479,2.4636,2.4772,2.4796,2.4883,2.5116,2.5101,2.4907,2.5139,2.5483,2.5716,2.5691,2.6112,2.6344,2.63,2.6445,2.6518,2.6431,2.6271,2.6013,2.5709,2.5368,2.498,2.4619,2.3854,2.2811,2.2045,2.1959,2.1827,2.1489,2.1221,2.1167,2.114,2.1159,2.1121,2.0679,2.0274,2.0125,2.003,1.983,1.9443,1.9078,1.8945,1.8666,1.835,1.8256,1.8122,1.8019,1.8177,1.7951,1.7304,1.6673,1.612,1.6013,1.6102,1.5943,1.5671,1.5533,1.5494,3.6609,3.6258,3.6289,3.6289,3.6258,3.6163,3.6116,3.6085,3.6037,3.602,3.602,3.602,3.5941,3.5772,3.5466,3.5296,3.5202,3.5155,3.5257,3.5462,3.5474,3.5325,3.5145,3.5011,3.4696,3.4265,3.3994,3.3619,3.2781,3.2213,3.1914,3.157,3.1511,3.1347,3.0903,3.0589,3.0248,2.9761,2.9228,2.8604,2.8114,2.7843,2.7643,2.7328,2.7277,2.7262,2.7251,2.7192,2.7192,2.7163,2.6842,2.6794,2.675,2.6543,2.6366,2.6341,2.6266,2.6015,2.5697,2.5653,2.5745,2.6088,2.6136,2.6199,2.6137,2.6229,2.6407,2.6384,2.6591,2.6791,2.6806,2.6794,2.6794,2.6806,2.6832,2.6715,2.6454,2.6387,2.6104,2.5723,2.5288,2.4265,2.3287,2.2985,2.2766,2.2253,2.1965,2.1841,2.1799,2.1799,2.172,2.1572,2.1182,2.086,2.0758,2.0624,2.0148,1.9849,2.0025,1.9582,1.8725,1.8428,1.8534,1.8236,1.8041,1.7669,1.7144,1.698,1.6766,1.6691,1.6617,1.6396,1.621,1.6324,1.6237,3.7446,3.6969,3.6661,3.6492,3.6492,3.6352,3.6274,3.6274,3.6195,3.6132,3.61,3.6068,3.6068,3.6037,3.5975,3.5819,3.5769,3.5799,3.5718,3.5636,3.5619,3.5651,3.5593,3.5546,3.5351,3.4885,3.4838,3.4386,3.38,3.3275,3.2751,3.2004,3.1929,3.1795,3.1585,3.1152,3.0675,3.0332,2.9903,2.9394,2.8898,2.8672,2.8378,2.8051,2.7747,2.765,2.7769,2.7621,2.7591,2.7899,2.7928,2.788,2.7617,2.7528,2.7484,2.7424,2.728,2.7236,2.6978,2.6893,2.6838,2.7015,2.7192,2.6953,2.6949,2.7041,2.7,2.6834,2.6893,2.6922,2.691,2.691,2.6937,2.6937,2.6922,2.691,2.6896,2.6779,2.6732,2.6506,2.614,2.5812,2.4958,2.429,2.3735,2.307,2.2762,2.2569,2.2446,2.2395,2.2282,2.2174,2.2034,2.1736,2.1678,2.1431,2.0927,2.0695,2.0854,2.0706,1.9991,1.9503,1.9433,1.8961,1.8363,1.8058,1.792,1.7728,1.7483,1.714,1.688,1.6863,1.682,1.6909,1.6875,3.8415,3.8277,3.7046,3.6538,3.6522,3.6492,3.6492,3.646,3.646,3.6429,3.6398,3.6274,3.6211,3.6195,3.61,3.6037,3.5973,3.5973,3.5973,3.5973,3.5988,3.5941,3.5941,3.5926,3.5943,3.5773,3.5667,3.5241,3.4692,3.4268,3.383,3.338,3.2736,3.2497,3.2228,3.178,3.1122,3.0778,3.0464,3.0105,2.9684,2.9463,2.9388,2.9223,2.8865,2.876,2.934,2.8778,2.8618,2.9092,2.9065,2.8901,2.8528,2.8454,2.8439,2.8364,2.8051,2.8185,2.8412,2.7821,2.7277,2.7207,2.7351,2.7513,2.7561,2.734,2.724,2.735,2.746,2.7368,2.7306,2.7225,2.7427,2.743,2.7474,2.7313,2.7269,2.7104,2.7071,2.7082,2.685,2.6476,2.6304,2.5556,2.4751,2.4101,2.3645,2.345,2.3051,2.2922,2.2815,2.2752,2.2746,2.2657,2.268,2.2368,2.1945,2.178,2.1836,2.1787,2.1492,2.1081,2.0419,1.9963,1.9426,1.9055,1.8739,1.8659,1.8342,1.7518,1.7178,1.7323,1.7265,1.7234,1.7164,3.909,3.8998,3.8123,3.7492,3.7076,3.6676,3.6492,3.6492,3.6492,3.6492,3.6523,3.6414,3.6383,3.6352,3.632,3.6226,3.6211,3.6538,3.6383,3.6274,3.6305,3.629,3.6258,3.6321,3.6383,3.6196,3.6212,3.5844,3.4955,3.5001,3.4699,3.415,3.3668,3.3231,3.2901,3.2377,3.172,3.1286,3.1047,3.0763,3.0283,3.0118,2.9968,2.9549,2.9472,2.9337,2.9505,2.934,2.94,2.9535,2.9639,2.9475,2.928,2.922,2.9205,2.9202,2.8858,2.9127,2.9367,2.8752,2.8282,2.8654,2.8699,2.8571,2.8429,2.8518,2.8468,2.8444,2.8314,2.8237,2.8358,2.8361,2.8419,2.8272,2.8107,2.7897,2.7791,2.7658,2.7436,2.7491,2.7292,2.699,2.6876,2.6732,2.5912,2.5112,2.4718,2.4283,2.3856,2.3545,2.3487,2.3261,2.3217,2.3078,2.3078,2.2997,2.2902,2.2772,2.2678,2.2432,2.2193,2.1924,2.1332,2.0885,2.0503,2.0165,1.9908,1.9744,1.919,1.8344,1.8004,1.7996,1.7866,1.7631,1.7585,4.0218,4.028,3.9436,3.8463,3.7493,3.6984,3.6661,3.6538,3.6723,3.6785,3.6754,3.6785,3.6631,3.6569,3.6723,3.6708,3.6799,3.7101,3.7087,3.7087,3.7101,3.7041,3.6966,3.7027,3.7221,3.6829,3.6873,3.6667,3.6116,3.5919,3.5882,3.5661,3.5056,3.4634,3.3364,3.272,3.2137,3.1869,3.1525,3.1496,3.1047,3.0853,3.0717,3.0223,3.0028,3.0073,3.0118,3.0073,3.0043,3.0193,3.0238,3.0073,2.9953,2.9864,2.9849,2.9831,2.9741,2.9771,2.9864,2.9472,2.9146,2.9328,2.946,2.9421,2.9498,2.9471,2.9208,2.9186,2.9218,2.9279,2.9294,2.9129,2.9097,2.8946,2.8842,2.8675,2.8601,2.8482,2.8099,2.7877,2.7691,2.7643,2.7306,2.7162,2.6592,2.5899,2.5531,2.5072,2.4613,2.4364,2.4253,2.3981,2.3658,2.3466,2.3298,2.3122,2.2968,2.2873,2.2757,2.2693,2.2461,2.228,2.2033,2.1497,2.1222,2.1206,2.0885,2.0439,1.9817,1.9109,1.8832,1.8506,1.8293,1.8084,1.8145,4.178,4.2263,4.1001,3.937,3.7838,3.7539,3.7233,3.7018,3.7288,3.7435,3.7403,3.7371,3.7118,3.6861,3.7208,3.7342,3.749,3.7953,3.8108,3.7994,3.8051,3.8165,3.8108,3.8096,3.8023,3.8149,3.806,3.7853,3.7578,3.7221,3.7323,3.7326,3.6752,3.6011,3.3886,3.2547,3.2132,3.2332,3.1909,3.2012,3.2058,3.1727,3.1485,3.1302,3.0968,3.0981,3.1286,3.1101,3.1144,3.1351,3.1457,3.1205,3.0719,3.0631,3.0576,3.0492,2.9998,3.0313,3.1137,3.0178,2.9864,2.9879,3.0043,2.9953,2.9744,2.9699,2.9806,2.9948,2.9811,2.9734,2.9672,2.9672,2.9749,2.9749,2.9675,2.948,2.9379,2.9125,2.8725,2.8505,2.848,2.8356,2.7897,2.7488,2.7069,2.6638,2.6322,2.5884,2.5359,2.5129,2.5017,2.464,2.4256,2.4189,2.3938,2.3327,2.3049,2.2954,2.2881,2.2817,2.2802,2.2723,2.2418,2.2033,2.1953,2.1931,2.1503,2.1025,2.0549,2.0124,1.9259,1.8872,1.8663,1.8621,1.8739,4.2294,4.2472,4.2033,4.1189,4.0177,3.9666,3.9331,3.9106,3.8838,3.8476,3.8046,3.801,3.7924,3.7809,3.7838,3.7982,3.8096,3.859,3.8794,3.839,3.8712,3.8574,3.8546,3.8728,3.8712,3.8518,3.8469,3.8275,3.7418,3.7728,3.7498,3.7355,3.7611,3.6513,3.5393,3.442,3.4227,3.3388,3.3016,3.2881,3.2702,3.2508,3.2339,3.2324,3.2047,3.2187,3.2594,3.2333,3.2415,3.2524,3.2555,3.2307,3.1818,3.172,3.1556,3.1306,3.0879,3.1002,3.1406,3.0987,3.0883,3.0894,3.0761,3.0746,3.0823,3.0838,3.0853,3.0806,3.0687,3.0717,3.0883,3.0896,3.0898,3.0808,3.0644,3.0285,3.0046,2.9684,2.9328,2.9268,2.9205,2.9225,2.891,2.8621,2.8223,2.779,2.7485,2.6698,2.6051,2.584,2.5698,2.528,2.4947,2.4932,2.4702,2.4217,2.386,2.38,2.3433,2.3008,2.3023,2.3139,2.2913,2.2578,2.2607,2.2607,2.2344,2.202,2.1669,2.1124,2.0575,2.0053,1.9933,1.9701,1.9484,4.3376,4.3376,4.3376,4.3112,4.2508,4.1393,4.0821,4.072,4.0291,3.9789,3.9429,3.9152,3.8837,3.8715,3.8632,3.8601,3.8684,3.9216,3.9444,3.8984,3.9312,3.9269,3.9242,3.9259,3.9322,3.9109,3.9156,3.903,3.852,3.8352,3.8361,3.8378,3.8104,3.7807,3.6934,3.6167,3.5438,3.4702,3.442,3.3958,3.3734,3.3475,3.3082,3.3066,3.3045,3.3172,3.3391,3.3521,3.3531,3.3427,3.3365,3.3261,3.2949,3.2734,3.2598,3.2324,3.2213,3.2361,3.2601,3.2721,3.2749,3.276,3.2099,3.1554,3.1496,3.1361,3.1376,3.1406,3.1569,3.1569,3.1598,3.1657,3.1799,3.1707,3.1583,3.1233,3.093,3.0554,3.0377,3.0274,3.0204,3.0144,3.0,2.9831,2.9536,2.9114,2.8677,2.778,2.6932,2.6674,2.655,2.6281,2.5932,2.5896,2.5687,2.5246,2.4921,2.4693,2.4271,2.3836,2.3538,2.3707,2.3405,2.3178,2.3231,2.3258,2.3309,2.3109,2.2797,2.2628,2.2378,2.1851,2.1345,2.0903,2.0513,4.4995,4.5022,4.5022,4.4923,4.4561,4.2613,4.1665,4.1515,4.1448,4.1399,4.1316,4.0569,4.0161,3.9621,3.9446,3.9481,3.9501,4.0017,4.0044,4.0011,3.9986,3.9952,3.9927,3.9944,3.985,3.9969,3.9978,3.9817,3.9927,3.964,3.9657,3.9817,3.9581,3.9169,3.8337,3.756,3.6733,3.6241,3.5727,3.5386,3.5251,3.4465,3.4063,3.3918,3.3864,3.3834,3.3928,3.3953,3.3878,3.3827,3.3761,3.37,3.3624,3.3624,3.3608,3.3531,3.3469,3.3852,3.416,3.4217,3.4505,3.4223,3.3012,3.2098,3.1936,3.2319,3.2522,3.2364,3.2381,3.2086,3.1894,3.2239,3.2553,3.2532,3.2511,3.2262,3.1979,3.1736,3.1543,3.1469,3.142,3.1301,3.1047,3.0871,3.0795,3.0416,2.9939,2.9329,2.8467,2.7555,2.7508,2.758,2.7246,2.6979,2.6676,2.6428,2.6176,2.6009,2.5537,2.51,2.476,2.4447,2.438,2.4242,2.393,2.3843,2.3876,2.3975,2.4008,2.3829,2.3548,2.3128,2.2463,2.2039,2.1729,4.5022,4.5022,4.5022,4.5022,4.4917,4.4276,4.3575,4.2885,4.2818,4.2566,4.2011,4.1809,4.1557,4.1469,4.1436,4.1345,4.1223,4.1083,4.0898,4.073,4.0434,4.0214,4.0113,4.013,4.0113,4.0113,4.0113,4.0113,4.0054,4.0113,4.0113,4.0054,4.0113,3.9893,3.9598,3.9177,3.8395,3.7677,3.7078,3.6868,3.6558,3.5759,3.5391,3.5202,3.4833,3.4816,3.4952,3.5022,3.4982,3.4877,3.4923,3.4818,3.4169,3.4144,3.4095,3.3697,3.3998,3.452,3.4755,3.5198,3.5588,3.5746,3.4928,3.4472,3.4195,3.4088,3.4142,3.3748,3.3547,3.3486,3.3483,3.3724,3.3947,3.4011,3.3909,3.365,3.3365,3.3022,3.2848,3.2582,3.2557,3.2489,3.225,3.2114,3.1999,3.165,3.125,3.0721,2.9895,2.8978,2.8437,2.8521,2.8324,2.7968,2.8023,2.7849,2.7585,2.7321,2.684,2.6442,2.6187,2.5909,2.5645,2.5348,2.5077,2.472,2.4441,2.46,2.4914,2.4666,2.4398,2.4015,2.3631,2.3222,2.2885,4.5157,4.5157,4.514,4.5113,4.5086,4.5086,4.466,4.4085,4.4024,4.3763,4.3355,4.3039,4.2947,4.2836,4.2581,4.2394,4.2343,4.1952,4.1731,4.1545,4.0917,4.0679,4.051,4.0265,4.0113,4.0113,4.0113,4.0113,4.0113,4.0113,4.0113,4.0113,4.0113,4.0113,3.9995,3.9834,3.9555,3.8931,3.8451,3.8184,3.7684,3.7143,3.6867,3.6642,3.6133,3.6192,3.6323,3.6405,3.6369,3.6209,3.6268,3.6028,3.5708,3.5817,3.5527,3.5292,3.5671,3.6264,3.6684,3.6929,3.7085,3.7165,3.7267,3.7156,3.641,3.5993,3.5545,3.5075,3.5154,3.5217,3.5316,3.5443,3.5564,3.5695,3.5455,3.5196,3.4806,3.4384,3.4053,3.3739,3.3652,3.3662,3.3561,3.3403,3.3274,3.308,3.2813,3.2433,3.1406,3.0187,2.9602,2.9437,2.9194,2.8909,2.8989,2.9,2.8694,2.8392,2.8135,2.7792,2.7583,2.7273,2.6897,2.6556,2.6227,2.5977,2.5859,2.566,2.5739,2.5552,2.5337,2.493,2.4662,2.4414,2.4104,4.5414,4.5397,4.5414,4.53,4.522,4.5203,4.5106,4.5032,4.4964,4.4971,4.4756,4.426,4.3943,4.3814,4.3456,4.3217,4.3123,4.2849,4.2626,4.2558,4.1783,4.1426,4.1188,4.0646,4.0527,4.0315,4.0155,4.0138,4.0113,4.0113,4.0113,4.0113,4.0113,4.0113,4.0113,4.0113,3.991,3.9723,3.9309,3.9006,3.8845,3.8422,3.799,3.7925,3.779,3.7746,3.778,3.7831,3.7882,3.7635,3.7408,3.7199,3.7371,3.7533,3.7179,3.7188,3.7321,3.7767,3.822,3.8531,3.8823,3.9191,3.9731,3.9256,3.8365,3.7679,3.7138,3.6734,3.6761,3.6761,3.6831,3.6967,3.7101,3.7173,3.7042,3.6687,3.6266,3.5742,3.5144,3.4808,3.4505,3.4513,3.4488,3.4305,3.4224,3.4281,3.418,3.3829,3.3093,3.1716,3.1085,3.0615,3.0057,2.9836,2.981,2.978,2.9569,2.9361,2.9179,2.9042,2.8742,2.8426,2.8126,2.7766,2.7433,2.7582,2.7532,2.717,2.6802,2.6717,2.6419,2.5899,2.561,2.5423,2.5022,4.5414,4.5414,4.5414,4.5353,4.5353,4.5344,4.5344,4.5318,4.5318,4.5184,4.4998,4.4817,4.4714,4.4605,4.4468,4.4314,4.4253,4.3765,4.3602,4.332,4.2739,4.2346,4.2244,4.1588,4.1223,4.0917,4.0646,4.04,4.0417,4.0307,4.0163,4.0163,4.0248,4.0333,4.0333,4.0316,4.0316,4.0248,4.0045,3.9791,3.9622,3.9199,3.8734,3.8565,3.8413,3.8125,3.8075,3.8007,3.7956,3.7804,3.7753,3.7753,3.7848,3.7922,3.7855,3.7821,3.8311,3.8802,3.9089,3.9486,3.9716,3.9809,3.9995,3.9969,3.9699,3.9277,3.8878,3.8487,3.8268,3.8235,3.8288,3.8421,3.8536,3.8561,3.8547,3.8128,3.7652,3.6953,3.6235,3.5835,3.5445,3.5318,3.5315,3.5255,3.5182,3.5125,3.5075,3.4864,3.4574,3.3644,3.2895,3.2259,3.1095,3.0768,3.0739,3.0588,3.0402,3.0249,3.0054,2.9945,2.9835,2.9407,2.8986,2.885,2.8682,2.8715,2.8583,2.821,2.796,2.78,2.7402,2.6836,2.652,2.6322,2.5791,4.5414,4.5414,4.5414,4.5414,4.5414,4.5414,4.5414,4.5414,4.5414,4.5318,4.5194,4.5184,4.5184,4.5184,4.5184,4.5184,4.5072,4.4702,4.4504,4.4264,4.3732,4.3355,4.2971,4.2527,4.2219,4.1852,4.1665,4.141,4.1163,4.1231,4.1265,4.1087,4.1078,4.101,4.1027,4.1044,4.0857,4.0637,4.0603,4.0434,4.0231,3.9723,3.9503,3.93,3.9123,3.8836,3.887,3.887,3.887,3.8886,3.892,3.8311,3.8379,3.8616,3.8667,3.8684,3.8988,3.9503,3.9605,3.9808,4.0113,4.0113,4.0113,4.0045,4.0045,3.964,3.964,3.9308,3.9308,3.9265,3.9291,3.9411,3.9436,3.9463,3.9379,3.9068,3.8446,3.7707,3.7261,3.7009,3.669,3.6471,3.6384,3.6114,3.594,3.5435,3.5435,3.5412,3.5227,3.5048,3.4466,3.3857,3.264,3.2022,3.2034,3.1701,3.1252,3.11,3.095,3.0618,3.0365,3.01,2.9843,2.9665,2.9566,2.9558,2.938,2.9055,2.8873,2.8708,2.8265,2.7739,2.747,2.7267,2.6953,4.5414,4.5414,4.5414,4.5414,4.5414,4.5414,4.5414,4.5414,4.5414,4.5414,4.5371,4.5388,4.5414,4.5414,4.5414,4.5414,4.5336,4.5093,4.5117,4.4953,4.4428,4.4222,4.388,4.3382,4.3006,4.274,4.2518,4.2518,4.2432,4.2364,4.2252,4.2447,4.2445,4.2332,4.2356,4.2281,4.1985,4.1595,4.1358,4.1002,4.0604,4.0146,4.0045,4.0062,4.0113,4.0113,4.0079,4.0062,4.0062,3.9994,3.9842,3.9317,3.9022,3.9276,3.9368,3.9436,3.9588,3.991,4.0028,4.0028,4.0113,4.0113,4.0113,4.0146,4.0163,4.0163,4.0138,4.0121,4.0096,4.0062,4.0062,4.0045,4.0087,4.0087,3.9977,3.9876,3.9157,3.8473,3.822,3.8,3.7746,3.751,3.7263,3.6975,3.6569,3.6011,3.5718,3.565,3.5594,3.5442,3.5071,3.4746,3.4086,3.365,3.3309,3.2679,3.2089,3.2001,3.1792,3.1308,3.0937,3.0858,3.07,3.0443,3.0377,3.024,3.01,2.9834,2.9702,2.952,2.8986,2.8489,2.8395,2.8207,2.8196,4.5414,4.5414,4.5414,4.5414,4.5414,4.5414,4.5414,4.5414,4.5414,4.5414,4.5414,4.5414,4.5414,4.5414,4.5414,4.5414,4.5414,4.5344,4.5371,4.5241,4.5016,4.5033,4.4827,4.4216,4.3615,4.334,4.3134,4.2886,4.3279,4.3057,4.28,4.2902,4.2825,4.2782,4.2765,4.2748,4.2729,4.2474,4.2321,4.2048,4.1274,4.0756,4.0146,4.0113,4.0113,4.0113,4.0096,4.0096,4.0096,4.0096,4.0096,3.9842,3.9774,3.9791,3.9842,3.9859,4.0028,4.0163,4.0214,4.0282,4.0316,4.0451,4.0468,4.04,4.0417,4.0383,4.0358,4.0367,4.029,4.0172,4.0138,4.0087,4.0113,4.0113,4.0028,4.0028,3.9665,3.9208,3.8853,3.8599,3.8345,3.8091,3.7838,3.7584,3.7347,3.6874,3.6552,3.6434,3.587,3.5729,3.5673,3.5386,3.511,3.4718,3.4136,3.3436,3.2911,3.2823,3.2655,3.2198,3.1876,3.1771,3.1579,3.1133,3.0842,3.0654,3.0551,3.0381,3.034,3.0091,2.9602,2.9201,2.9145,2.916,2.917]}]]